﻿<?xml version="1.0" encoding="utf-8"?><gpx creator="Garmin Desktop App" version="1.1" xsi:schemaLocation="http://www.topografix.com/GPX/1/1 http://www.topografix.com/GPX/1/1/gpx.xsd http://www.garmin.com/xmlschemas/WaypointExtension/v1 http://www8.garmin.com/xmlschemas/WaypointExtensionv1.xsd http://www.garmin.com/xmlschemas/TrackPointExtension/v1 http://www.garmin.com/xmlschemas/TrackPointExtensionv1.xsd http://www.garmin.com/xmlschemas/GpxExtensions/v3 http://www8.garmin.com/xmlschemas/GpxExtensionsv3.xsd http://www.garmin.com/xmlschemas/ActivityExtension/v1 http://www8.garmin.com/xmlschemas/ActivityExtensionv1.xsd http://www.garmin.com/xmlschemas/AdventuresExtensions/v1 http://www8.garmin.com/xmlschemas/AdventuresExtensionv1.xsd http://www.garmin.com/xmlschemas/PressureExtension/v1 http://www.garmin.com/xmlschemas/PressureExtensionv1.xsd http://www.garmin.com/xmlschemas/TripExtensions/v1 http://www.garmin.com/xmlschemas/TripExtensionsv1.xsd http://www.garmin.com/xmlschemas/TripMetaDataExtensions/v1 http://www.garmin.com/xmlschemas/TripMetaDataExtensionsv1.xsd http://www.garmin.com/xmlschemas/ViaPointTransportationModeExtensions/v1 http://www.garmin.com/xmlschemas/ViaPointTransportationModeExtensionsv1.xsd http://www.garmin.com/xmlschemas/CreationTimeExtension/v1 http://www.garmin.com/xmlschemas/CreationTimeExtensionsv1.xsd http://www.garmin.com/xmlschemas/AccelerationExtension/v1 http://www.garmin.com/xmlschemas/AccelerationExtensionv1.xsd http://www.garmin.com/xmlschemas/PowerExtension/v1 http://www.garmin.com/xmlschemas/PowerExtensionv1.xsd http://www.garmin.com/xmlschemas/VideoExtension/v1 http://www.garmin.com/xmlschemas/VideoExtensionv1.xsd" xmlns="http://www.topografix.com/GPX/1/1" xmlns:xsi="http://www.w3.org/2001/XMLSchema-instance" xmlns:wptx1="http://www.garmin.com/xmlschemas/WaypointExtension/v1" xmlns:gpxtrx="http://www.garmin.com/xmlschemas/GpxExtensions/v3" xmlns:gpxtpx="http://www.garmin.com/xmlschemas/TrackPointExtension/v1" xmlns:gpxx="http://www.garmin.com/xmlschemas/GpxExtensions/v3" xmlns:trp="http://www.garmin.com/xmlschemas/TripExtensions/v1" xmlns:adv="http://www.garmin.com/xmlschemas/AdventuresExtensions/v1" xmlns:prs="http://www.garmin.com/xmlschemas/PressureExtension/v1" xmlns:tmd="http://www.garmin.com/xmlschemas/TripMetaDataExtensions/v1" xmlns:vptm="http://www.garmin.com/xmlschemas/ViaPointTransportationModeExtensions/v1" xmlns:ctx="http://www.garmin.com/xmlschemas/CreationTimeExtension/v1" xmlns:gpxacc="http://www.garmin.com/xmlschemas/AccelerationExtension/v1" xmlns:gpxpx="http://www.garmin.com/xmlschemas/PowerExtension/v1" xmlns:vidx1="http://www.garmin.com/xmlschemas/VideoExtension/v1">

  <metadata>
    <link href="http://www.garmin.com">
      <text>Garmin International</text>
    </link>
    <time>2023-07-31T04:57:39Z</time>
    <bounds maxlat="45.887071648612618" maxlon="8.001942867413163" minlat="45.877421228215098" minlon="7.958772964775562" />
  </metadata>

  <trk>
    <name>corno mud2023-07-30</name>
    <extensions>
      <gpxx:TrackExtension>
        <gpxx:DisplayColor>Yellow</gpxx:DisplayColor>
      </gpxx:TrackExtension>
    </extensions>
    <trkseg>
      <trkpt lat="45.884773666039109" lon="8.001628797501326">
        <ele>1388.2</ele>
        <time>2023-07-30T05:59:36Z</time>
      </trkpt>
      <trkpt lat="45.884819431230426" lon="8.001570543274283">
        <ele>1386.27</ele>
        <time>2023-07-30T05:59:51Z</time>
      </trkpt>
      <trkpt lat="45.884865615516901" lon="8.001515055075288">
        <ele>1387.03</ele>
        <time>2023-07-30T06:00:03Z</time>
      </trkpt>
      <trkpt lat="45.884900232776999" lon="8.001483706757426">
        <ele>1387.3399999999999</ele>
        <time>2023-07-30T06:00:20Z</time>
      </trkpt>
      <trkpt lat="45.884885229170322" lon="8.001552354544401">
        <ele>1387.54</ele>
        <time>2023-07-30T06:01:00Z</time>
      </trkpt>
      <trkpt lat="45.884824711829424" lon="8.001589402556419">
        <ele>1386.4400000000001</ele>
        <time>2023-07-30T06:01:14Z</time>
      </trkpt>
      <trkpt lat="45.884814318269491" lon="8.001606585457921">
        <ele>1386.4200000000001</ele>
        <time>2023-07-30T06:01:38Z</time>
      </trkpt>
      <trkpt lat="45.884821442887187" lon="8.001657547429204">
        <ele>1386.27</ele>
        <time>2023-07-30T06:01:54Z</time>
      </trkpt>
      <trkpt lat="45.884805014356971" lon="8.001697361469269">
        <ele>1386.3800000000001</ele>
        <time>2023-07-30T06:02:11Z</time>
      </trkpt>
      <trkpt lat="45.884809205308557" lon="8.00169937312603">
        <ele>1387.04</ele>
        <time>2023-07-30T06:02:29Z</time>
      </trkpt>
      <trkpt lat="45.884799314662814" lon="8.001692835241556">
        <ele>1386.5999999999999</ele>
        <time>2023-07-30T06:02:53Z</time>
      </trkpt>
      <trkpt lat="45.884796297177672" lon="8.001689650118351">
        <ele>1387.9200000000001</ele>
        <time>2023-07-30T06:03:23Z</time>
      </trkpt>
      <trkpt lat="45.884778779000044" lon="8.00174186937511">
        <ele>1388.45</ele>
        <time>2023-07-30T06:03:39Z</time>
      </trkpt>
      <trkpt lat="45.884752376005054" lon="8.001781431958079">
        <ele>1387.9100000000001</ele>
        <time>2023-07-30T06:03:44Z</time>
      </trkpt>
      <trkpt lat="45.884687919169664" lon="8.001782605424523">
        <ele>1386.8499999999999</ele>
        <time>2023-07-30T06:03:52Z</time>
      </trkpt>
      <trkpt lat="45.884675681591034" lon="8.001682609319687">
        <ele>1385.8900000000001</ele>
        <time>2023-07-30T06:03:59Z</time>
      </trkpt>
      <trkpt lat="45.884745670482516" lon="8.001480773091316">
        <ele>1385.47</ele>
        <time>2023-07-30T06:04:09Z</time>
      </trkpt>
      <trkpt lat="45.884811300784349" lon="8.00121758133173">
        <ele>1388.1199999999999</ele>
        <time>2023-07-30T06:04:24Z</time>
      </trkpt>
      <trkpt lat="45.884826639667153" lon="8.001185897737742">
        <ele>1388.5</ele>
        <time>2023-07-30T06:04:26Z</time>
      </trkpt>
      <trkpt lat="45.884862681850791" lon="8.000931926071644">
        <ele>1390.47</ele>
        <time>2023-07-30T06:04:42Z</time>
      </trkpt>
      <trkpt lat="45.884950356557965" lon="8.000705111771822">
        <ele>1392.48</ele>
        <time>2023-07-30T06:04:58Z</time>
      </trkpt>
      <trkpt lat="45.885073570534587" lon="8.000536970794201">
        <ele>1394.45</ele>
        <time>2023-07-30T06:05:13Z</time>
      </trkpt>
      <trkpt lat="45.885168872773647" lon="8.00044116564095">
        <ele>1396.1400000000001</ele>
        <time>2023-07-30T06:05:29Z</time>
      </trkpt>
      <trkpt lat="45.885247997939587" lon="8.000350808724761">
        <ele>1398.03</ele>
        <time>2023-07-30T06:05:49Z</time>
      </trkpt>
      <trkpt lat="45.885296361520886" lon="8.000277634710074">
        <ele>1398.9100000000001</ele>
        <time>2023-07-30T06:06:03Z</time>
      </trkpt>
      <trkpt lat="45.885313292965293" lon="8.000226253643632">
        <ele>1399.5999999999999</ele>
        <time>2023-07-30T06:06:26Z</time>
      </trkpt>
      <trkpt lat="45.885311365127563" lon="8.000193731859326">
        <ele>1398.9400000000001</ele>
        <time>2023-07-30T06:06:43Z</time>
      </trkpt>
      <trkpt lat="45.885308096185327" lon="8.000200772657991">
        <ele>1398.4100000000001</ele>
        <time>2023-07-30T06:07:07Z</time>
      </trkpt>
      <trkpt lat="45.885342629626393" lon="8.000152744352818">
        <ele>1398.5599999999999</ele>
        <time>2023-07-30T06:07:15Z</time>
      </trkpt>
      <trkpt lat="45.885399794206023" lon="8.000019555911422">
        <ele>1399.5599999999999</ele>
        <time>2023-07-30T06:07:30Z</time>
      </trkpt>
      <trkpt lat="45.885423347353935" lon="7.999966749921441">
        <ele>1399.8599999999999</ele>
        <time>2023-07-30T06:07:42Z</time>
      </trkpt>
      <trkpt lat="45.885421838611364" lon="7.999946884810925">
        <ele>1399.74</ele>
        <time>2023-07-30T06:08:03Z</time>
      </trkpt>
      <trkpt lat="45.885461065918207" lon="7.99982693977654">
        <ele>1400.73</ele>
        <time>2023-07-30T06:08:25Z</time>
      </trkpt>
      <trkpt lat="45.885495766997337" lon="7.999713867902756">
        <ele>1402.6500000000001</ele>
        <time>2023-07-30T06:08:39Z</time>
      </trkpt>
      <trkpt lat="45.885572461411357" lon="7.999644884839654">
        <ele>1404.27</ele>
        <time>2023-07-30T06:08:58Z</time>
      </trkpt>
      <trkpt lat="45.885622585192323" lon="7.999632311984897">
        <ele>1404.21</ele>
        <time>2023-07-30T06:09:02Z</time>
      </trkpt>
      <trkpt lat="45.885743116959929" lon="7.999557964503765">
        <ele>1403.0699999999999</ele>
        <time>2023-07-30T06:09:18Z</time>
      </trkpt>
      <trkpt lat="45.885769100859761" lon="7.999591073021293">
        <ele>1405.8800000000001</ele>
        <time>2023-07-30T06:09:32Z</time>
      </trkpt>
      <trkpt lat="45.885811932384968" lon="7.999476408585906">
        <ele>1409.98</ele>
        <time>2023-07-30T06:09:47Z</time>
      </trkpt>
      <trkpt lat="45.885758539661765" lon="7.99938814714551">
        <ele>1411.1800000000001</ele>
        <time>2023-07-30T06:10:02Z</time>
      </trkpt>
      <trkpt lat="45.885755438357592" lon="7.999378256499767">
        <ele>1412.02</ele>
        <time>2023-07-30T06:10:18Z</time>
      </trkpt>
      <trkpt lat="45.885733310133219" lon="7.999382363632321">
        <ele>1413.3299999999999</ele>
        <time>2023-07-30T06:10:45Z</time>
      </trkpt>
      <trkpt lat="45.88574412278831" lon="7.999424859881401">
        <ele>1415.1800000000001</ele>
        <time>2023-07-30T06:11:13Z</time>
      </trkpt>
      <trkpt lat="45.885737081989646" lon="7.999570453539491">
        <ele>1416.9100000000001</ele>
        <time>2023-07-30T06:11:28Z</time>
      </trkpt>
      <trkpt lat="45.885743536055088" lon="7.999569112434983">
        <ele>1419.25</ele>
        <time>2023-07-30T06:11:51Z</time>
      </trkpt>
      <trkpt lat="45.885700285434723" lon="7.999444138258696">
        <ele>1418.1800000000001</ele>
        <time>2023-07-30T06:15:08Z</time>
      </trkpt>
      <trkpt lat="45.885746721178293" lon="7.999366018921137">
        <ele>1419.3199999999999</ele>
        <time>2023-07-30T06:15:24Z</time>
      </trkpt>
      <trkpt lat="45.885752085596323" lon="7.999275326728821">
        <ele>1420.8499999999999</ele>
        <time>2023-07-30T06:15:41Z</time>
      </trkpt>
      <trkpt lat="45.885774800553918" lon="7.999263592064381">
        <ele>1421.1600000000001</ele>
        <time>2023-07-30T06:15:59Z</time>
      </trkpt>
      <trkpt lat="45.88587898761034" lon="7.999369790777564">
        <ele>1421.1500000000001</ele>
        <time>2023-07-30T06:16:14Z</time>
      </trkpt>
      <trkpt lat="45.886022988706827" lon="7.999399127438664">
        <ele>1420.9100000000001</ele>
        <time>2023-07-30T06:16:30Z</time>
      </trkpt>
      <trkpt lat="45.886062802746892" lon="7.99921321682632">
        <ele>1421.4100000000001</ele>
        <time>2023-07-30T06:16:46Z</time>
      </trkpt>
      <trkpt lat="45.88609448634088" lon="7.998977014794946">
        <ele>1423.6600000000001</ele>
        <time>2023-07-30T06:17:08Z</time>
      </trkpt>
      <trkpt lat="45.886069592088461" lon="7.998840557411313">
        <ele>1425.6500000000001</ele>
        <time>2023-07-30T06:17:23Z</time>
      </trkpt>
      <trkpt lat="45.885982755571604" lon="7.998792948201299">
        <ele>1426.9100000000001</ele>
        <time>2023-07-30T06:17:37Z</time>
      </trkpt>
      <trkpt lat="45.886005638167262" lon="7.998671075329185">
        <ele>1429.0699999999999</ele>
        <time>2023-07-30T06:17:52Z</time>
      </trkpt>
      <trkpt lat="45.886026676744223" lon="7.998644672334194">
        <ele>1429.3900000000001</ele>
        <time>2023-07-30T06:17:55Z</time>
      </trkpt>
      <trkpt lat="45.886064479127526" lon="7.998474519699812">
        <ele>1430.3099999999999</ele>
        <time>2023-07-30T06:18:08Z</time>
      </trkpt>
      <trkpt lat="45.886084847152233" lon="7.998447446152568">
        <ele>1430.26</ele>
        <time>2023-07-30T06:18:11Z</time>
      </trkpt>
      <trkpt lat="45.886098006740212" lon="7.998428586870432">
        <ele>1430.1400000000001</ele>
        <time>2023-07-30T06:18:13Z</time>
      </trkpt>
      <trkpt lat="45.886127511039376" lon="7.998361699283123">
        <ele>1429.9000000000001</ele>
        <time>2023-07-30T06:18:19Z</time>
      </trkpt>
      <trkpt lat="45.886234380304813" lon="7.998199090361595">
        <ele>1425.9300000000001</ele>
        <time>2023-07-30T06:18:33Z</time>
      </trkpt>
      <trkpt lat="45.886259693652391" lon="7.998168496415019">
        <ele>1426.55</ele>
        <time>2023-07-30T06:18:36Z</time>
      </trkpt>
      <trkpt lat="45.886263465508819" lon="7.998075541108847">
        <ele>1427.0699999999999</ele>
        <time>2023-07-30T06:18:43Z</time>
      </trkpt>
      <trkpt lat="45.886242594569921" lon="7.997957691550255">
        <ele>1427.78</ele>
        <time>2023-07-30T06:18:51Z</time>
      </trkpt>
      <trkpt lat="45.886203870177269" lon="7.997821653261781">
        <ele>1429.8699999999999</ele>
        <time>2023-07-30T06:19:06Z</time>
      </trkpt>
      <trkpt lat="45.886264303699136" lon="7.997706066817045">
        <ele>1431.26</ele>
        <time>2023-07-30T06:19:19Z</time>
      </trkpt>
      <trkpt lat="45.886347955092788" lon="7.997597185894847">
        <ele>1432.1400000000001</ele>
        <time>2023-07-30T06:19:34Z</time>
      </trkpt>
      <trkpt lat="45.886481394991279" lon="7.99755871295929">
        <ele>1430.8800000000001</ele>
        <time>2023-07-30T06:19:51Z</time>
      </trkpt>
      <trkpt lat="45.886612571775913" lon="7.997574973851442">
        <ele>1431.6300000000001</ele>
        <time>2023-07-30T06:20:09Z</time>
      </trkpt>
      <trkpt lat="45.886776521801949" lon="7.997525855898857">
        <ele>1433.6500000000001</ele>
        <time>2023-07-30T06:20:28Z</time>
      </trkpt>
      <trkpt lat="45.886866794899106" lon="7.99739845097065">
        <ele>1433.8099999999999</ele>
        <time>2023-07-30T06:20:45Z</time>
      </trkpt>
      <trkpt lat="45.886940388008952" lon="7.997270878404379">
        <ele>1434.52</ele>
        <time>2023-07-30T06:21:06Z</time>
      </trkpt>
      <trkpt lat="45.886987410485744" lon="7.99712679348886">
        <ele>1435.71</ele>
        <time>2023-07-30T06:21:20Z</time>
      </trkpt>
      <trkpt lat="45.887038623914123" lon="7.996973153203726">
        <ele>1437.6099999999999</ele>
        <time>2023-07-30T06:21:36Z</time>
      </trkpt>
      <trkpt lat="45.887071648612618" lon="7.996825380250812">
        <ele>1438.3800000000001</ele>
        <time>2023-07-30T06:21:53Z</time>
      </trkpt>
      <trkpt lat="45.887066870927811" lon="7.9968018271029">
        <ele>1440.1900000000001</ele>
        <time>2023-07-30T06:22:14Z</time>
      </trkpt>
      <trkpt lat="45.887051364406943" lon="7.996586663648486">
        <ele>1443.0799999999999</ele>
        <time>2023-07-30T06:22:34Z</time>
      </trkpt>
      <trkpt lat="45.887035271152854" lon="7.996468394994736">
        <ele>1445.96</ele>
        <time>2023-07-30T06:22:48Z</time>
      </trkpt>
      <trkpt lat="45.886963438242674" lon="7.99633570946753">
        <ele>1450.3399999999999</ele>
        <time>2023-07-30T06:23:08Z</time>
      </trkpt>
      <trkpt lat="45.886851456016302" lon="7.996185421943665">
        <ele>1454.47</ele>
        <time>2023-07-30T06:23:29Z</time>
      </trkpt>
      <trkpt lat="45.886757494881749" lon="7.996044438332319">
        <ele>1458.8800000000001</ele>
        <time>2023-07-30T06:23:48Z</time>
      </trkpt>
      <trkpt lat="45.886631682515144" lon="7.995930360630155">
        <ele>1463.29</ele>
        <time>2023-07-30T06:24:09Z</time>
      </trkpt>
      <trkpt lat="45.886484580114484" lon="7.995857521891594">
        <ele>1467.22</ele>
        <time>2023-07-30T06:24:30Z</time>
      </trkpt>
      <trkpt lat="45.886359103024006" lon="7.995744952932">
        <ele>1471.2</ele>
        <time>2023-07-30T06:24:51Z</time>
      </trkpt>
      <trkpt lat="45.886267740279436" lon="7.995608998462558">
        <ele>1475.49</ele>
        <time>2023-07-30T06:25:10Z</time>
      </trkpt>
      <trkpt lat="45.886126589030027" lon="7.995543787255883">
        <ele>1478.74</ele>
        <time>2023-07-30T06:25:29Z</time>
      </trkpt>
      <trkpt lat="45.885980157181621" lon="7.995440270751715">
        <ele>1482.4000000000001</ele>
        <time>2023-07-30T06:25:50Z</time>
      </trkpt>
      <trkpt lat="45.885875634849072" lon="7.995392577722669">
        <ele>1484.9000000000001</ele>
        <time>2023-07-30T06:26:02Z</time>
      </trkpt>
      <trkpt lat="45.885859793052077" lon="7.995342202484608">
        <ele>1495.51</ele>
        <time>2023-07-30T06:28:16Z</time>
      </trkpt>
      <trkpt lat="45.885822158306837" lon="7.995322085916996">
        <ele>1493.96</ele>
        <time>2023-07-30T06:29:44Z</time>
      </trkpt>
      <trkpt lat="45.885725431144238" lon="7.995221838355064">
        <ele>1492.8099999999999</ele>
        <time>2023-07-30T06:30:03Z</time>
      </trkpt>
      <trkpt lat="45.885618142783642" lon="7.995111532509327">
        <ele>1492.55</ele>
        <time>2023-07-30T06:30:23Z</time>
      </trkpt>
      <trkpt lat="45.885503478348255" lon="7.995045483112335">
        <ele>1493.0899999999999</ele>
        <time>2023-07-30T06:30:38Z</time>
      </trkpt>
      <trkpt lat="45.885371714830399" lon="7.994992090389133">
        <ele>1493.78</ele>
        <time>2023-07-30T06:30:55Z</time>
      </trkpt>
      <trkpt lat="45.885255038738251" lon="7.995013548061252">
        <ele>1492.8599999999999</ele>
        <time>2023-07-30T06:31:14Z</time>
      </trkpt>
      <trkpt lat="45.885132495313883" lon="7.995003992691636">
        <ele>1491.53</ele>
        <time>2023-07-30T06:31:32Z</time>
      </trkpt>
      <trkpt lat="45.88499553501606" lon="7.994948839768767">
        <ele>1491.2</ele>
        <time>2023-07-30T06:31:52Z</time>
      </trkpt>
      <trkpt lat="45.884868633002043" lon="7.994894525036216">
        <ele>1494.2</ele>
        <time>2023-07-30T06:32:09Z</time>
      </trkpt>
      <trkpt lat="45.884752292186022" lon="7.994808023795486">
        <ele>1498.24</ele>
        <time>2023-07-30T06:32:30Z</time>
      </trkpt>
      <trkpt lat="45.884657744318247" lon="7.994645498692989">
        <ele>1502.4000000000001</ele>
        <time>2023-07-30T06:32:51Z</time>
      </trkpt>
      <trkpt lat="45.884593036025763" lon="7.994543574750423">
        <ele>1504.3499999999999</ele>
        <time>2023-07-30T06:33:10Z</time>
      </trkpt>
      <trkpt lat="45.884523801505566" lon="7.994442321360111">
        <ele>1504.8199999999999</ele>
        <time>2023-07-30T06:33:25Z</time>
      </trkpt>
      <trkpt lat="45.884427409619093" lon="7.994369231164455">
        <ele>1506.6700000000001</ele>
        <time>2023-07-30T06:33:43Z</time>
      </trkpt>
      <trkpt lat="45.884314086288214" lon="7.994335284456611">
        <ele>1507.96</ele>
        <time>2023-07-30T06:34:03Z</time>
      </trkpt>
      <trkpt lat="45.884409807622433" lon="7.994254315271974">
        <ele>1509.4100000000001</ele>
        <time>2023-07-30T06:34:23Z</time>
      </trkpt>
      <trkpt lat="45.884421793743968" lon="7.994187260046601">
        <ele>1511.5699999999999</ele>
        <time>2023-07-30T06:34:43Z</time>
      </trkpt>
      <trkpt lat="45.884466469287872" lon="7.994103860110045">
        <ele>1512.8699999999999</ele>
        <time>2023-07-30T06:35:01Z</time>
      </trkpt>
      <trkpt lat="45.884389271959662" lon="7.994016604498029">
        <ele>1516.3099999999999</ele>
        <time>2023-07-30T06:35:22Z</time>
      </trkpt>
      <trkpt lat="45.884473258629441" lon="7.994035631418228">
        <ele>1517.75</ele>
        <time>2023-07-30T06:35:40Z</time>
      </trkpt>
      <trkpt lat="45.88443168438971" lon="7.99396924674511">
        <ele>1520.3099999999999</ele>
        <time>2023-07-30T06:35:59Z</time>
      </trkpt>
      <trkpt lat="45.884285503998399" lon="7.993958098813891">
        <ele>1523.0599999999999</ele>
        <time>2023-07-30T06:36:20Z</time>
      </trkpt>
      <trkpt lat="45.884175952523947" lon="7.993904706090689">
        <ele>1526.5899999999999</ele>
        <time>2023-07-30T06:36:38Z</time>
      </trkpt>
      <trkpt lat="45.884153405204415" lon="7.993846284225583">
        <ele>1530.52</ele>
        <time>2023-07-30T06:36:55Z</time>
      </trkpt>
      <trkpt lat="45.884229764342308" lon="7.993807140737772">
        <ele>1533.6700000000001</ele>
        <time>2023-07-30T06:37:14Z</time>
      </trkpt>
      <trkpt lat="45.884149968624115" lon="7.993767913430929">
        <ele>1536.76</ele>
        <time>2023-07-30T06:37:32Z</time>
      </trkpt>
      <trkpt lat="45.884123062714934" lon="7.993723656982184">
        <ele>1540.4200000000001</ele>
        <time>2023-07-30T06:37:48Z</time>
      </trkpt>
      <trkpt lat="45.88419808074832" lon="7.993672443553805">
        <ele>1543.29</ele>
        <time>2023-07-30T06:38:07Z</time>
      </trkpt>
      <trkpt lat="45.884145526215434" lon="7.993615195155144">
        <ele>1546.21</ele>
        <time>2023-07-30T06:38:22Z</time>
      </trkpt>
      <trkpt lat="45.884086769074202" lon="7.993565825745463">
        <ele>1550.77</ele>
        <time>2023-07-30T06:38:39Z</time>
      </trkpt>
      <trkpt lat="45.884146951138973" lon="7.993554593995214">
        <ele>1553.53</ele>
        <time>2023-07-30T06:38:57Z</time>
      </trkpt>
      <trkpt lat="45.884132701903582" lon="7.99345375970006">
        <ele>1557.22</ele>
        <time>2023-07-30T06:39:15Z</time>
      </trkpt>
      <trkpt lat="45.884024240076542" lon="7.993392823264003">
        <ele>1561.96</ele>
        <time>2023-07-30T06:39:36Z</time>
      </trkpt>
      <trkpt lat="45.883918879553676" lon="7.993294922634959">
        <ele>1566.1900000000001</ele>
        <time>2023-07-30T06:39:54Z</time>
      </trkpt>
      <trkpt lat="45.88381796143949" lon="7.993272040039301">
        <ele>1570.27</ele>
        <time>2023-07-30T06:40:10Z</time>
      </trkpt>
      <trkpt lat="45.883724335581064" lon="7.993283104151487">
        <ele>1574.55</ele>
        <time>2023-07-30T06:40:25Z</time>
      </trkpt>
      <trkpt lat="45.883629033342004" lon="7.99335359595716">
        <ele>1577.1099999999999</ele>
        <time>2023-07-30T06:40:40Z</time>
      </trkpt>
      <trkpt lat="45.883551752194762" lon="7.993350746110082">
        <ele>1578</ele>
        <time>2023-07-30T06:40:51Z</time>
      </trkpt>
      <trkpt lat="45.883484864607453" lon="7.993320822715759">
        <ele>1579.8499999999999</ele>
        <time>2023-07-30T06:41:05Z</time>
      </trkpt>
      <trkpt lat="45.883476650342345" lon="7.993251336738467">
        <ele>1581.53</ele>
        <time>2023-07-30T06:41:18Z</time>
      </trkpt>
      <trkpt lat="45.883472375571728" lon="7.9931874666363">
        <ele>1583.71</ele>
        <time>2023-07-30T06:41:35Z</time>
      </trkpt>
      <trkpt lat="45.883412612602115" lon="7.993206158280373">
        <ele>1585.6700000000001</ele>
        <time>2023-07-30T06:41:49Z</time>
      </trkpt>
      <trkpt lat="45.883445553481579" lon="7.993133654817939">
        <ele>1587.3199999999999</ele>
        <time>2023-07-30T06:42:05Z</time>
      </trkpt>
      <trkpt lat="45.883499616757035" lon="7.992995856329799">
        <ele>1589.3599999999999</ele>
        <time>2023-07-30T06:42:24Z</time>
      </trkpt>
      <trkpt lat="45.883490899577737" lon="7.9929060023278">
        <ele>1589.8699999999999</ele>
        <time>2023-07-30T06:42:39Z</time>
      </trkpt>
      <trkpt lat="45.883415713906288" lon="7.992937685921788">
        <ele>1591.0999999999999</ele>
        <time>2023-07-30T06:42:56Z</time>
      </trkpt>
      <trkpt lat="45.883375061675906" lon="7.99286937341094">
        <ele>1591.48</ele>
        <time>2023-07-30T06:43:13Z</time>
      </trkpt>
      <trkpt lat="45.883437590673566" lon="7.99275211058557">
        <ele>1592.8199999999999</ele>
        <time>2023-07-30T06:43:31Z</time>
      </trkpt>
      <trkpt lat="45.883410349488258" lon="7.992764348164201">
        <ele>1594.0999999999999</ele>
        <time>2023-07-30T06:43:47Z</time>
      </trkpt>
      <trkpt lat="45.883330386132002" lon="7.992760241031647">
        <ele>1596.4200000000001</ele>
        <time>2023-07-30T06:44:05Z</time>
      </trkpt>
      <trkpt lat="45.883355448022485" lon="7.992657478898764">
        <ele>1599.6500000000001</ele>
        <time>2023-07-30T06:44:21Z</time>
      </trkpt>
      <trkpt lat="45.883334828540683" lon="7.992645660415292">
        <ele>1603.0799999999999</ele>
        <time>2023-07-30T06:44:37Z</time>
      </trkpt>
      <trkpt lat="45.883298786357045" lon="7.992691425606608">
        <ele>1604.46</ele>
        <time>2023-07-30T06:44:46Z</time>
      </trkpt>
      <trkpt lat="45.883252937346697" lon="7.992692599073052">
        <ele>1604.8299999999999</ele>
        <time>2023-07-30T06:44:51Z</time>
      </trkpt>
      <trkpt lat="45.883151348680258" lon="7.992705926299095">
        <ele>1602.1500000000001</ele>
        <time>2023-07-30T06:45:09Z</time>
      </trkpt>
      <trkpt lat="45.883222594857216" lon="7.992572737857699">
        <ele>1601.9100000000001</ele>
        <time>2023-07-30T06:45:28Z</time>
      </trkpt>
      <trkpt lat="45.883236173540354" lon="7.992476765066385">
        <ele>1602.9100000000001</ele>
        <time>2023-07-30T06:45:43Z</time>
      </trkpt>
      <trkpt lat="45.883207339793444" lon="7.992527056485415">
        <ele>1604.75</ele>
        <time>2023-07-30T06:46:00Z</time>
      </trkpt>
      <trkpt lat="45.883222259581089" lon="7.992496127262712">
        <ele>1605.52</ele>
        <time>2023-07-30T06:46:05Z</time>
      </trkpt>
      <trkpt lat="45.88324673473835" lon="7.992410296574235">
        <ele>1608.1700000000001</ele>
        <time>2023-07-30T06:46:18Z</time>
      </trkpt>
      <trkpt lat="45.883213374763727" lon="7.992441561073065">
        <ele>1610.02</ele>
        <time>2023-07-30T06:46:27Z</time>
      </trkpt>
      <trkpt lat="45.883193258196115" lon="7.992448350414634">
        <ele>1610.5</ele>
        <time>2023-07-30T06:46:29Z</time>
      </trkpt>
      <trkpt lat="45.88320080190897" lon="7.992420187219977">
        <ele>1613.72</ele>
        <time>2023-07-30T06:46:41Z</time>
      </trkpt>
      <trkpt lat="45.88315486907959" lon="7.992334943264723">
        <ele>1617.48</ele>
        <time>2023-07-30T06:46:59Z</time>
      </trkpt>
      <trkpt lat="45.88308890350163" lon="7.992353215813637">
        <ele>1620.4400000000001</ele>
        <time>2023-07-30T06:47:15Z</time>
      </trkpt>
      <trkpt lat="45.883117066696286" lon="7.992259841412306">
        <ele>1621.95</ele>
        <time>2023-07-30T06:47:28Z</time>
      </trkpt>
      <trkpt lat="45.883161490783095" lon="7.99226202070713">
        <ele>1623.5699999999999</ele>
        <time>2023-07-30T06:47:44Z</time>
      </trkpt>
      <trkpt lat="45.883145984262228" lon="7.992209130898118">
        <ele>1624.01</ele>
        <time>2023-07-30T06:47:48Z</time>
      </trkpt>
      <trkpt lat="45.883140284568071" lon="7.992205778136849">
        <ele>1623.6700000000001</ele>
        <time>2023-07-30T06:47:49Z</time>
      </trkpt>
      <trkpt lat="45.883114971220493" lon="7.992222374305129">
        <ele>1622.45</ele>
        <time>2023-07-30T06:47:57Z</time>
      </trkpt>
      <trkpt lat="45.883051017299294" lon="7.992181470617652">
        <ele>1620.8099999999999</ele>
        <time>2023-07-30T06:48:10Z</time>
      </trkpt>
      <trkpt lat="45.882976250723004" lon="7.992096142843366">
        <ele>1620.77</ele>
        <time>2023-07-30T06:48:29Z</time>
      </trkpt>
      <trkpt lat="45.883020171895623" lon="7.991979718208313">
        <ele>1620.1400000000001</ele>
        <time>2023-07-30T06:48:50Z</time>
      </trkpt>
      <trkpt lat="45.88315537199378" lon="7.991921966895461">
        <ele>1620.0699999999999</ele>
        <time>2023-07-30T06:49:09Z</time>
      </trkpt>
      <trkpt lat="45.883246064186096" lon="7.991831777617335">
        <ele>1622.1800000000001</ele>
        <time>2023-07-30T06:49:29Z</time>
      </trkpt>
      <trkpt lat="45.883204489946365" lon="7.991824150085449">
        <ele>1625.3800000000001</ele>
        <time>2023-07-30T06:49:43Z</time>
      </trkpt>
      <trkpt lat="45.883111283183098" lon="7.991797579452395">
        <ele>1628.8499999999999</ele>
        <time>2023-07-30T06:50:00Z</time>
      </trkpt>
      <trkpt lat="45.882988823577762" lon="7.991781234741211">
        <ele>1632.79</ele>
        <time>2023-07-30T06:50:19Z</time>
      </trkpt>
      <trkpt lat="45.88296870701015" lon="7.991772517561913">
        <ele>1633.49</ele>
        <time>2023-07-30T06:50:35Z</time>
      </trkpt>
      <trkpt lat="45.883070630952716" lon="7.991678304970264">
        <ele>1634.97</ele>
        <time>2023-07-30T06:50:55Z</time>
      </trkpt>
      <trkpt lat="45.883161155506968" lon="7.991540674120188">
        <ele>1638.8399999999999</ele>
        <time>2023-07-30T06:51:13Z</time>
      </trkpt>
      <trkpt lat="45.883116060867906" lon="7.991563389077783">
        <ele>1642.6900000000001</ele>
        <time>2023-07-30T06:51:30Z</time>
      </trkpt>
      <trkpt lat="45.883007682859898" lon="7.991557940840721">
        <ele>1648.4000000000001</ele>
        <time>2023-07-30T06:51:50Z</time>
      </trkpt>
      <trkpt lat="45.882952529937029" lon="7.991453167051077">
        <ele>1653.6500000000001</ele>
        <time>2023-07-30T06:52:07Z</time>
      </trkpt>
      <trkpt lat="45.882857646793127" lon="7.991385189816356">
        <ele>1657.45</ele>
        <time>2023-07-30T06:52:24Z</time>
      </trkpt>
      <trkpt lat="45.882786232978106" lon="7.991356858983636">
        <ele>1661.25</ele>
        <time>2023-07-30T06:52:38Z</time>
      </trkpt>
      <trkpt lat="45.882656145840883" lon="7.991361888125539">
        <ele>1665.5699999999999</ele>
        <time>2023-07-30T06:52:57Z</time>
      </trkpt>
      <trkpt lat="45.882546762004495" lon="7.991354428231716">
        <ele>1666.6099999999999</ele>
        <time>2023-07-30T06:53:13Z</time>
      </trkpt>
      <trkpt lat="45.882459003478289" lon="7.991313943639398">
        <ele>1668.6800000000001</ele>
        <time>2023-07-30T06:53:30Z</time>
      </trkpt>
      <trkpt lat="45.882383650168777" lon="7.991305394098163">
        <ele>1671.8</ele>
        <time>2023-07-30T06:53:46Z</time>
      </trkpt>
      <trkpt lat="45.882265800610185" lon="7.991301706060767">
        <ele>1677.3800000000001</ele>
        <time>2023-07-30T06:54:06Z</time>
      </trkpt>
      <trkpt lat="45.882160272449255" lon="7.991279326379299">
        <ele>1683.1900000000001</ele>
        <time>2023-07-30T06:54:22Z</time>
      </trkpt>
      <trkpt lat="45.88204761967063" lon="7.991235321387649">
        <ele>1692.7</ele>
        <time>2023-07-30T06:54:39Z</time>
      </trkpt>
      <trkpt lat="45.881998334079981" lon="7.991218641400337">
        <ele>1701.0699999999999</ele>
        <time>2023-07-30T06:54:55Z</time>
      </trkpt>
      <trkpt lat="45.881992634385824" lon="7.991219647228718">
        <ele>1703.1800000000001</ele>
        <time>2023-07-30T06:55:22Z</time>
      </trkpt>
      <trkpt lat="45.882006213068962" lon="7.991223502904177">
        <ele>1705.6600000000001</ele>
        <time>2023-07-30T06:55:39Z</time>
      </trkpt>
      <trkpt lat="45.881991293281317" lon="7.991253593936563">
        <ele>1708.04</ele>
        <time>2023-07-30T06:56:06Z</time>
      </trkpt>
      <trkpt lat="45.881990874186158" lon="7.991230627521873">
        <ele>1709.74</ele>
        <time>2023-07-30T06:56:27Z</time>
      </trkpt>
      <trkpt lat="45.882037226110697" lon="7.99119827337563">
        <ele>1712.0699999999999</ele>
        <time>2023-07-30T06:56:44Z</time>
      </trkpt>
      <trkpt lat="45.882024317979813" lon="7.99121143296361">
        <ele>1714.1500000000001</ele>
        <time>2023-07-30T06:57:18Z</time>
      </trkpt>
      <trkpt lat="45.882090870290995" lon="7.991137923672795">
        <ele>1714.72</ele>
        <time>2023-07-30T06:57:35Z</time>
      </trkpt>
      <trkpt lat="45.882090786471963" lon="7.991032144054771">
        <ele>1716.5599999999999</ele>
        <time>2023-07-30T06:57:54Z</time>
      </trkpt>
      <trkpt lat="45.88200856000185" lon="7.991011692211032">
        <ele>1720.6500000000001</ele>
        <time>2023-07-30T06:58:11Z</time>
      </trkpt>
      <trkpt lat="45.882014343515038" lon="7.990930639207363">
        <ele>1723.6400000000001</ele>
        <time>2023-07-30T06:58:31Z</time>
      </trkpt>
      <trkpt lat="45.881970506161451" lon="7.990909349173307">
        <ele>1724.8599999999999</ele>
        <time>2023-07-30T06:58:48Z</time>
      </trkpt>
      <trkpt lat="45.882037058472633" lon="7.990809101611376">
        <ele>1725.6800000000001</ele>
        <time>2023-07-30T06:59:10Z</time>
      </trkpt>
      <trkpt lat="45.882121212780476" lon="7.990725534036756">
        <ele>1726.03</ele>
        <time>2023-07-30T06:59:29Z</time>
      </trkpt>
      <trkpt lat="45.882218359038234" lon="7.990632327273488">
        <ele>1725.5899999999999</ele>
        <time>2023-07-30T06:59:49Z</time>
      </trkpt>
      <trkpt lat="45.882295975461602" lon="7.990571977570653">
        <ele>1725.3299999999999</ele>
        <time>2023-07-30T07:00:06Z</time>
      </trkpt>
      <trkpt lat="45.88231198489666" lon="7.990483464673162">
        <ele>1727.0999999999999</ele>
        <time>2023-07-30T07:00:24Z</time>
      </trkpt>
      <trkpt lat="45.882409885525703" lon="7.990458905696869">
        <ele>1727.0999999999999</ele>
        <time>2023-07-30T07:00:43Z</time>
      </trkpt>
      <trkpt lat="45.882497224956751" lon="7.990521099418402">
        <ele>1728.04</ele>
        <time>2023-07-30T07:01:01Z</time>
      </trkpt>
      <trkpt lat="45.882513150572777" lon="7.990440549328923">
        <ele>1729.8499999999999</ele>
        <time>2023-07-30T07:01:17Z</time>
      </trkpt>
      <trkpt lat="45.882448107004166" lon="7.990384306758642">
        <ele>1736.6199999999999</ele>
        <time>2023-07-30T07:01:33Z</time>
      </trkpt>
      <trkpt lat="45.882384153082967" lon="7.990305181592703">
        <ele>1739.8099999999999</ele>
        <time>2023-07-30T07:01:49Z</time>
      </trkpt>
      <trkpt lat="45.882402760908008" lon="7.990279784426093">
        <ele>1745.1400000000001</ele>
        <time>2023-07-30T07:02:07Z</time>
      </trkpt>
      <trkpt lat="45.882454728707671" lon="7.990264780819416">
        <ele>1748.8800000000001</ele>
        <time>2023-07-30T07:02:24Z</time>
      </trkpt>
      <trkpt lat="45.882398318499327" lon="7.990211388096213">
        <ele>1751.5899999999999</ele>
        <time>2023-07-30T07:02:41Z</time>
      </trkpt>
      <trkpt lat="45.882449951022863" lon="7.990158749744296">
        <ele>1753.54</ele>
        <time>2023-07-30T07:02:57Z</time>
      </trkpt>
      <trkpt lat="45.88247031904757" lon="7.990019023418427">
        <ele>1753.47</ele>
        <time>2023-07-30T07:03:15Z</time>
      </trkpt>
      <trkpt lat="45.882467553019524" lon="7.989892121404409">
        <ele>1753.8599999999999</ele>
        <time>2023-07-30T07:03:26Z</time>
      </trkpt>
      <trkpt lat="45.882440060377121" lon="7.989895977079868">
        <ele>1759.21</ele>
        <time>2023-07-30T07:03:39Z</time>
      </trkpt>
      <trkpt lat="45.882383482530713" lon="7.989976024255157">
        <ele>1762.7</ele>
        <time>2023-07-30T07:03:57Z</time>
      </trkpt>
      <trkpt lat="45.882351379841566" lon="7.989905783906579">
        <ele>1764.9300000000001</ele>
        <time>2023-07-30T07:04:14Z</time>
      </trkpt>
      <trkpt lat="45.882356660440564" lon="7.989799417555332">
        <ele>1766.23</ele>
        <time>2023-07-30T07:04:29Z</time>
      </trkpt>
      <trkpt lat="45.882260017096996" lon="7.989834370091558">
        <ele>1770.48</ele>
        <time>2023-07-30T07:04:46Z</time>
      </trkpt>
      <trkpt lat="45.882239481434226" lon="7.989780977368355">
        <ele>1771.7</ele>
        <time>2023-07-30T07:05:00Z</time>
      </trkpt>
      <trkpt lat="45.882273763418198" lon="7.989646531641483">
        <ele>1772.6700000000001</ele>
        <time>2023-07-30T07:05:17Z</time>
      </trkpt>
      <trkpt lat="45.882339561358094" lon="7.989468416199088">
        <ele>1774.23</ele>
        <time>2023-07-30T07:05:38Z</time>
      </trkpt>
      <trkpt lat="45.882376693189144" lon="7.989346291869879">
        <ele>1775.0999999999999</ele>
        <time>2023-07-30T07:05:52Z</time>
      </trkpt>
      <trkpt lat="45.882400246337056" lon="7.989281415939331">
        <ele>1778.3199999999999</ele>
        <time>2023-07-30T07:06:06Z</time>
      </trkpt>
      <trkpt lat="45.882340651005507" lon="7.98932877369225">
        <ele>1782.6400000000001</ele>
        <time>2023-07-30T07:06:19Z</time>
      </trkpt>
      <trkpt lat="45.882262866944075" lon="7.989379232749343">
        <ele>1785.95</ele>
        <time>2023-07-30T07:06:34Z</time>
      </trkpt>
      <trkpt lat="45.882177790626884" lon="7.98939909785986">
        <ele>1789.3299999999999</ele>
        <time>2023-07-30T07:06:49Z</time>
      </trkpt>
      <trkpt lat="45.882103024050593" lon="7.989375963807106">
        <ele>1792.21</ele>
        <time>2023-07-30T07:07:05Z</time>
      </trkpt>
      <trkpt lat="45.882132947444916" lon="7.989305723458529">
        <ele>1796.05</ele>
        <time>2023-07-30T07:07:19Z</time>
      </trkpt>
      <trkpt lat="45.882197320461273" lon="7.9892070684582">
        <ele>1799.02</ele>
        <time>2023-07-30T07:07:37Z</time>
      </trkpt>
      <trkpt lat="45.882266135886312" lon="7.989105395972729">
        <ele>1800.52</ele>
        <time>2023-07-30T07:07:54Z</time>
      </trkpt>
      <trkpt lat="45.882330005988479" lon="7.989039095118642">
        <ele>1801.9300000000001</ele>
        <time>2023-07-30T07:08:09Z</time>
      </trkpt>
      <trkpt lat="45.882260855287313" lon="7.989005986601114">
        <ele>1804.9200000000001</ele>
        <time>2023-07-30T07:08:23Z</time>
      </trkpt>
      <trkpt lat="45.882211234420538" lon="7.988979164510965">
        <ele>1806.6400000000001</ele>
        <time>2023-07-30T07:08:37Z</time>
      </trkpt>
      <trkpt lat="45.882128924131393" lon="7.989002130925655">
        <ele>1808.9300000000001</ele>
        <time>2023-07-30T07:08:52Z</time>
      </trkpt>
      <trkpt lat="45.882038399577141" lon="7.988976901397109">
        <ele>1811.98</ele>
        <time>2023-07-30T07:09:10Z</time>
      </trkpt>
      <trkpt lat="45.881980564445257" lon="7.988879252225161">
        <ele>1814.0799999999999</ele>
        <time>2023-07-30T07:09:24Z</time>
      </trkpt>
      <trkpt lat="45.88190495967865" lon="7.98874975182116">
        <ele>1816.4100000000001</ele>
        <time>2023-07-30T07:09:42Z</time>
      </trkpt>
      <trkpt lat="45.881890039891005" lon="7.98864908516407">
        <ele>1817.29</ele>
        <time>2023-07-30T07:09:56Z</time>
      </trkpt>
      <trkpt lat="45.881962375715375" lon="7.988533079624176">
        <ele>1818.6300000000001</ele>
        <time>2023-07-30T07:10:14Z</time>
      </trkpt>
      <trkpt lat="45.881906468421221" lon="7.988429730758071">
        <ele>1821.21</ele>
        <time>2023-07-30T07:10:30Z</time>
      </trkpt>
      <trkpt lat="45.881869336590171" lon="7.988343397155404">
        <ele>1823.96</ele>
        <time>2023-07-30T07:10:44Z</time>
      </trkpt>
      <trkpt lat="45.881894314661622" lon="7.988284472376108">
        <ele>1826.8099999999999</ele>
        <time>2023-07-30T07:10:59Z</time>
      </trkpt>
      <trkpt lat="45.881993556395173" lon="7.988234851509333">
        <ele>1827.5999999999999</ele>
        <time>2023-07-30T07:11:16Z</time>
      </trkpt>
      <trkpt lat="45.882021971046925" lon="7.988217081874609">
        <ele>1828.04</ele>
        <time>2023-07-30T07:11:32Z</time>
      </trkpt>
      <trkpt lat="45.882028508931398" lon="7.988222697749734">
        <ele>1827.72</ele>
        <time>2023-07-30T07:11:46Z</time>
      </trkpt>
      <trkpt lat="45.882034124806523" lon="7.98821666277945">
        <ele>1827.24</ele>
        <time>2023-07-30T07:12:36Z</time>
      </trkpt>
      <trkpt lat="45.882030352950096" lon="7.988225128501654">
        <ele>1827.5999999999999</ele>
        <time>2023-07-30T07:12:55Z</time>
      </trkpt>
      <trkpt lat="45.882029598578811" lon="7.988206353038549">
        <ele>1827.9100000000001</ele>
        <time>2023-07-30T07:13:18Z</time>
      </trkpt>
      <trkpt lat="45.882028341293335" lon="7.988201072439551">
        <ele>1828.02</ele>
        <time>2023-07-30T07:13:46Z</time>
      </trkpt>
      <trkpt lat="45.882020546123385" lon="7.988185398280621">
        <ele>1827.8199999999999</ele>
        <time>2023-07-30T07:14:02Z</time>
      </trkpt>
      <trkpt lat="45.882030352950096" lon="7.988187409937382">
        <ele>1827.8599999999999</ele>
        <time>2023-07-30T07:14:33Z</time>
      </trkpt>
      <trkpt lat="45.882031777873635" lon="7.988190092146397">
        <ele>1827.3699999999999</ele>
        <time>2023-07-30T07:15:14Z</time>
      </trkpt>
      <trkpt lat="45.88201392441988" lon="7.988166538998485">
        <ele>1827.48</ele>
        <time>2023-07-30T07:15:37Z</time>
      </trkpt>
      <trkpt lat="45.881980815902352" lon="7.988070817664266">
        <ele>1826.6400000000001</ele>
        <time>2023-07-30T07:16:09Z</time>
      </trkpt>
      <trkpt lat="45.881928512826562" lon="7.987956572324038">
        <ele>1826.76</ele>
        <time>2023-07-30T07:16:24Z</time>
      </trkpt>
      <trkpt lat="45.881976876407862" lon="7.987901670858264">
        <ele>1827.3900000000001</ele>
        <time>2023-07-30T07:16:37Z</time>
      </trkpt>
      <trkpt lat="45.882060946896672" lon="7.987855235114694">
        <ele>1830.48</ele>
        <time>2023-07-30T07:16:52Z</time>
      </trkpt>
      <trkpt lat="45.882159434258938" lon="7.987742414698005">
        <ele>1828</ele>
        <time>2023-07-30T07:17:10Z</time>
      </trkpt>
      <trkpt lat="45.882255155593157" lon="7.987636970356107">
        <ele>1826.98</ele>
        <time>2023-07-30T07:17:26Z</time>
      </trkpt>
      <trkpt lat="45.882282564416528" lon="7.987550804391503">
        <ele>1833.7</ele>
        <time>2023-07-30T07:17:42Z</time>
      </trkpt>
      <trkpt lat="45.882253814488649" lon="7.987431110814214">
        <ele>1834.4200000000001</ele>
        <time>2023-07-30T07:17:55Z</time>
      </trkpt>
      <trkpt lat="45.882202433422208" lon="7.987314434722066">
        <ele>1835.5899999999999</ele>
        <time>2023-07-30T07:18:11Z</time>
      </trkpt>
      <trkpt lat="45.882115764543414" lon="7.987228855490685">
        <ele>1837.52</ele>
        <time>2023-07-30T07:18:28Z</time>
      </trkpt>
      <trkpt lat="45.882045440375805" lon="7.98718024045229">
        <ele>1839.73</ele>
        <time>2023-07-30T07:18:41Z</time>
      </trkpt>
      <trkpt lat="45.881993472576141" lon="7.987097930163145">
        <ele>1843.3299999999999</ele>
        <time>2023-07-30T07:18:53Z</time>
      </trkpt>
      <trkpt lat="45.881935637444258" lon="7.987025007605553">
        <ele>1846.53</ele>
        <time>2023-07-30T07:19:06Z</time>
      </trkpt>
      <trkpt lat="45.881996741518378" lon="7.986947475001216">
        <ele>1850.96</ele>
        <time>2023-07-30T07:19:21Z</time>
      </trkpt>
      <trkpt lat="45.88203982450068" lon="7.986879330128431">
        <ele>1854.22</ele>
        <time>2023-07-30T07:19:33Z</time>
      </trkpt>
      <trkpt lat="45.882098581641912" lon="7.98684261739254">
        <ele>1853.5899999999999</ele>
        <time>2023-07-30T07:19:43Z</time>
      </trkpt>
      <trkpt lat="45.882103275507689" lon="7.986782100051642">
        <ele>1854.3599999999999</ele>
        <time>2023-07-30T07:19:56Z</time>
      </trkpt>
      <trkpt lat="45.882048457860947" lon="7.986745722591877">
        <ele>1855.72</ele>
        <time>2023-07-30T07:20:06Z</time>
      </trkpt>
      <trkpt lat="45.881997076794505" lon="7.986665926873684">
        <ele>1859.24</ele>
        <time>2023-07-30T07:20:18Z</time>
      </trkpt>
      <trkpt lat="45.882055079564452" lon="7.986590238288045">
        <ele>1863.1099999999999</ele>
        <time>2023-07-30T07:20:32Z</time>
      </trkpt>
      <trkpt lat="45.882121548056602" lon="7.986525949090719">
        <ele>1867.5999999999999</ele>
        <time>2023-07-30T07:20:46Z</time>
      </trkpt>
      <trkpt lat="45.882203606888652" lon="7.986519495025277">
        <ele>1869.02</ele>
        <time>2023-07-30T07:21:00Z</time>
      </trkpt>
      <trkpt lat="45.882274769246578" lon="7.98645805567503">
        <ele>1867.55</ele>
        <time>2023-07-30T07:21:15Z</time>
      </trkpt>
      <trkpt lat="45.882238978520036" lon="7.986374739557505">
        <ele>1867.1199999999999</ele>
        <time>2023-07-30T07:21:25Z</time>
      </trkpt>
      <trkpt lat="45.882192794233561" lon="7.986298212781549">
        <ele>1868.29</ele>
        <time>2023-07-30T07:21:40Z</time>
      </trkpt>
      <trkpt lat="45.882173767313361" lon="7.986251944676042">
        <ele>1867.74</ele>
        <time>2023-07-30T07:21:45Z</time>
      </trkpt>
      <trkpt lat="45.882111741229892" lon="7.986184889450669">
        <ele>1869.3299999999999</ele>
        <time>2023-07-30T07:21:58Z</time>
      </trkpt>
      <trkpt lat="45.882066730409861" lon="7.986110122874379">
        <ele>1871.74</ele>
        <time>2023-07-30T07:22:10Z</time>
      </trkpt>
      <trkpt lat="45.882014846429229" lon="7.986057819798589">
        <ele>1874.78</ele>
        <time>2023-07-30T07:22:21Z</time>
      </trkpt>
      <trkpt lat="45.881959609687328" lon="7.986024292185903">
        <ele>1875.6500000000001</ele>
        <time>2023-07-30T07:22:32Z</time>
      </trkpt>
      <trkpt lat="45.881880400702357" lon="7.985952543094754">
        <ele>1878.3499999999999</ele>
        <time>2023-07-30T07:22:46Z</time>
      </trkpt>
      <trkpt lat="45.881822649389505" lon="7.985890014097095">
        <ele>1880.75</ele>
        <time>2023-07-30T07:22:57Z</time>
      </trkpt>
      <trkpt lat="45.88175592944026" lon="7.985840812325478">
        <ele>1882.54</ele>
        <time>2023-07-30T07:23:10Z</time>
      </trkpt>
      <trkpt lat="45.881720976904035" lon="7.985789934173226">
        <ele>1883.55</ele>
        <time>2023-07-30T07:23:24Z</time>
      </trkpt>
      <trkpt lat="45.881684683263302" lon="7.985790269449353">
        <ele>1883.6900000000001</ele>
        <time>2023-07-30T07:23:31Z</time>
      </trkpt>
      <trkpt lat="45.881684934720397" lon="7.98573344014585">
        <ele>1886.5899999999999</ele>
        <time>2023-07-30T07:23:43Z</time>
      </trkpt>
      <trkpt lat="45.88173346593976" lon="7.985662864521146">
        <ele>1886.76</ele>
        <time>2023-07-30T07:23:55Z</time>
      </trkpt>
      <trkpt lat="45.881704380735755" lon="7.98562640324235">
        <ele>1888.8299999999999</ele>
        <time>2023-07-30T07:24:05Z</time>
      </trkpt>
      <trkpt lat="45.88169046677649" lon="7.985634868964553">
        <ele>1889.3</ele>
        <time>2023-07-30T07:24:06Z</time>
      </trkpt>
      <trkpt lat="45.881642019376159" lon="7.985650962218642">
        <ele>1891.2</ele>
        <time>2023-07-30T07:24:16Z</time>
      </trkpt>
      <trkpt lat="45.881616454571486" lon="7.985628414899111">
        <ele>1892.21</ele>
        <time>2023-07-30T07:24:23Z</time>
      </trkpt>
      <trkpt lat="45.881632883101702" lon="7.985557923093438">
        <ele>1892</ele>
        <time>2023-07-30T07:24:34Z</time>
      </trkpt>
      <trkpt lat="45.881621316075325" lon="7.985519953072071">
        <ele>1893.04</ele>
        <time>2023-07-30T07:24:45Z</time>
      </trkpt>
      <trkpt lat="45.88162936270237" lon="7.985491706058383">
        <ele>1894.22</ele>
        <time>2023-07-30T07:25:03Z</time>
      </trkpt>
      <trkpt lat="45.881644366309047" lon="7.985394140705466">
        <ele>1896.9200000000001</ele>
        <time>2023-07-30T07:25:18Z</time>
      </trkpt>
      <trkpt lat="45.881636906415224" lon="7.985396990552545">
        <ele>1897.28</ele>
        <time>2023-07-30T07:25:22Z</time>
      </trkpt>
      <trkpt lat="45.881588626652956" lon="7.985430015251041">
        <ele>1900.47</ele>
        <time>2023-07-30T07:25:35Z</time>
      </trkpt>
      <trkpt lat="45.881526935845613" lon="7.985450550913811">
        <ele>1901.05</ele>
        <time>2023-07-30T07:25:47Z</time>
      </trkpt>
      <trkpt lat="45.881484607234597" lon="7.98547544516623">
        <ele>1901.8900000000001</ele>
        <time>2023-07-30T07:25:57Z</time>
      </trkpt>
      <trkpt lat="45.881440518423915" lon="7.985466308891773">
        <ele>1903.5999999999999</ele>
        <time>2023-07-30T07:26:06Z</time>
      </trkpt>
      <trkpt lat="45.881400872021914" lon="7.985472092404962">
        <ele>1904.3399999999999</ele>
        <time>2023-07-30T07:26:24Z</time>
      </trkpt>
      <trkpt lat="45.881381509825587" lon="7.985468991100788">
        <ele>1904.77</ele>
        <time>2023-07-30T07:26:43Z</time>
      </trkpt>
      <trkpt lat="45.881310850381851" lon="7.985430434346199">
        <ele>1905.3599999999999</ele>
        <time>2023-07-30T07:26:59Z</time>
      </trkpt>
      <trkpt lat="45.881236419081688" lon="7.985437391325831">
        <ele>1905.53</ele>
        <time>2023-07-30T07:27:14Z</time>
      </trkpt>
      <trkpt lat="45.881157796829939" lon="7.985446443781257">
        <ele>1904.74</ele>
        <time>2023-07-30T07:27:29Z</time>
      </trkpt>
      <trkpt lat="45.881078504025936" lon="7.985444851219654">
        <ele>1903.6400000000001</ele>
        <time>2023-07-30T07:27:45Z</time>
      </trkpt>
      <trkpt lat="45.881121754646301" lon="7.985388776287437">
        <ele>1904.5</ele>
        <time>2023-07-30T07:28:00Z</time>
      </trkpt>
      <trkpt lat="45.881155114620924" lon="7.985280230641365">
        <ele>1903.8499999999999</ele>
        <time>2023-07-30T07:28:17Z</time>
      </trkpt>
      <trkpt lat="45.881215380504727" lon="7.985170176252723">
        <ele>1902.6900000000001</ele>
        <time>2023-07-30T07:28:34Z</time>
      </trkpt>
      <trkpt lat="45.88125167414546" lon="7.985071018338203">
        <ele>1905.78</ele>
        <time>2023-07-30T07:28:51Z</time>
      </trkpt>
      <trkpt lat="45.881315544247627" lon="7.985014105215669">
        <ele>1908.3099999999999</ele>
        <time>2023-07-30T07:29:06Z</time>
      </trkpt>
      <trkpt lat="45.881392909213901" lon="7.984903044998646">
        <ele>1910.74</ele>
        <time>2023-07-30T07:29:20Z</time>
      </trkpt>
      <trkpt lat="45.881397519260645" lon="7.984823333099484">
        <ele>1910.71</ele>
        <time>2023-07-30T07:29:33Z</time>
      </trkpt>
      <trkpt lat="45.881423586979508" lon="7.984726522117853">
        <ele>1911.8099999999999</ele>
        <time>2023-07-30T07:29:48Z</time>
      </trkpt>
      <trkpt lat="45.881457785144448" lon="7.984598698094487">
        <ele>1915.99</ele>
        <time>2023-07-30T07:30:06Z</time>
      </trkpt>
      <trkpt lat="45.881496760994196" lon="7.984474813565612">
        <ele>1923.22</ele>
        <time>2023-07-30T07:30:22Z</time>
      </trkpt>
      <trkpt lat="45.881550740450621" lon="7.984374314546585">
        <ele>1925.96</ele>
        <time>2023-07-30T07:30:37Z</time>
      </trkpt>
      <trkpt lat="45.881591644138098" lon="7.984281443059444">
        <ele>1930.02</ele>
        <time>2023-07-30T07:30:49Z</time>
      </trkpt>
      <trkpt lat="45.881622573360801" lon="7.984221428632736">
        <ele>1933.6400000000001</ele>
        <time>2023-07-30T07:30:58Z</time>
      </trkpt>
      <trkpt lat="45.881619974970818" lon="7.984148841351271">
        <ele>1936.73</ele>
        <time>2023-07-30T07:31:11Z</time>
      </trkpt>
      <trkpt lat="45.881572114303708" lon="7.984232408925891">
        <ele>1937.1700000000001</ele>
        <time>2023-07-30T07:31:28Z</time>
      </trkpt>
      <trkpt lat="45.881538335233927" lon="7.984278509393334">
        <ele>1937.3299999999999</ele>
        <time>2023-07-30T07:31:39Z</time>
      </trkpt>
      <trkpt lat="45.881467927247286" lon="7.984363669529557">
        <ele>1937.5799999999999</ele>
        <time>2023-07-30T07:31:54Z</time>
      </trkpt>
      <trkpt lat="45.881390562281013" lon="7.984425444155932">
        <ele>1937.0599999999999</ele>
        <time>2023-07-30T07:32:09Z</time>
      </trkpt>
      <trkpt lat="45.881296433508396" lon="7.98448939807713">
        <ele>1937.95</ele>
        <time>2023-07-30T07:32:26Z</time>
      </trkpt>
      <trkpt lat="45.881180176511407" lon="7.984493086114526">
        <ele>1938.6800000000001</ele>
        <time>2023-07-30T07:32:46Z</time>
      </trkpt>
      <trkpt lat="45.881161652505398" lon="7.98450062982738">
        <ele>1938.8</ele>
        <time>2023-07-30T07:32:49Z</time>
      </trkpt>
      <trkpt lat="45.881164586171508" lon="7.984505323693156">
        <ele>1938.6199999999999</ele>
        <time>2023-07-30T07:32:50Z</time>
      </trkpt>
      <trkpt lat="45.881126448512077" lon="7.984560057520866">
        <ele>1937.97</ele>
        <time>2023-07-30T07:32:59Z</time>
      </trkpt>
      <trkpt lat="45.881108343601227" lon="7.984576234593988">
        <ele>1938.26</ele>
        <time>2023-07-30T07:33:02Z</time>
      </trkpt>
      <trkpt lat="45.881066685542464" lon="7.984590064734221">
        <ele>1939.23</ele>
        <time>2023-07-30T07:33:10Z</time>
      </trkpt>
      <trkpt lat="45.88101077824831" lon="7.984664412215352">
        <ele>1940.24</ele>
        <time>2023-07-30T07:33:22Z</time>
      </trkpt>
      <trkpt lat="45.880923103541136" lon="7.984667848795652">
        <ele>1942.97</ele>
        <time>2023-07-30T07:33:39Z</time>
      </trkpt>
      <trkpt lat="45.880965264514089" lon="7.984598530456424">
        <ele>1941.72</ele>
        <time>2023-07-30T07:33:53Z</time>
      </trkpt>
      <trkpt lat="45.880973311141133" lon="7.984571540728211">
        <ele>1940.46</ele>
        <time>2023-07-30T07:33:57Z</time>
      </trkpt>
      <trkpt lat="45.880982279777527" lon="7.984455702826381">
        <ele>1941.6700000000001</ele>
        <time>2023-07-30T07:34:09Z</time>
      </trkpt>
      <trkpt lat="45.881004324182868" lon="7.984348414465785">
        <ele>1948.21</ele>
        <time>2023-07-30T07:34:23Z</time>
      </trkpt>
      <trkpt lat="45.881070205941796" lon="7.984255375340581">
        <ele>1951.4000000000001</ele>
        <time>2023-07-30T07:34:38Z</time>
      </trkpt>
      <trkpt lat="45.881159137934446" lon="7.984169712290168">
        <ele>1951.95</ele>
        <time>2023-07-30T07:34:56Z</time>
      </trkpt>
      <trkpt lat="45.881188977509737" lon="7.984083462506533">
        <ele>1952.6900000000001</ele>
        <time>2023-07-30T07:35:09Z</time>
      </trkpt>
      <trkpt lat="45.881161987781525" lon="7.984073823317885">
        <ele>1954.3599999999999</ele>
        <time>2023-07-30T07:35:23Z</time>
      </trkpt>
      <trkpt lat="45.88111974298954" lon="7.984108356758952">
        <ele>1956.8499999999999</ele>
        <time>2023-07-30T07:35:33Z</time>
      </trkpt>
      <trkpt lat="45.881046568974853" lon="7.98413367010653">
        <ele>1962.9100000000001</ele>
        <time>2023-07-30T07:35:47Z</time>
      </trkpt>
      <trkpt lat="45.880969287827611" lon="7.98409846611321">
        <ele>1964.72</ele>
        <time>2023-07-30T07:36:01Z</time>
      </trkpt>
      <trkpt lat="45.880904998630285" lon="7.984097041189671">
        <ele>1968.6500000000001</ele>
        <time>2023-07-30T07:36:13Z</time>
      </trkpt>
      <trkpt lat="45.880852863192558" lon="7.98407549969852">
        <ele>1967.3800000000001</ele>
        <time>2023-07-30T07:36:24Z</time>
      </trkpt>
      <trkpt lat="45.880813635885715" lon="7.984089916571975">
        <ele>1969.95</ele>
        <time>2023-07-30T07:36:37Z</time>
      </trkpt>
      <trkpt lat="45.880811205133796" lon="7.983958404511213">
        <ele>1969.1099999999999</ele>
        <time>2023-07-30T07:36:52Z</time>
      </trkpt>
      <trkpt lat="45.880805002525449" lon="7.983848517760634">
        <ele>1972.21</ele>
        <time>2023-07-30T07:37:06Z</time>
      </trkpt>
      <trkpt lat="45.880813216790557" lon="7.983756819739938">
        <ele>1975.24</ele>
        <time>2023-07-30T07:37:18Z</time>
      </trkpt>
      <trkpt lat="45.880812797695398" lon="7.983672497794032">
        <ele>1976.8</ele>
        <time>2023-07-30T07:37:31Z</time>
      </trkpt>
      <trkpt lat="45.88086811825633" lon="7.983681885525584">
        <ele>1977.99</ele>
        <time>2023-07-30T07:37:39Z</time>
      </trkpt>
      <trkpt lat="45.880887480452657" lon="7.983693368732929">
        <ele>1978.0899999999999</ele>
        <time>2023-07-30T07:37:41Z</time>
      </trkpt>
      <trkpt lat="45.880902903154492" lon="7.983707282692194">
        <ele>1978.1600000000001</ele>
        <time>2023-07-30T07:37:43Z</time>
      </trkpt>
      <trkpt lat="45.880968701094389" lon="7.983738882467151">
        <ele>1979.3499999999999</ele>
        <time>2023-07-30T07:37:56Z</time>
      </trkpt>
      <trkpt lat="45.880991499871016" lon="7.98368364572525">
        <ele>1981.25</ele>
        <time>2023-07-30T07:38:12Z</time>
      </trkpt>
      <trkpt lat="45.880897790193558" lon="7.983583565801382">
        <ele>1985.51</ele>
        <time>2023-07-30T07:38:31Z</time>
      </trkpt>
      <trkpt lat="45.880863424390554" lon="7.983514918014407">
        <ele>1991.4000000000001</ele>
        <time>2023-07-30T07:38:44Z</time>
      </trkpt>
      <trkpt lat="45.880826711654663" lon="7.983388267457485">
        <ele>1996.73</ele>
        <time>2023-07-30T07:38:57Z</time>
      </trkpt>
      <trkpt lat="45.880791423842311" lon="7.983296401798725">
        <ele>1999.24</ele>
        <time>2023-07-30T07:39:09Z</time>
      </trkpt>
      <trkpt lat="45.880821347236633" lon="7.98325952142477">
        <ele>1997.96</ele>
        <time>2023-07-30T07:39:22Z</time>
      </trkpt>
      <trkpt lat="45.880896784365177" lon="7.983310567215085">
        <ele>1997.72</ele>
        <time>2023-07-30T07:39:39Z</time>
      </trkpt>
      <trkpt lat="45.88096241466701" lon="7.983346190303564">
        <ele>1997.3900000000001</ele>
        <time>2023-07-30T07:39:55Z</time>
      </trkpt>
      <trkpt lat="45.88098487816751" lon="7.983328588306904">
        <ele>1997.22</ele>
        <time>2023-07-30T07:40:08Z</time>
      </trkpt>
      <trkpt lat="45.880994098260999" lon="7.983303274959326">
        <ele>1997.03</ele>
        <time>2023-07-30T07:40:27Z</time>
      </trkpt>
      <trkpt lat="45.881001893430948" lon="7.983286343514919">
        <ele>1996.6099999999999</ele>
        <time>2023-07-30T07:40:51Z</time>
      </trkpt>
      <trkpt lat="45.881009940057993" lon="7.983269831165671">
        <ele>1995.6700000000001</ele>
        <time>2023-07-30T07:41:15Z</time>
      </trkpt>
      <trkpt lat="45.881009269505739" lon="7.983237644657493">
        <ele>1995.25</ele>
        <time>2023-07-30T07:41:46Z</time>
      </trkpt>
      <trkpt lat="45.881023183465004" lon="7.983124321326613">
        <ele>1993.05</ele>
        <time>2023-07-30T07:41:59Z</time>
      </trkpt>
      <trkpt lat="45.881041288375854" lon="7.983016362413764">
        <ele>1991.5799999999999</ele>
        <time>2023-07-30T07:42:14Z</time>
      </trkpt>
      <trkpt lat="45.881069619208574" lon="7.982913181185722">
        <ele>1992.95</ele>
        <time>2023-07-30T07:42:29Z</time>
      </trkpt>
      <trkpt lat="45.881113288924098" lon="7.982803294435144">
        <ele>1997</ele>
        <time>2023-07-30T07:42:43Z</time>
      </trkpt>
      <trkpt lat="45.881164502352476" lon="7.9827053938061">
        <ele>2000.4000000000001</ele>
        <time>2023-07-30T07:42:57Z</time>
      </trkpt>
      <trkpt lat="45.881220325827599" lon="7.982577653601766">
        <ele>2001.3299999999999</ele>
        <time>2023-07-30T07:43:12Z</time>
      </trkpt>
      <trkpt lat="45.88114807382226" lon="7.982607912272215">
        <ele>2001.3199999999999</ele>
        <time>2023-07-30T07:43:28Z</time>
      </trkpt>
      <trkpt lat="45.88108018040657" lon="7.982572540640831">
        <ele>2002.77</ele>
        <time>2023-07-30T07:43:41Z</time>
      </trkpt>
      <trkpt lat="45.880997283384204" lon="7.982577150687575">
        <ele>2006.05</ele>
        <time>2023-07-30T07:43:57Z</time>
      </trkpt>
      <trkpt lat="45.88090960867703" lon="7.982572792097926">
        <ele>2009.27</ele>
        <time>2023-07-30T07:44:13Z</time>
      </trkpt>
      <trkpt lat="45.880864262580872" lon="7.982507413253188">
        <ele>2011.6199999999999</ele>
        <time>2023-07-30T07:44:25Z</time>
      </trkpt>
      <trkpt lat="45.880796452984214" lon="7.982431557029486">
        <ele>2012.99</ele>
        <time>2023-07-30T07:44:42Z</time>
      </trkpt>
      <trkpt lat="45.880753872916102" lon="7.982303313910961">
        <ele>2015.28</ele>
        <time>2023-07-30T07:44:59Z</time>
      </trkpt>
      <trkpt lat="45.880736773833632" lon="7.98221530392766">
        <ele>2017.0899999999999</ele>
        <time>2023-07-30T07:45:12Z</time>
      </trkpt>
      <trkpt lat="45.880808690562844" lon="7.982213208451867">
        <ele>2018.6300000000001</ele>
        <time>2023-07-30T07:45:28Z</time>
      </trkpt>
      <trkpt lat="45.880776839330792" lon="7.98207557760179">
        <ele>2019.95</ele>
        <time>2023-07-30T07:45:45Z</time>
      </trkpt>
      <trkpt lat="45.880764685571194" lon="7.981965271756053">
        <ele>2023.0599999999999</ele>
        <time>2023-07-30T07:45:59Z</time>
      </trkpt>
      <trkpt lat="45.880739288404584" lon="7.981828143820167">
        <ele>2026.8499999999999</ele>
        <time>2023-07-30T07:46:14Z</time>
      </trkpt>
      <trkpt lat="45.880689499899745" lon="7.981752622872591">
        <ele>2030.9000000000001</ele>
        <time>2023-07-30T07:46:29Z</time>
      </trkpt>
      <trkpt lat="45.88066678494215" lon="7.98165824264288">
        <ele>2033.9300000000001</ele>
        <time>2023-07-30T07:46:43Z</time>
      </trkpt>
      <trkpt lat="45.880647003650665" lon="7.981568137183785">
        <ele>2036.9400000000001</ele>
        <time>2023-07-30T07:46:57Z</time>
      </trkpt>
      <trkpt lat="45.880628144368529" lon="7.981486665084958">
        <ele>2039.6800000000001</ele>
        <time>2023-07-30T07:47:09Z</time>
      </trkpt>
      <trkpt lat="45.880575757473707" lon="7.981375688686967">
        <ele>2041.51</ele>
        <time>2023-07-30T07:47:25Z</time>
      </trkpt>
      <trkpt lat="45.880537368357182" lon="7.981267897412181">
        <ele>2043.24</ele>
        <time>2023-07-30T07:47:40Z</time>
      </trkpt>
      <trkpt lat="45.880619930103421" lon="7.98125415109098">
        <ele>2044.96</ele>
        <time>2023-07-30T07:47:53Z</time>
      </trkpt>
      <trkpt lat="45.880647674202919" lon="7.981209056451917">
        <ele>2046.3499999999999</ele>
        <time>2023-07-30T07:48:07Z</time>
      </trkpt>
      <trkpt lat="45.880630491301417" lon="7.981080561876297">
        <ele>2046.8499999999999</ele>
        <time>2023-07-30T07:48:24Z</time>
      </trkpt>
      <trkpt lat="45.88070441968739" lon="7.981012249365449">
        <ele>2047.8</ele>
        <time>2023-07-30T07:48:36Z</time>
      </trkpt>
      <trkpt lat="45.880747251212597" lon="7.980882748961449">
        <ele>2047.8199999999999</ele>
        <time>2023-07-30T07:48:50Z</time>
      </trkpt>
      <trkpt lat="45.880805170163512" lon="7.980729527771473">
        <ele>2050.3099999999999</ele>
        <time>2023-07-30T07:49:08Z</time>
      </trkpt>
      <trkpt lat="45.880893263965845" lon="7.980619641020894">
        <ele>2053.5799999999999</ele>
        <time>2023-07-30T07:49:26Z</time>
      </trkpt>
      <trkpt lat="45.880974903702736" lon="7.980610588565469">
        <ele>2055.6900000000001</ele>
        <time>2023-07-30T07:49:40Z</time>
      </trkpt>
      <trkpt lat="45.881068697199225" lon="7.980581084266305">
        <ele>2058.6999999999998</ele>
        <time>2023-07-30T07:49:55Z</time>
      </trkpt>
      <trkpt lat="45.881094597280025" lon="7.980592316016555">
        <ele>2059.3899999999999</ele>
        <time>2023-07-30T07:49:58Z</time>
      </trkpt>
      <trkpt lat="45.881145475432277" lon="7.980564823374152">
        <ele>2061.3899999999999</ele>
        <time>2023-07-30T07:50:12Z</time>
      </trkpt>
      <trkpt lat="45.881072636693716" lon="7.98043129965663">
        <ele>2061.71</ele>
        <time>2023-07-30T07:50:30Z</time>
      </trkpt>
      <trkpt lat="45.881030894815922" lon="7.980334237217903">
        <ele>2063.1500000000001</ele>
        <time>2023-07-30T07:50:42Z</time>
      </trkpt>
      <trkpt lat="45.880980519577861" lon="7.980184368789196">
        <ele>2067.3899999999999</ele>
        <time>2023-07-30T07:50:58Z</time>
      </trkpt>
      <trkpt lat="45.880944645032287" lon="7.980046989396215">
        <ele>2072.3899999999999</ele>
        <time>2023-07-30T07:51:14Z</time>
      </trkpt>
      <trkpt lat="45.880888234823942" lon="7.980008600279689">
        <ele>2072.5100000000002</ele>
        <time>2023-07-30T07:51:26Z</time>
      </trkpt>
      <trkpt lat="45.880858059972525" lon="7.979922601953149">
        <ele>2071.8899999999999</ele>
        <time>2023-07-30T07:55:44Z</time>
      </trkpt>
      <trkpt lat="45.880851438269019" lon="7.979886643588543">
        <ele>2073.8899999999999</ele>
        <time>2023-07-30T07:57:15Z</time>
      </trkpt>
      <trkpt lat="45.880839116871357" lon="7.97987038269639">
        <ele>2071.1199999999999</ele>
        <time>2023-07-30T07:59:56Z</time>
      </trkpt>
      <trkpt lat="45.880839200690389" lon="7.979875328019261">
        <ele>2071.3600000000001</ele>
        <time>2023-07-30T08:00:19Z</time>
      </trkpt>
      <trkpt lat="45.880824532359838" lon="7.979807853698731">
        <ele>2072.6399999999999</ele>
        <time>2023-07-30T08:00:56Z</time>
      </trkpt>
      <trkpt lat="45.880751274526119" lon="7.97970718704164">
        <ele>2075.8699999999999</ele>
        <time>2023-07-30T08:01:10Z</time>
      </trkpt>
      <trkpt lat="45.880685560405254" lon="7.97960551455617">
        <ele>2078.0300000000002</ele>
        <time>2023-07-30T08:01:23Z</time>
      </trkpt>
      <trkpt lat="45.880610123276711" lon="7.979512475430965">
        <ele>2079.4400000000001</ele>
        <time>2023-07-30T08:01:38Z</time>
      </trkpt>
      <trkpt lat="45.88051825761795" lon="7.979454640299082">
        <ele>2081.5</ele>
        <time>2023-07-30T08:01:53Z</time>
      </trkpt>
      <trkpt lat="45.880468636751175" lon="7.979393536224961">
        <ele>2085.3299999999999</ele>
        <time>2023-07-30T08:02:08Z</time>
      </trkpt>
      <trkpt lat="45.880499314516783" lon="7.979353638365865">
        <ele>2088.1199999999999</ele>
        <time>2023-07-30T08:02:17Z</time>
      </trkpt>
      <trkpt lat="45.880581121891737" lon="7.979304771870375">
        <ele>2090.2600000000002</ele>
        <time>2023-07-30T08:02:32Z</time>
      </trkpt>
      <trkpt lat="45.880630742758512" lon="7.979198070243001">
        <ele>2092.0999999999999</ele>
        <time>2023-07-30T08:02:47Z</time>
      </trkpt>
      <trkpt lat="45.880609368905425" lon="7.979117520153523">
        <ele>2094.6399999999999</ele>
        <time>2023-07-30T08:03:03Z</time>
      </trkpt>
      <trkpt lat="45.880531668663025" lon="7.979067480191588">
        <ele>2097.5100000000002</ele>
        <time>2023-07-30T08:03:17Z</time>
      </trkpt>
      <trkpt lat="45.880461009219289" lon="7.979032695293427">
        <ele>2097.8299999999999</ele>
        <time>2023-07-30T08:03:32Z</time>
      </trkpt>
      <trkpt lat="45.880468636751175" lon="7.97895566560328">
        <ele>2098.1900000000001</ele>
        <time>2023-07-30T08:03:45Z</time>
      </trkpt>
      <trkpt lat="45.880533512681723" lon="7.978871678933501">
        <ele>2101.21</ele>
        <time>2023-07-30T08:04:00Z</time>
      </trkpt>
      <trkpt lat="45.880528064444661" lon="7.978816693648696">
        <ele>2101.5500000000002</ele>
        <time>2023-07-30T08:04:16Z</time>
      </trkpt>
      <trkpt lat="45.880438713356853" lon="7.978751482442021">
        <ele>2102.3899999999999</ele>
        <time>2023-07-30T08:04:30Z</time>
      </trkpt>
      <trkpt lat="45.880336286500096" lon="7.978704711422324">
        <ele>2101.7600000000002</ele>
        <time>2023-07-30T08:04:47Z</time>
      </trkpt>
      <trkpt lat="45.880299657583237" lon="7.978591388091445">
        <ele>2104.5100000000002</ele>
        <time>2023-07-30T08:05:01Z</time>
      </trkpt>
      <trkpt lat="45.880244085565209" lon="7.978461468592286">
        <ele>2109.5700000000002</ele>
        <time>2023-07-30T08:05:15Z</time>
      </trkpt>
      <trkpt lat="45.880208797752857" lon="7.978323418647051">
        <ele>2114.9899999999998</ele>
        <time>2023-07-30T08:05:30Z</time>
      </trkpt>
      <trkpt lat="45.880172839388251" lon="7.978204982355237">
        <ele>2116.5599999999999</ele>
        <time>2023-07-30T08:05:44Z</time>
      </trkpt>
      <trkpt lat="45.880134617909789" lon="7.97807615250349">
        <ele>2119.3400000000001</ele>
        <time>2023-07-30T08:05:59Z</time>
      </trkpt>
      <trkpt lat="45.880098911002278" lon="7.977955788373947">
        <ele>2122.2800000000002</ele>
        <time>2023-07-30T08:06:13Z</time>
      </trkpt>
      <trkpt lat="45.880103940144181" lon="7.977925362065435">
        <ele>2122.21</ele>
        <time>2023-07-30T08:06:26Z</time>
      </trkpt>
      <trkpt lat="45.880082733929157" lon="7.977803153917193">
        <ele>2121.0100000000002</ele>
        <time>2023-07-30T08:06:41Z</time>
      </trkpt>
      <trkpt lat="45.880071585997939" lon="7.977689160034061">
        <ele>2116.6799999999998</ele>
        <time>2023-07-30T08:06:56Z</time>
      </trkpt>
      <trkpt lat="45.880058007314801" lon="7.977537447586656">
        <ele>2117.9000000000001</ele>
        <time>2023-07-30T08:07:11Z</time>
      </trkpt>
      <trkpt lat="45.880021043121815" lon="7.977388082072139">
        <ele>2123.25</ele>
        <time>2023-07-30T08:07:26Z</time>
      </trkpt>
      <trkpt lat="45.879985168576241" lon="7.977261850610375">
        <ele>2127.8499999999999</ele>
        <time>2023-07-30T08:07:39Z</time>
      </trkpt>
      <trkpt lat="45.879977541044354" lon="7.977219354361296">
        <ele>2129.1599999999999</ele>
        <time>2023-07-30T08:07:43Z</time>
      </trkpt>
      <trkpt lat="45.879992293193936" lon="7.977089267224073">
        <ele>2132.04</ele>
        <time>2023-07-30T08:07:55Z</time>
      </trkpt>
      <trkpt lat="45.880023390054703" lon="7.976965885609388">
        <ele>2133.7399999999998</ele>
        <time>2023-07-30T08:08:09Z</time>
      </trkpt>
      <trkpt lat="45.880031855776906" lon="7.97695373184979">
        <ele>2133.9400000000001</ele>
        <time>2023-07-30T08:08:10Z</time>
      </trkpt>
      <trkpt lat="45.880035711452365" lon="7.976836385205388">
        <ele>2136.25</ele>
        <time>2023-07-30T08:08:21Z</time>
      </trkpt>
      <trkpt lat="45.880031101405621" lon="7.976712249219418">
        <ele>2138.6199999999999</ele>
        <time>2023-07-30T08:08:33Z</time>
      </trkpt>
      <trkpt lat="45.880038309842348" lon="7.976657934486866">
        <ele>2137.6100000000001</ele>
        <time>2023-07-30T08:08:39Z</time>
      </trkpt>
      <trkpt lat="45.880034621804953" lon="7.976539582014084">
        <ele>2137.5300000000002</ele>
        <time>2023-07-30T08:08:53Z</time>
      </trkpt>
      <trkpt lat="45.880022216588259" lon="7.976431287825108">
        <ele>2137.5500000000002</ele>
        <time>2023-07-30T08:09:06Z</time>
      </trkpt>
      <trkpt lat="45.879933452233672" lon="7.976351659744978">
        <ele>2138.4499999999998</ele>
        <time>2023-07-30T08:09:19Z</time>
      </trkpt>
      <trkpt lat="45.879861116409302" lon="7.976261051371694">
        <ele>2139.1399999999999</ele>
        <time>2023-07-30T08:09:34Z</time>
      </trkpt>
      <trkpt lat="45.879783080890775" lon="7.976151080802083">
        <ele>2142.4299999999998</ele>
        <time>2023-07-30T08:09:48Z</time>
      </trkpt>
      <trkpt lat="45.879725832492113" lon="7.975972462445498">
        <ele>2147.9000000000001</ele>
        <time>2023-07-30T08:10:05Z</time>
      </trkpt>
      <trkpt lat="45.879690712317824" lon="7.975796861574054">
        <ele>2150.54</ele>
        <time>2023-07-30T08:10:23Z</time>
      </trkpt>
      <trkpt lat="45.879668164998293" lon="7.975665600970388">
        <ele>2151.4099999999999</ele>
        <time>2023-07-30T08:10:36Z</time>
      </trkpt>
      <trkpt lat="45.879652071744204" lon="7.975498968735337">
        <ele>2153.2600000000002</ele>
        <time>2023-07-30T08:10:53Z</time>
      </trkpt>
      <trkpt lat="45.879633966833353" lon="7.975365277379751">
        <ele>2153.7199999999998</ele>
        <time>2023-07-30T08:11:07Z</time>
      </trkpt>
      <trkpt lat="45.87962944060564" lon="7.975305430591106">
        <ele>2153.5500000000002</ele>
        <time>2023-07-30T08:11:21Z</time>
      </trkpt>
      <trkpt lat="45.87960647419095" lon="7.975158495828509">
        <ele>2154.3899999999999</ele>
        <time>2023-07-30T08:11:35Z</time>
      </trkpt>
      <trkpt lat="45.879573868587613" lon="7.974969400092959">
        <ele>2155.8699999999999</ele>
        <time>2023-07-30T08:11:54Z</time>
      </trkpt>
      <trkpt lat="45.879554338753223" lon="7.97480620443821">
        <ele>2157.23</ele>
        <time>2023-07-30T08:12:11Z</time>
      </trkpt>
      <trkpt lat="45.879524918273091" lon="7.97467821277678">
        <ele>2158.8600000000001</ele>
        <time>2023-07-30T08:12:24Z</time>
      </trkpt>
      <trkpt lat="45.8795106690377" lon="7.974540581926704">
        <ele>2159.8699999999999</ele>
        <time>2023-07-30T08:12:39Z</time>
      </trkpt>
      <trkpt lat="45.879492899402976" lon="7.974435724318028">
        <ele>2161.2399999999998</ele>
        <time>2023-07-30T08:12:49Z</time>
      </trkpt>
      <trkpt lat="45.879462556913495" lon="7.974300272762775">
        <ele>2162.8899999999999</ele>
        <time>2023-07-30T08:13:02Z</time>
      </trkpt>
      <trkpt lat="45.879448307678103" lon="7.974228356033564">
        <ele>2163.4499999999998</ele>
        <time>2023-07-30T08:13:09Z</time>
      </trkpt>
      <trkpt lat="45.879414025694132" lon="7.974105142056942">
        <ele>2164.1199999999999</ele>
        <time>2023-07-30T08:13:22Z</time>
      </trkpt>
      <trkpt lat="45.879355855286121" lon="7.973978072404862">
        <ele>2165.2399999999998</ele>
        <time>2023-07-30T08:13:37Z</time>
      </trkpt>
      <trkpt lat="45.87931134738028" lon="7.973836334422231">
        <ele>2167.71</ele>
        <time>2023-07-30T08:13:53Z</time>
      </trkpt>
      <trkpt lat="45.879293074831367" lon="7.973694344982505">
        <ele>2170.4099999999999</ele>
        <time>2023-07-30T08:14:09Z</time>
      </trkpt>
      <trkpt lat="45.87924730964005" lon="7.973554953932762">
        <ele>2172.5999999999999</ele>
        <time>2023-07-30T08:14:24Z</time>
      </trkpt>
      <trkpt lat="45.879200790077448" lon="7.973427129909396">
        <ele>2175.3200000000002</ele>
        <time>2023-07-30T08:14:39Z</time>
      </trkpt>
      <trkpt lat="45.879158461466432" lon="7.973294444382191">
        <ele>2177.5300000000002</ele>
        <time>2023-07-30T08:14:55Z</time>
      </trkpt>
      <trkpt lat="45.879152845591307" lon="7.973110545426607">
        <ele>2180.9299999999998</ele>
        <time>2023-07-30T08:15:13Z</time>
      </trkpt>
      <trkpt lat="45.879146475344896" lon="7.972939470782876">
        <ele>2183.8000000000002</ele>
        <time>2023-07-30T08:15:29Z</time>
      </trkpt>
      <trkpt lat="45.8791549410671" lon="7.972927400842309">
        <ele>2183.96</ele>
        <time>2023-07-30T08:15:30Z</time>
      </trkpt>
      <trkpt lat="45.879166759550571" lon="7.972830170765519">
        <ele>2184.3099999999999</ele>
        <time>2023-07-30T08:15:41Z</time>
      </trkpt>
      <trkpt lat="45.879134992137551" lon="7.972723301500082">
        <ele>2184.8299999999999</ele>
        <time>2023-07-30T08:15:54Z</time>
      </trkpt>
      <trkpt lat="45.879078079015017" lon="7.972671668976545">
        <ele>2185.0999999999999</ele>
        <time>2023-07-30T08:16:03Z</time>
      </trkpt>
      <trkpt lat="45.879023764282465" lon="7.972546778619289">
        <ele>2187.1199999999999</ele>
        <time>2023-07-30T08:16:19Z</time>
      </trkpt>
      <trkpt lat="45.878963163122535" lon="7.972429096698761">
        <ele>2188.98</ele>
        <time>2023-07-30T08:16:33Z</time>
      </trkpt>
      <trkpt lat="45.878915973007679" lon="7.972357263788581">
        <ele>2190.79</ele>
        <time>2023-07-30T08:16:43Z</time>
      </trkpt>
      <trkpt lat="45.878905998542905" lon="7.972349636256695">
        <ele>2191.0999999999999</ele>
        <time>2023-07-30T08:16:44Z</time>
      </trkpt>
      <trkpt lat="45.878894347697496" lon="7.972334381192923">
        <ele>2191.4499999999998</ele>
        <time>2023-07-30T08:16:46Z</time>
      </trkpt>
      <trkpt lat="45.878875739872456" lon="7.972176549956203">
        <ele>2193.9200000000001</ele>
        <time>2023-07-30T08:17:02Z</time>
      </trkpt>
      <trkpt lat="45.878849755972624" lon="7.972056018188596">
        <ele>2195.3699999999999</ele>
        <time>2023-07-30T08:17:15Z</time>
      </trkpt>
      <trkpt lat="45.878837602213025" lon="7.972038248553872">
        <ele>2195.6900000000001</ele>
        <time>2023-07-30T08:17:17Z</time>
      </trkpt>
      <trkpt lat="45.878816647455096" lon="7.971945628523827">
        <ele>2197.4899999999998</ele>
        <time>2023-07-30T08:17:27Z</time>
      </trkpt>
      <trkpt lat="45.878781108185649" lon="7.971802800893784">
        <ele>2200.0100000000002</ele>
        <time>2023-07-30T08:17:43Z</time>
      </trkpt>
      <trkpt lat="45.87880315259099" lon="7.971644802019">
        <ele>2202.2800000000002</ele>
        <time>2023-07-30T08:17:59Z</time>
      </trkpt>
      <trkpt lat="45.878797117620707" lon="7.971579842269421">
        <ele>2203.2399999999998</ele>
        <time>2023-07-30T08:18:12Z</time>
      </trkpt>
      <trkpt lat="45.878871465101838" lon="7.971546817570925">
        <ele>2203.9200000000001</ele>
        <time>2023-07-30T08:18:26Z</time>
      </trkpt>
      <trkpt lat="45.878972131758928" lon="7.971578501164913">
        <ele>2206.6199999999999</ele>
        <time>2023-07-30T08:18:41Z</time>
      </trkpt>
      <trkpt lat="45.878956541419029" lon="7.971494346857071">
        <ele>2207.9499999999998</ele>
        <time>2023-07-30T08:18:55Z</time>
      </trkpt>
      <trkpt lat="45.878919828683138" lon="7.971387226134539">
        <ele>2209.9000000000001</ele>
        <time>2023-07-30T08:19:09Z</time>
      </trkpt>
      <trkpt lat="45.878990991041064" lon="7.971400050446391">
        <ele>2212.5</ele>
        <time>2023-07-30T08:19:21Z</time>
      </trkpt>
      <trkpt lat="45.879069613292813" lon="7.971409605816007">
        <ele>2214.3699999999999</ele>
        <time>2023-07-30T08:19:33Z</time>
      </trkpt>
      <trkpt lat="45.87908604182303" lon="7.971373563632369">
        <ele>2214.8200000000002</ele>
        <time>2023-07-30T08:19:45Z</time>
      </trkpt>
      <trkpt lat="45.879036756232381" lon="7.971275243908167">
        <ele>2217.0900000000001</ele>
        <time>2023-07-30T08:20:00Z</time>
      </trkpt>
      <trkpt lat="45.878994762897491" lon="7.971180779859424">
        <ele>2219.75</ele>
        <time>2023-07-30T08:20:13Z</time>
      </trkpt>
      <trkpt lat="45.879046730697155" lon="7.971148760989308">
        <ele>2222.04</ele>
        <time>2023-07-30T08:20:26Z</time>
      </trkpt>
      <trkpt lat="45.87910900823772" lon="7.971182707697153">
        <ele>2223.3899999999999</ele>
        <time>2023-07-30T08:20:35Z</time>
      </trkpt>
      <trkpt lat="45.879146391525865" lon="7.971199387684465">
        <ele>2227.8899999999999</ele>
        <time>2023-07-30T08:20:37Z</time>
      </trkpt>
      <trkpt lat="45.879208333790302" lon="7.9712372738868">
        <ele>2229.5300000000002</ele>
        <time>2023-07-30T08:20:47Z</time>
      </trkpt>
      <trkpt lat="45.879169777035713" lon="7.971109030768275">
        <ele>2230.4400000000001</ele>
        <time>2023-07-30T08:21:02Z</time>
      </trkpt>
      <trkpt lat="45.8791324775666" lon="7.970945499837399">
        <ele>2232.29</ele>
        <time>2023-07-30T08:21:20Z</time>
      </trkpt>
      <trkpt lat="45.879077492281795" lon="7.970803007483482">
        <ele>2233.3699999999999</ele>
        <time>2023-07-30T08:21:37Z</time>
      </trkpt>
      <trkpt lat="45.879051340743899" lon="7.970656072720885">
        <ele>2234.8600000000001</ele>
        <time>2023-07-30T08:21:53Z</time>
      </trkpt>
      <trkpt lat="45.879022171720862" lon="7.970521291717887">
        <ele>2236.3299999999999</ele>
        <time>2023-07-30T08:22:08Z</time>
      </trkpt>
      <trkpt lat="45.878989901393652" lon="7.970398413017392">
        <ele>2238.1100000000001</ele>
        <time>2023-07-30T08:22:23Z</time>
      </trkpt>
      <trkpt lat="45.879033068194985" lon="7.970384079962969">
        <ele>2240.52</ele>
        <time>2023-07-30T08:22:36Z</time>
      </trkpt>
      <trkpt lat="45.879106745123863" lon="7.970442501828075">
        <ele>2241.6999999999998</ele>
        <time>2023-07-30T08:22:48Z</time>
      </trkpt>
      <trkpt lat="45.879198191687465" lon="7.970545515418053">
        <ele>2243.9499999999998</ele>
        <time>2023-07-30T08:23:05Z</time>
      </trkpt>
      <trkpt lat="45.879279663786292" lon="7.970630172640085">
        <ele>2245.5100000000002</ele>
        <time>2023-07-30T08:23:21Z</time>
      </trkpt>
      <trkpt lat="45.87926734238863" lon="7.97053512185812">
        <ele>2245.9000000000001</ele>
        <time>2023-07-30T08:23:37Z</time>
      </trkpt>
      <trkpt lat="45.879227695986629" lon="7.970405118539929">
        <ele>2246.77</ele>
        <time>2023-07-30T08:23:53Z</time>
      </trkpt>
      <trkpt lat="45.879202298820019" lon="7.970271594822407">
        <ele>2248.23</ele>
        <time>2023-07-30T08:24:10Z</time>
      </trkpt>
      <trkpt lat="45.879175309091806" lon="7.970105968415737">
        <ele>2251.3400000000001</ele>
        <time>2023-07-30T08:24:28Z</time>
      </trkpt>
      <trkpt lat="45.879114288836718" lon="7.969977390021086">
        <ele>2253.8499999999999</ele>
        <time>2023-07-30T08:24:44Z</time>
      </trkpt>
      <trkpt lat="45.879082269966602" lon="7.969868509098887">
        <ele>2255.1199999999999</ele>
        <time>2023-07-30T08:24:58Z</time>
      </trkpt>
      <trkpt lat="45.879119820892811" lon="7.969881752505899">
        <ele>2255.8400000000001</ele>
        <time>2023-07-30T08:25:12Z</time>
      </trkpt>
      <trkpt lat="45.879232054576278" lon="7.969931038096547">
        <ele>2257.6300000000001</ele>
        <time>2023-07-30T08:25:29Z</time>
      </trkpt>
      <trkpt lat="45.879320735111833" lon="7.970013013109565">
        <ele>2259.8200000000002</ele>
        <time>2023-07-30T08:25:43Z</time>
      </trkpt>
      <trkpt lat="45.879435064271092" lon="7.97008803114295">
        <ele>2263.25</ele>
        <time>2023-07-30T08:26:01Z</time>
      </trkpt>
      <trkpt lat="45.879478231072426" lon="7.970045953989029">
        <ele>2264.4499999999998</ele>
        <time>2023-07-30T08:26:15Z</time>
      </trkpt>
      <trkpt lat="45.879431460052729" lon="7.969912094995379">
        <ele>2265.5100000000002</ele>
        <time>2023-07-30T08:26:32Z</time>
      </trkpt>
      <trkpt lat="45.879389131441712" lon="7.969825426116586">
        <ele>2267.5700000000002</ele>
        <time>2023-07-30T08:26:43Z</time>
      </trkpt>
      <trkpt lat="45.879353927448392" lon="7.969719478860498">
        <ele>2269.3899999999999</ele>
        <time>2023-07-30T08:26:57Z</time>
      </trkpt>
      <trkpt lat="45.879311598837376" lon="7.969545889645815">
        <ele>2272.2199999999998</ele>
        <time>2023-07-30T08:27:18Z</time>
      </trkpt>
      <trkpt lat="45.879298355430365" lon="7.969395015388727">
        <ele>2274.3400000000001</ele>
        <time>2023-07-30T08:27:35Z</time>
      </trkpt>
      <trkpt lat="45.879275891929865" lon="7.969270125031471">
        <ele>2276.1599999999999</ele>
        <time>2023-07-30T08:27:51Z</time>
      </trkpt>
      <trkpt lat="45.879247393459082" lon="7.969163423404098">
        <ele>2278.3299999999999</ele>
        <time>2023-07-30T08:28:07Z</time>
      </trkpt>
      <trkpt lat="45.879231467843056" lon="7.969034006819129">
        <ele>2279.4400000000001</ele>
        <time>2023-07-30T08:28:22Z</time>
      </trkpt>
      <trkpt lat="45.87920087389648" lon="7.968883132562041">
        <ele>2280.8699999999999</ele>
        <time>2023-07-30T08:28:40Z</time>
      </trkpt>
      <trkpt lat="45.879181930795312" lon="7.968722535297275">
        <ele>2283.5799999999999</ele>
        <time>2023-07-30T08:28:58Z</time>
      </trkpt>
      <trkpt lat="45.879171621054411" lon="7.968598399311304">
        <ele>2286.0799999999999</ele>
        <time>2023-07-30T08:29:14Z</time>
      </trkpt>
      <trkpt lat="45.879180254414678" lon="7.968497313559055">
        <ele>2287.1500000000001</ele>
        <time>2023-07-30T08:29:27Z</time>
      </trkpt>
      <trkpt lat="45.879177991300821" lon="7.968365550041199">
        <ele>2290.29</ele>
        <time>2023-07-30T08:29:43Z</time>
      </trkpt>
      <trkpt lat="45.879187295213342" lon="7.968223728239536">
        <ele>2292.6599999999999</ele>
        <time>2023-07-30T08:29:58Z</time>
      </trkpt>
      <trkpt lat="45.879180589690804" lon="7.968127252534032">
        <ele>2294.8299999999999</ele>
        <time>2023-07-30T08:30:10Z</time>
      </trkpt>
      <trkpt lat="45.879122419282794" lon="7.968014935031533">
        <ele>2297.8000000000002</ele>
        <time>2023-07-30T08:30:27Z</time>
      </trkpt>
      <trkpt lat="45.879084281623363" lon="7.967878980562091">
        <ele>2300.3600000000001</ele>
        <time>2023-07-30T08:30:44Z</time>
      </trkpt>
      <trkpt lat="45.879044886678457" lon="7.967723244801164">
        <ele>2303.1999999999998</ele>
        <time>2023-07-30T08:31:02Z</time>
      </trkpt>
      <trkpt lat="45.879017142578959" lon="7.967623164877296">
        <ele>2302.9000000000001</ele>
        <time>2023-07-30T08:31:15Z</time>
      </trkpt>
      <trkpt lat="45.878998953849077" lon="7.967501627281308">
        <ele>2304.4899999999998</ele>
        <time>2023-07-30T08:31:30Z</time>
      </trkpt>
      <trkpt lat="45.878968192264438" lon="7.96739861369133">
        <ele>2305.4400000000001</ele>
        <time>2023-07-30T08:31:44Z</time>
      </trkpt>
      <trkpt lat="45.878916224464774" lon="7.967304401099682">
        <ele>2307.5100000000002</ele>
        <time>2023-07-30T08:31:58Z</time>
      </trkpt>
      <trkpt lat="45.878845565021038" lon="7.9671860486269">
        <ele>2309.8000000000002</ele>
        <time>2023-07-30T08:32:15Z</time>
      </trkpt>
      <trkpt lat="45.878792842850089" lon="7.967075826600194">
        <ele>2312.6999999999998</ele>
        <time>2023-07-30T08:32:30Z</time>
      </trkpt>
      <trkpt lat="45.878743305802345" lon="7.966985385864973">
        <ele>2315.3800000000001</ele>
        <time>2023-07-30T08:32:46Z</time>
      </trkpt>
      <trkpt lat="45.878685805946589" lon="7.966839037835598">
        <ele>2319.1399999999999</ele>
        <time>2023-07-30T08:33:05Z</time>
      </trkpt>
      <trkpt lat="45.878648003563285" lon="7.966711716726422">
        <ele>2320.75</ele>
        <time>2023-07-30T08:33:20Z</time>
      </trkpt>
      <trkpt lat="45.878652194514871" lon="7.966681122779846">
        <ele>2321.8000000000002</ele>
        <time>2023-07-30T08:33:37Z</time>
      </trkpt>
      <trkpt lat="45.878628306090832" lon="7.966641644015908">
        <ele>2322.8099999999999</ele>
        <time>2023-07-30T08:33:48Z</time>
      </trkpt>
      <trkpt lat="45.878564100712538" lon="7.966558076441288">
        <ele>2324.0100000000002</ele>
        <time>2023-07-30T08:34:01Z</time>
      </trkpt>
      <trkpt lat="45.878535518422723" lon="7.966512311249971">
        <ele>2324.6900000000001</ele>
        <time>2023-07-30T08:34:15Z</time>
      </trkpt>
      <trkpt lat="45.878517329692841" lon="7.966443663462997">
        <ele>2325.4200000000001</ele>
        <time>2023-07-30T08:34:28Z</time>
      </trkpt>
      <trkpt lat="45.878505930304527" lon="7.966417679563165">
        <ele>2325.5999999999999</ele>
        <time>2023-07-30T08:34:31Z</time>
      </trkpt>
      <trkpt lat="45.878480952233076" lon="7.96629530377686">
        <ele>2327.3299999999999</ele>
        <time>2023-07-30T08:34:44Z</time>
      </trkpt>
      <trkpt lat="45.878424542024732" lon="7.966114087030292">
        <ele>2328.1999999999998</ele>
        <time>2023-07-30T08:35:01Z</time>
      </trkpt>
      <trkpt lat="45.878405012190342" lon="7.966069914400578">
        <ele>2328.1199999999999</ele>
        <time>2023-07-30T08:35:05Z</time>
      </trkpt>
      <trkpt lat="45.878397971391678" lon="7.96602607704699">
        <ele>2328.6100000000001</ele>
        <time>2023-07-30T08:35:20Z</time>
      </trkpt>
      <trkpt lat="45.87839906103909" lon="7.966037727892399">
        <ele>2328.98</ele>
        <time>2023-07-30T08:35:57Z</time>
      </trkpt>
      <trkpt lat="45.878394870087504" lon="7.966025993227959">
        <ele>2331.25</ele>
        <time>2023-07-30T08:36:28Z</time>
      </trkpt>
      <trkpt lat="45.878412136808038" lon="7.966024484485388">
        <ele>2331.2800000000002</ele>
        <time>2023-07-30T08:37:02Z</time>
      </trkpt>
      <trkpt lat="45.878416411578655" lon="7.966024484485388">
        <ele>2330.4899999999998</ele>
        <time>2023-07-30T08:37:32Z</time>
      </trkpt>
      <trkpt lat="45.878377854824066" lon="7.965840166434646">
        <ele>2329.7600000000002</ele>
        <time>2023-07-30T08:37:48Z</time>
      </trkpt>
      <trkpt lat="45.878349859267473" lon="7.965649394318461">
        <ele>2327.8099999999999</ele>
        <time>2023-07-30T08:38:05Z</time>
      </trkpt>
      <trkpt lat="45.87833208963275" lon="7.965448061004281">
        <ele>2326.25</ele>
        <time>2023-07-30T08:38:22Z</time>
      </trkpt>
      <trkpt lat="45.878328569233418" lon="7.965303640812635">
        <ele>2325.46</ele>
        <time>2023-07-30T08:38:39Z</time>
      </trkpt>
      <trkpt lat="45.878358408808708" lon="7.965280842036009">
        <ele>2325.7399999999998</ele>
        <time>2023-07-30T08:39:34Z</time>
      </trkpt>
      <trkpt lat="45.878359666094184" lon="7.965284194797278">
        <ele>2325.2600000000002</ele>
        <time>2023-07-30T08:40:02Z</time>
      </trkpt>
      <trkpt lat="45.878360169008374" lon="7.965287379920483">
        <ele>2325.3200000000002</ele>
        <time>2023-07-30T08:40:31Z</time>
      </trkpt>
      <trkpt lat="45.878394786268473" lon="7.965323003008962">
        <ele>2327.0999999999999</ele>
        <time>2023-07-30T08:42:08Z</time>
      </trkpt>
      <trkpt lat="45.878437533974648" lon="7.96528235077858">
        <ele>2330.1300000000001</ele>
        <time>2023-07-30T08:42:26Z</time>
      </trkpt>
      <trkpt lat="45.878479024395347" lon="7.965195514261723">
        <ele>2332.73</ele>
        <time>2023-07-30T08:42:42Z</time>
      </trkpt>
      <trkpt lat="45.878510037437081" lon="7.965223928913474">
        <ele>2335.1500000000001</ele>
        <time>2023-07-30T08:42:58Z</time>
      </trkpt>
      <trkpt lat="45.878542056307197" lon="7.965252678841353">
        <ele>2337.5</ele>
        <time>2023-07-30T08:43:15Z</time>
      </trkpt>
      <trkpt lat="45.87858865968883" lon="7.965195262804627">
        <ele>2338.0999999999999</ele>
        <time>2023-07-30T08:43:32Z</time>
      </trkpt>
      <trkpt lat="45.878604669123888" lon="7.965139104053378">
        <ele>2337.8400000000001</ele>
        <time>2023-07-30T08:43:39Z</time>
      </trkpt>
      <trkpt lat="45.878655379638076" lon="7.965069869533181">
        <ele>2339.21</ele>
        <time>2023-07-30T08:43:52Z</time>
      </trkpt>
      <trkpt lat="45.878691002726555" lon="7.965000802651048">
        <ele>2341.1100000000001</ele>
        <time>2023-07-30T08:44:06Z</time>
      </trkpt>
      <trkpt lat="45.878735845908523" lon="7.964973812922835">
        <ele>2343.1599999999999</ele>
        <time>2023-07-30T08:44:21Z</time>
      </trkpt>
      <trkpt lat="45.878763170912862" lon="7.965010860934854">
        <ele>2344.8400000000001</ele>
        <time>2023-07-30T08:44:35Z</time>
      </trkpt>
      <trkpt lat="45.87879678234458" lon="7.965042712166905">
        <ele>2345.1900000000001</ele>
        <time>2023-07-30T08:44:45Z</time>
      </trkpt>
      <trkpt lat="45.878840452060103" lon="7.965006586164236">
        <ele>2345.9400000000001</ele>
        <time>2023-07-30T08:44:56Z</time>
      </trkpt>
      <trkpt lat="45.878877667710185" lon="7.965066935867071">
        <ele>2347.75</ele>
        <time>2023-07-30T08:45:11Z</time>
      </trkpt>
      <trkpt lat="45.878887223079801" lon="7.965160058811307">
        <ele>2350.4099999999999</ele>
        <time>2023-07-30T08:45:27Z</time>
      </trkpt>
      <trkpt lat="45.878884624689817" lon="7.965256366878748">
        <ele>2351.27</ele>
        <time>2023-07-30T08:45:46Z</time>
      </trkpt>
      <trkpt lat="45.878933826461434" lon="7.965260893106461">
        <ele>2353.6399999999999</ele>
        <time>2023-07-30T08:46:00Z</time>
      </trkpt>
      <trkpt lat="45.878974897786975" lon="7.965266592800617">
        <ele>2355.7199999999998</ele>
        <time>2023-07-30T08:46:14Z</time>
      </trkpt>
      <trkpt lat="45.878964504227042" lon="7.96534638851881">
        <ele>2358.8899999999999</ele>
        <time>2023-07-30T08:46:29Z</time>
      </trkpt>
      <trkpt lat="45.878935502842069" lon="7.965410007163882">
        <ele>2362.04</ele>
        <time>2023-07-30T08:46:45Z</time>
      </trkpt>
      <trkpt lat="45.878930725157261" lon="7.965452168136835">
        <ele>2365.75</ele>
        <time>2023-07-30T08:46:58Z</time>
      </trkpt>
      <trkpt lat="45.878973556682467" lon="7.965421909466386">
        <ele>2369.4899999999998</ele>
        <time>2023-07-30T08:47:16Z</time>
      </trkpt>
      <trkpt lat="45.879011275246739" lon="7.965499777346849">
        <ele>2373.0999999999999</ele>
        <time>2023-07-30T08:47:34Z</time>
      </trkpt>
      <trkpt lat="45.879073468968272" lon="7.965478487312794">
        <ele>2376.3000000000002</ele>
        <time>2023-07-30T08:47:51Z</time>
      </trkpt>
      <trkpt lat="45.879131890833378" lon="7.965444540604949">
        <ele>2380.3800000000001</ele>
        <time>2023-07-30T08:48:06Z</time>
      </trkpt>
      <trkpt lat="45.879170279949903" lon="7.965480834245682">
        <ele>2383.5900000000001</ele>
        <time>2023-07-30T08:48:19Z</time>
      </trkpt>
      <trkpt lat="45.879182349890471" lon="7.965570269152522">
        <ele>2386.8000000000002</ele>
        <time>2023-07-30T08:48:34Z</time>
      </trkpt>
      <trkpt lat="45.879214033484459" lon="7.965608825907111">
        <ele>2390.0700000000002</ele>
        <time>2023-07-30T08:48:51Z</time>
      </trkpt>
      <trkpt lat="45.879243034869432" lon="7.96569331549108">
        <ele>2392.4200000000001</ele>
        <time>2023-07-30T08:49:09Z</time>
      </trkpt>
      <trkpt lat="45.879266336560249" lon="7.965769171714783">
        <ele>2393.9099999999999</ele>
        <time>2023-07-30T08:49:25Z</time>
      </trkpt>
      <trkpt lat="45.8793103415519" lon="7.965776044875383">
        <ele>2395.9200000000001</ele>
        <time>2023-07-30T08:49:41Z</time>
      </trkpt>
      <trkpt lat="45.879324926063418" lon="7.965763136744499">
        <ele>2397.5700000000002</ele>
        <time>2023-07-30T08:50:02Z</time>
      </trkpt>
      <trkpt lat="45.879370020702481" lon="7.965704631060362">
        <ele>2398.8600000000001</ele>
        <time>2023-07-30T08:50:18Z</time>
      </trkpt>
      <trkpt lat="45.879420731216669" lon="7.965624500066042">
        <ele>2401.7199999999998</ele>
        <time>2023-07-30T08:50:34Z</time>
      </trkpt>
      <trkpt lat="45.87946523912251" lon="7.965637240558863">
        <ele>2405.1300000000001</ele>
        <time>2023-07-30T08:50:50Z</time>
      </trkpt>
      <trkpt lat="45.879503125324845" lon="7.965623075142503">
        <ele>2407.9899999999998</ele>
        <time>2023-07-30T08:51:07Z</time>
      </trkpt>
      <trkpt lat="45.879552746191621" lon="7.965642018243671">
        <ele>2411.9699999999998</ele>
        <time>2023-07-30T08:51:25Z</time>
      </trkpt>
      <trkpt lat="45.879572443664074" lon="7.965713096782565">
        <ele>2415.5799999999999</ele>
        <time>2023-07-30T08:51:40Z</time>
      </trkpt>
      <trkpt lat="45.879582585766912" lon="7.965719047933817">
        <ele>2415.7800000000002</ele>
        <time>2023-07-30T08:52:03Z</time>
      </trkpt>
      <trkpt lat="45.879616951569915" lon="7.965709157288075">
        <ele>2417.8499999999999</ele>
        <time>2023-07-30T08:52:24Z</time>
      </trkpt>
      <trkpt lat="45.879654502496123" lon="7.965790964663029">
        <ele>2422.3600000000001</ele>
        <time>2023-07-30T08:52:41Z</time>
      </trkpt>
      <trkpt lat="45.879713511094451" lon="7.965857265517116">
        <ele>2426.0599999999999</ele>
        <time>2023-07-30T08:52:57Z</time>
      </trkpt>
      <trkpt lat="45.879760952666402" lon="7.965815858915448">
        <ele>2427.96</ele>
        <time>2023-07-30T08:53:13Z</time>
      </trkpt>
      <trkpt lat="45.879777716472745" lon="7.965720137581229">
        <ele>2429.7399999999998</ele>
        <time>2023-07-30T08:53:29Z</time>
      </trkpt>
      <trkpt lat="45.879836305975914" lon="7.965642018243671">
        <ele>2432.4200000000001</ele>
        <time>2023-07-30T08:53:45Z</time>
      </trkpt>
      <trkpt lat="45.879862289875746" lon="7.965586613863707">
        <ele>2434.8400000000001</ele>
        <time>2023-07-30T08:53:59Z</time>
      </trkpt>
      <trkpt lat="45.879907971248031" lon="7.965584602206945">
        <ele>2437.4499999999998</ele>
        <time>2023-07-30T08:54:13Z</time>
      </trkpt>
      <trkpt lat="45.87993873283267" lon="7.965528862550855">
        <ele>2440.2800000000002</ele>
        <time>2023-07-30T08:54:28Z</time>
      </trkpt>
      <trkpt lat="45.879978546872735" lon="7.965478403493762">
        <ele>2442.5</ele>
        <time>2023-07-30T08:54:44Z</time>
      </trkpt>
      <trkpt lat="45.880020372569561" lon="7.965465914458036">
        <ele>2444.8600000000001</ele>
        <time>2023-07-30T08:54:59Z</time>
      </trkpt>
      <trkpt lat="45.880068652331829" lon="7.965487372130156">
        <ele>2447.77</ele>
        <time>2023-07-30T08:55:14Z</time>
      </trkpt>
      <trkpt lat="45.880108047276735" lon="7.965486533939838">
        <ele>2450.2399999999998</ele>
        <time>2023-07-30T08:55:27Z</time>
      </trkpt>
      <trkpt lat="45.880143083631992" lon="7.965474715456367">
        <ele>2452.02</ele>
        <time>2023-07-30T08:55:40Z</time>
      </trkpt>
      <trkpt lat="45.88016152381897" lon="7.965474799275398">
        <ele>2453.3000000000002</ele>
        <time>2023-07-30T08:55:55Z</time>
      </trkpt>
      <trkpt lat="45.880156410858035" lon="7.965479409322143">
        <ele>2454.6100000000001</ele>
        <time>2023-07-30T08:56:27Z</time>
      </trkpt>
      <trkpt lat="45.880184657871723" lon="7.965482007712126">
        <ele>2456.1599999999999</ele>
        <time>2023-07-30T08:56:48Z</time>
      </trkpt>
      <trkpt lat="45.880205947905779" lon="7.965498436242342">
        <ele>2457.5599999999999</ele>
        <time>2023-07-30T08:57:08Z</time>
      </trkpt>
      <trkpt lat="45.880223130807281" lon="7.965500196442008">
        <ele>2458.4699999999998</ele>
        <time>2023-07-30T08:57:42Z</time>
      </trkpt>
      <trkpt lat="45.880259172990918" lon="7.965500615537167">
        <ele>2460.23</ele>
        <time>2023-07-30T08:57:54Z</time>
      </trkpt>
      <trkpt lat="45.880279038101435" lon="7.965455688536167">
        <ele>2462.29</ele>
        <time>2023-07-30T08:58:07Z</time>
      </trkpt>
      <trkpt lat="45.8802704885602" lon="7.965341778472066">
        <ele>2465.46</ele>
        <time>2023-07-30T08:58:22Z</time>
      </trkpt>
      <trkpt lat="45.880290940403938" lon="7.965252175927162">
        <ele>2467.3499999999999</ele>
        <time>2023-07-30T08:58:37Z</time>
      </trkpt>
      <trkpt lat="45.880309967324138" lon="7.965164836496115">
        <ele>2470.5700000000002</ele>
        <time>2023-07-30T08:58:52Z</time>
      </trkpt>
      <trkpt lat="45.88034332729876" lon="7.965134577825666">
        <ele>2472.6399999999999</ele>
        <time>2023-07-30T08:59:06Z</time>
      </trkpt>
      <trkpt lat="45.880400910973549" lon="7.965191910043359">
        <ele>2475.8400000000001</ele>
        <time>2023-07-30T08:59:22Z</time>
      </trkpt>
      <trkpt lat="45.880435612052679" lon="7.965197274461389">
        <ele>2478.2399999999998</ele>
        <time>2023-07-30T08:59:37Z</time>
      </trkpt>
      <trkpt lat="45.880454136058688" lon="7.96512158587575">
        <ele>2480.29</ele>
        <time>2023-07-30T08:59:52Z</time>
      </trkpt>
      <trkpt lat="45.880505768582225" lon="7.96516316011548">
        <ele>2483.79</ele>
        <time>2023-07-30T09:00:09Z</time>
      </trkpt>
      <trkpt lat="45.880559999495745" lon="7.965179001912475">
        <ele>2486.3600000000001</ele>
        <time>2023-07-30T09:00:24Z</time>
      </trkpt>
      <trkpt lat="45.880561340600252" lon="7.965115970000625">
        <ele>2488.2600000000002</ele>
        <time>2023-07-30T09:00:39Z</time>
      </trkpt>
      <trkpt lat="45.880590677261353" lon="7.965074647217989">
        <ele>2490.2399999999998</ele>
        <time>2023-07-30T09:00:54Z</time>
      </trkpt>
      <trkpt lat="45.880643064156175" lon="7.965091243386269">
        <ele>2493.2399999999998</ele>
        <time>2023-07-30T09:01:09Z</time>
      </trkpt>
      <trkpt lat="45.880658738315105" lon="7.965031564235687">
        <ele>2494.23</ele>
        <time>2023-07-30T09:01:21Z</time>
      </trkpt>
      <trkpt lat="45.880694780498743" lon="7.965015051886439">
        <ele>2496.8699999999999</ele>
        <time>2023-07-30T09:01:35Z</time>
      </trkpt>
      <trkpt lat="45.880714226514101" lon="7.964955121278763">
        <ele>2498.8099999999999</ele>
        <time>2023-07-30T09:01:48Z</time>
      </trkpt>
      <trkpt lat="45.88072688318789" lon="7.96493056230247">
        <ele>2500.3099999999999</ele>
        <time>2023-07-30T09:01:59Z</time>
      </trkpt>
      <trkpt lat="45.880721183493733" lon="7.964918743818998">
        <ele>2501.1900000000001</ele>
        <time>2023-07-30T09:02:17Z</time>
      </trkpt>
      <trkpt lat="45.880740294232965" lon="7.964895023033023">
        <ele>2503.04</ele>
        <time>2023-07-30T09:02:32Z</time>
      </trkpt>
      <trkpt lat="45.880753789097071" lon="7.96487876214087">
        <ele>2504.02</ele>
        <time>2023-07-30T09:02:51Z</time>
      </trkpt>
      <trkpt lat="45.880788825452328" lon="7.964775748550892">
        <ele>2505.7800000000002</ele>
        <time>2023-07-30T09:03:10Z</time>
      </trkpt>
      <trkpt lat="45.880819587036967" lon="7.964687403291464">
        <ele>2508.4099999999999</ele>
        <time>2023-07-30T09:03:24Z</time>
      </trkpt>
      <trkpt lat="45.880866274237633" lon="7.964726546779275">
        <ele>2512.1399999999999</ele>
        <time>2023-07-30T09:03:41Z</time>
      </trkpt>
      <trkpt lat="45.880905585363507" lon="7.964764935895801">
        <ele>2515.6399999999999</ele>
        <time>2023-07-30T09:03:55Z</time>
      </trkpt>
      <trkpt lat="45.880941627547145" lon="7.964767534285784">
        <ele>2517.7800000000002</ele>
        <time>2023-07-30T09:04:10Z</time>
      </trkpt>
      <trkpt lat="45.880969036370516" lon="7.964708358049393">
        <ele>2519.8800000000001</ele>
        <time>2023-07-30T09:04:24Z</time>
      </trkpt>
      <trkpt lat="45.881002061069012" lon="7.964686062186956">
        <ele>2522.3400000000001</ele>
        <time>2023-07-30T09:04:41Z</time>
      </trkpt>
      <trkpt lat="45.8810527715832" lon="7.964763594791293">
        <ele>2525.0999999999999</ele>
        <time>2023-07-30T09:04:57Z</time>
      </trkpt>
      <trkpt lat="45.881087556481361" lon="7.96481573022902">
        <ele>2527.3899999999999</ele>
        <time>2023-07-30T09:05:14Z</time>
      </trkpt>
      <trkpt lat="45.881121251732111" lon="7.964743059128523">
        <ele>2530.3699999999999</ele>
        <time>2023-07-30T09:05:31Z</time>
      </trkpt>
      <trkpt lat="45.88114270940423" lon="7.964696288108826">
        <ele>2532.6399999999999</ele>
        <time>2023-07-30T09:05:45Z</time>
      </trkpt>
      <trkpt lat="45.881140613928437" lon="7.964692348614335">
        <ele>2531.5500000000002</ele>
        <time>2023-07-30T09:06:03Z</time>
      </trkpt>
      <trkpt lat="45.881195263937116" lon="7.964613223448396">
        <ele>2531.9400000000001</ele>
        <time>2023-07-30T09:06:20Z</time>
      </trkpt>
      <trkpt lat="45.881229545921087" lon="7.964678015559912">
        <ele>2535.0799999999999</ele>
        <time>2023-07-30T09:06:35Z</time>
      </trkpt>
      <trkpt lat="45.881274053826928" lon="7.964629651978612">
        <ele>2537.6300000000001</ele>
        <time>2023-07-30T09:06:51Z</time>
      </trkpt>
      <trkpt lat="45.881311520934105" lon="7.964566703885794">
        <ele>2540.1799999999998</ele>
        <time>2023-07-30T09:07:05Z</time>
      </trkpt>
      <trkpt lat="45.881342114880681" lon="7.96457776799798">
        <ele>2541.3600000000001</ele>
        <time>2023-07-30T09:07:19Z</time>
      </trkpt>
      <trkpt lat="45.881389388814569" lon="7.964656474068761">
        <ele>2542.04</ele>
        <time>2023-07-30T09:07:35Z</time>
      </trkpt>
      <trkpt lat="45.881396094337106" lon="7.964636944234371">
        <ele>2545.46</ele>
        <time>2023-07-30T09:07:54Z</time>
      </trkpt>
      <trkpt lat="45.881399111822248" lon="7.96464373357594">
        <ele>2547.1500000000001</ele>
        <time>2023-07-30T09:08:14Z</time>
      </trkpt>
      <trkpt lat="45.881388215348125" lon="7.964638788253069">
        <ele>2550.5500000000002</ele>
        <time>2023-07-30T09:08:46Z</time>
      </trkpt>
      <trkpt lat="45.881410846486688" lon="7.964586988091469">
        <ele>2551.9699999999998</ele>
        <time>2023-07-30T09:09:16Z</time>
      </trkpt>
      <trkpt lat="45.881430376321077" lon="7.96448539942503">
        <ele>2553.1900000000001</ele>
        <time>2023-07-30T09:09:32Z</time>
      </trkpt>
      <trkpt lat="45.881473291665316" lon="7.964404262602329">
        <ele>2556.0700000000002</ele>
        <time>2023-07-30T09:09:50Z</time>
      </trkpt>
      <trkpt lat="45.88150723837316" lon="7.964354557916522">
        <ele>2558.1799999999998</ele>
        <time>2023-07-30T09:10:08Z</time>
      </trkpt>
      <trkpt lat="45.881554763764143" lon="7.9643988981843">
        <ele>2561.8200000000002</ele>
        <time>2023-07-30T09:10:27Z</time>
      </trkpt>
      <trkpt lat="45.881597260013223" lon="7.964372662827373">
        <ele>2563.0500000000002</ele>
        <time>2023-07-30T09:10:40Z</time>
      </trkpt>
      <trkpt lat="45.881617041304708" lon="7.964352043345571">
        <ele>2564.9699999999998</ele>
        <time>2023-07-30T09:11:00Z</time>
      </trkpt>
      <trkpt lat="45.881627351045609" lon="7.964345002546907">
        <ele>2565.5599999999999</ele>
        <time>2023-07-30T09:11:21Z</time>
      </trkpt>
      <trkpt lat="45.881654508411884" lon="7.964323544874787">
        <ele>2567.6999999999998</ele>
        <time>2023-07-30T09:11:38Z</time>
      </trkpt>
      <trkpt lat="45.881696166470647" lon="7.964355479925871">
        <ele>2571.9400000000001</ele>
        <time>2023-07-30T09:11:52Z</time>
      </trkpt>
      <trkpt lat="45.881731789559126" lon="7.964393869042397">
        <ele>2575.3600000000001</ele>
        <time>2023-07-30T09:12:06Z</time>
      </trkpt>
      <trkpt lat="45.88176959194243" lon="7.964361682534218">
        <ele>2578.5300000000002</ele>
        <time>2023-07-30T09:12:21Z</time>
      </trkpt>
      <trkpt lat="45.881807310506701" lon="7.964319521561265">
        <ele>2581.3200000000002</ele>
        <time>2023-07-30T09:12:34Z</time>
      </trkpt>
      <trkpt lat="45.881843017414212" lon="7.964367214590311">
        <ele>2584.0999999999999</ele>
        <time>2023-07-30T09:12:50Z</time>
      </trkpt>
      <trkpt lat="45.881887776777148" lon="7.964383056387305">
        <ele>2586.8400000000001</ele>
        <time>2023-07-30T09:13:05Z</time>
      </trkpt>
      <trkpt lat="45.881900265812874" lon="7.964306026697159">
        <ele>2587.8400000000001</ele>
        <time>2023-07-30T09:13:20Z</time>
      </trkpt>
      <trkpt lat="45.881934380158782" lon="7.964213406667113">
        <ele>2588.2600000000002</ele>
        <time>2023-07-30T09:13:37Z</time>
      </trkpt>
      <trkpt lat="45.881956508383155" lon="7.964227572083473">
        <ele>2589.4000000000001</ele>
        <time>2023-07-30T09:13:52Z</time>
      </trkpt>
      <trkpt lat="45.881977211683989" lon="7.964237798005343">
        <ele>2591.6799999999998</ele>
        <time>2023-07-30T09:14:09Z</time>
      </trkpt>
      <trkpt lat="45.881977714598179" lon="7.964247521013022">
        <ele>2593.3400000000001</ele>
        <time>2023-07-30T09:14:28Z</time>
      </trkpt>
      <trkpt lat="45.881993556395173" lon="7.964234445244074">
        <ele>2596.2399999999998</ele>
        <time>2023-07-30T09:15:04Z</time>
      </trkpt>
      <trkpt lat="45.882060192525387" lon="7.964280797168613">
        <ele>2596.6300000000001</ele>
        <time>2023-07-30T09:15:19Z</time>
      </trkpt>
      <trkpt lat="45.882140072062612" lon="7.96430510468781">
        <ele>2595.1300000000001</ele>
        <time>2023-07-30T09:15:32Z</time>
      </trkpt>
      <trkpt lat="45.882167732343078" lon="7.964342990890145">
        <ele>2598.4000000000001</ele>
        <time>2023-07-30T09:15:46Z</time>
      </trkpt>
      <trkpt lat="45.882210982963443" lon="7.964327484369278">
        <ele>2600.8200000000002</ele>
        <time>2023-07-30T09:16:00Z</time>
      </trkpt>
      <trkpt lat="45.882234200835228" lon="7.964372243732214">
        <ele>2604.48</ele>
        <time>2023-07-30T09:16:17Z</time>
      </trkpt>
      <trkpt lat="45.882253646850586" lon="7.964346427470446">
        <ele>2607.5100000000002</ele>
        <time>2023-07-30T09:16:32Z</time>
      </trkpt>
      <trkpt lat="45.882266387343407" lon="7.964358497411013">
        <ele>2609.4499999999998</ele>
        <time>2023-07-30T09:16:46Z</time>
      </trkpt>
      <trkpt lat="45.882303854450583" lon="7.96436176635325">
        <ele>2609.9499999999998</ele>
        <time>2023-07-30T09:17:00Z</time>
      </trkpt>
      <trkpt lat="45.882328832522035" lon="7.964365622028709">
        <ele>2612.04</ele>
        <time>2023-07-30T09:17:17Z</time>
      </trkpt>
      <trkpt lat="45.882344758138061" lon="7.964344248175621">
        <ele>2613.5999999999999</ele>
        <time>2023-07-30T09:17:33Z</time>
      </trkpt>
      <trkpt lat="45.882339226081967" lon="7.964264117181301">
        <ele>2618.0500000000002</ele>
        <time>2023-07-30T09:17:49Z</time>
      </trkpt>
      <trkpt lat="45.882356241345406" lon="7.96420393511653">
        <ele>2629.71</ele>
        <time>2023-07-30T09:20:33Z</time>
      </trkpt>
      <trkpt lat="45.88234911672771" lon="7.964177699759603">
        <ele>2630.75</ele>
        <time>2023-07-30T09:20:56Z</time>
      </trkpt>
      <trkpt lat="45.882349535822868" lon="7.964163282886148">
        <ele>2630.9899999999998</ele>
        <time>2023-07-30T09:21:22Z</time>
      </trkpt>
      <trkpt lat="45.882388176396489" lon="7.964113829657435">
        <ele>2629.77</ele>
        <time>2023-07-30T09:21:37Z</time>
      </trkpt>
      <trkpt lat="45.882415249943733" lon="7.964081726968288">
        <ele>2631.3600000000001</ele>
        <time>2023-07-30T09:21:52Z</time>
      </trkpt>
      <trkpt lat="45.882466714829206" lon="7.964056162163615">
        <ele>2632.5</ele>
        <time>2023-07-30T09:22:08Z</time>
      </trkpt>
      <trkpt lat="45.882500745356083" lon="7.964093210175633">
        <ele>2636.5300000000002</ele>
        <time>2023-07-30T09:22:37Z</time>
      </trkpt>
      <trkpt lat="45.882551120594144" lon="7.964142328128219">
        <ele>2637.4499999999998</ele>
        <time>2023-07-30T09:22:54Z</time>
      </trkpt>
      <trkpt lat="45.882594538852572" lon="7.964136712253094">
        <ele>2638.46</ele>
        <time>2023-07-30T09:23:10Z</time>
      </trkpt>
      <trkpt lat="45.882614655420184" lon="7.964063622057438">
        <ele>2642.3400000000001</ele>
        <time>2023-07-30T09:23:26Z</time>
      </trkpt>
      <trkpt lat="45.882599987089634" lon="7.96399581246078">
        <ele>2645.4400000000001</ele>
        <time>2023-07-30T09:23:39Z</time>
      </trkpt>
      <trkpt lat="45.882604848593473" lon="7.963911658152938">
        <ele>2648.9000000000001</ele>
        <time>2023-07-30T09:23:53Z</time>
      </trkpt>
      <trkpt lat="45.882653295993805" lon="7.963908640667796">
        <ele>2650.1100000000001</ele>
        <time>2023-07-30T09:24:07Z</time>
      </trkpt>
      <trkpt lat="45.882695121690631" lon="7.963926075026393">
        <ele>2650.9000000000001</ele>
        <time>2023-07-30T09:24:24Z</time>
      </trkpt>
      <trkpt lat="45.882724290713668" lon="7.963947113603354">
        <ele>2655.1300000000001</ele>
        <time>2023-07-30T09:24:42Z</time>
      </trkpt>
      <trkpt lat="45.882724542170763" lon="7.963971253484488">
        <ele>2659.79</ele>
        <time>2023-07-30T09:24:56Z</time>
      </trkpt>
      <trkpt lat="45.882719680666924" lon="7.964011989533901">
        <ele>2665.96</ele>
        <time>2023-07-30T09:26:12Z</time>
      </trkpt>
      <trkpt lat="45.882741222158074" lon="7.964033614844084">
        <ele>2670.0100000000002</ele>
        <time>2023-07-30T09:29:31Z</time>
      </trkpt>
      <trkpt lat="45.882806433364749" lon="7.964080385863781">
        <ele>2668.0700000000002</ele>
        <time>2023-07-30T09:29:44Z</time>
      </trkpt>
      <trkpt lat="45.88283090852201" lon="7.964032022282481">
        <ele>2668.9200000000001</ele>
        <time>2023-07-30T09:29:56Z</time>
      </trkpt>
      <trkpt lat="45.882840128615499" lon="7.964031351730228">
        <ele>2668.7600000000002</ele>
        <time>2023-07-30T09:29:57Z</time>
      </trkpt>
      <trkpt lat="45.882865358144045" lon="7.964001595973969">
        <ele>2668.77</ele>
        <time>2023-07-30T09:30:12Z</time>
      </trkpt>
      <trkpt lat="45.882868962362409" lon="7.963913669809699">
        <ele>2670.4000000000001</ele>
        <time>2023-07-30T09:30:28Z</time>
      </trkpt>
      <trkpt lat="45.882871812209487" lon="7.963834879919887">
        <ele>2673.5500000000002</ele>
        <time>2023-07-30T09:30:46Z</time>
      </trkpt>
      <trkpt lat="45.88286804035306" lon="7.963765729218721">
        <ele>2676.0900000000001</ele>
        <time>2023-07-30T09:31:01Z</time>
      </trkpt>
      <trkpt lat="45.882879691198468" lon="7.9636718519032">
        <ele>2680.5599999999999</ele>
        <time>2023-07-30T09:31:17Z</time>
      </trkpt>
      <trkpt lat="45.88290274143219" lon="7.963628098368645">
        <ele>2683.96</ele>
        <time>2023-07-30T09:31:33Z</time>
      </trkpt>
      <trkpt lat="45.882944567129016" lon="7.963626254349947">
        <ele>2686.27</ele>
        <time>2023-07-30T09:31:46Z</time>
      </trkpt>
      <trkpt lat="45.88298236951232" lon="7.963604377582669">
        <ele>2688.1999999999998</ele>
        <time>2023-07-30T09:32:01Z</time>
      </trkpt>
      <trkpt lat="45.88302687741816" lon="7.963561713695526">
        <ele>2691.7800000000002</ele>
        <time>2023-07-30T09:32:16Z</time>
      </trkpt>
      <trkpt lat="45.883065601810813" lon="7.963574705645442">
        <ele>2694.48</ele>
        <time>2023-07-30T09:32:32Z</time>
      </trkpt>
      <trkpt lat="45.883103907108307" lon="7.963524078950286">
        <ele>2698.5700000000002</ele>
        <time>2023-07-30T09:32:49Z</time>
      </trkpt>
      <trkpt lat="45.883132992312312" lon="7.963522570207715">
        <ele>2700.6199999999999</ele>
        <time>2023-07-30T09:33:03Z</time>
      </trkpt>
      <trkpt lat="45.883161993697286" lon="7.963537406176329">
        <ele>2703.5799999999999</ele>
        <time>2023-07-30T09:33:19Z</time>
      </trkpt>
      <trkpt lat="45.883213374763727" lon="7.963513853028417">
        <ele>2706.0100000000002</ele>
        <time>2023-07-30T09:33:35Z</time>
      </trkpt>
      <trkpt lat="45.883233156055212" lon="7.963552745059133">
        <ele>2709.5799999999999</ele>
        <time>2023-07-30T09:33:49Z</time>
      </trkpt>
      <trkpt lat="45.8832838665694" lon="7.96353455632925">
        <ele>2712.0599999999999</ele>
        <time>2023-07-30T09:34:03Z</time>
      </trkpt>
      <trkpt lat="45.883308174088597" lon="7.963551403954625">
        <ele>2714.0799999999999</ele>
        <time>2023-07-30T09:34:20Z</time>
      </trkpt>
      <trkpt lat="45.883318651467562" lon="7.963580321520567">
        <ele>2716.1399999999999</ele>
        <time>2023-07-30T09:34:35Z</time>
      </trkpt>
      <trkpt lat="45.883338768035173" lon="7.963589122518897">
        <ele>2717.4899999999998</ele>
        <time>2023-07-30T09:34:50Z</time>
      </trkpt>
      <trkpt lat="45.883364584296942" lon="7.963608149439097">
        <ele>2718.9899999999998</ele>
        <time>2023-07-30T09:35:02Z</time>
      </trkpt>
      <trkpt lat="45.883389813825488" lon="7.963636144995689">
        <ele>2720.3200000000002</ele>
        <time>2023-07-30T09:35:17Z</time>
      </trkpt>
      <trkpt lat="45.883389478549361" lon="7.963658189401031">
        <ele>2724.4299999999998</ele>
        <time>2023-07-30T09:35:53Z</time>
      </trkpt>
      <trkpt lat="45.883400375023484" lon="7.96366355381906">
        <ele>2725.6999999999998</ele>
        <time>2023-07-30T09:36:09Z</time>
      </trkpt>
      <trkpt lat="45.883406242355704" lon="7.963668582960963">
        <ele>2727.6399999999999</ele>
        <time>2023-07-30T09:36:27Z</time>
      </trkpt>
      <trkpt lat="45.883413618430495" lon="7.963688112795353">
        <ele>2729.3499999999999</ele>
        <time>2023-07-30T09:36:41Z</time>
      </trkpt>
      <trkpt lat="45.883410600945354" lon="7.963700769469142">
        <ele>2730.6199999999999</ele>
        <time>2023-07-30T09:36:58Z</time>
      </trkpt>
      <trkpt lat="45.883431807160378" lon="7.963720047846437">
        <ele>2730.6100000000001</ele>
        <time>2023-07-30T09:37:17Z</time>
      </trkpt>
      <trkpt lat="45.883425017818809" lon="7.963734213262796">
        <ele>2732.8499999999999</ele>
        <time>2023-07-30T09:37:34Z</time>
      </trkpt>
      <trkpt lat="45.883453516289592" lon="7.963744690641761">
        <ele>2737.46</ele>
        <time>2023-07-30T09:38:55Z</time>
      </trkpt>
      <trkpt lat="45.883494168519974" lon="7.963817361742258">
        <ele>2738.8200000000002</ele>
        <time>2023-07-30T09:39:10Z</time>
      </trkpt>
      <trkpt lat="45.883536413311958" lon="7.963845441117883">
        <ele>2739.73</ele>
        <time>2023-07-30T09:39:27Z</time>
      </trkpt>
      <trkpt lat="45.883577400818467" lon="7.963859774172306">
        <ele>2742.52</ele>
        <time>2023-07-30T09:39:43Z</time>
      </trkpt>
      <trkpt lat="45.883614532649517" lon="7.96390101313591">
        <ele>2744.23</ele>
        <time>2023-07-30T09:39:59Z</time>
      </trkpt>
      <trkpt lat="45.883647724986076" lon="7.963946778327227">
        <ele>2745.8499999999999</ele>
        <time>2023-07-30T09:40:13Z</time>
      </trkpt>
      <trkpt lat="45.883682845160365" lon="7.963980892673135">
        <ele>2748.77</ele>
        <time>2023-07-30T09:40:27Z</time>
      </trkpt>
      <trkpt lat="45.883718049153686" lon="7.963976114988327">
        <ele>2751.5599999999999</ele>
        <time>2023-07-30T09:40:42Z</time>
      </trkpt>
      <trkpt lat="45.883760880678892" lon="7.964017521589994">
        <ele>2754.02</ele>
        <time>2023-07-30T09:40:59Z</time>
      </trkpt>
      <trkpt lat="45.883761635050178" lon="7.964018024504185">
        <ele>2753.9699999999998</ele>
        <time>2023-07-30T09:41:00Z</time>
      </trkpt>
      <trkpt lat="45.883772280067205" lon="7.964020622894168">
        <ele>2755.5700000000002</ele>
        <time>2023-07-30T09:41:09Z</time>
      </trkpt>
      <trkpt lat="45.883778398856521" lon="7.964029340073466">
        <ele>2757.1599999999999</ele>
        <time>2023-07-30T09:41:24Z</time>
      </trkpt>
      <trkpt lat="45.883794659748673" lon="7.963950047269464">
        <ele>2760.25</ele>
        <time>2023-07-30T09:41:40Z</time>
      </trkpt>
      <trkpt lat="45.883827265352011" lon="7.963904868811369">
        <ele>2761.4299999999998</ele>
        <time>2023-07-30T09:41:49Z</time>
      </trkpt>
      <trkpt lat="45.883862134069204" lon="7.963872095569968">
        <ele>2762.3600000000001</ele>
        <time>2023-07-30T09:42:02Z</time>
      </trkpt>
      <trkpt lat="45.883874287828803" lon="7.96382574364543">
        <ele>2765.0999999999999</ele>
        <time>2023-07-30T09:42:17Z</time>
      </trkpt>
      <trkpt lat="45.883897170424461" lon="7.96382088214159">
        <ele>2767.48</ele>
        <time>2023-07-30T09:42:29Z</time>
      </trkpt>
      <trkpt lat="45.883916532620788" lon="7.963759610429406">
        <ele>2769.0599999999999</ele>
        <time>2023-07-30T09:42:42Z</time>
      </trkpt>
      <trkpt lat="45.883932122960687" lon="7.963700434193015">
        <ele>2771.9000000000001</ele>
        <time>2023-07-30T09:43:00Z</time>
      </trkpt>
      <trkpt lat="45.883952993899584" lon="7.963682664558291">
        <ele>2772.73</ele>
        <time>2023-07-30T09:43:13Z</time>
      </trkpt>
      <trkpt lat="45.883999262005091" lon="7.963674617931247">
        <ele>2774.2399999999998</ele>
        <time>2023-07-30T09:43:31Z</time>
      </trkpt>
      <trkpt lat="45.884029688313603" lon="7.963645281270146">
        <ele>2776.2600000000002</ele>
        <time>2023-07-30T09:43:44Z</time>
      </trkpt>
      <trkpt lat="45.884079476818442" lon="7.963630361482501">
        <ele>2777.5999999999999</ele>
        <time>2023-07-30T09:43:57Z</time>
      </trkpt>
      <trkpt lat="45.884076794609427" lon="7.963607562705874">
        <ele>2778.4699999999998</ele>
        <time>2023-07-30T09:44:01Z</time>
      </trkpt>
      <trkpt lat="45.884105795994401" lon="7.963535059243441">
        <ele>2780.5900000000001</ele>
        <time>2023-07-30T09:44:13Z</time>
      </trkpt>
      <trkpt lat="45.884101521223783" lon="7.963482839986682">
        <ele>2788.96</ele>
        <time>2023-07-30T09:44:44Z</time>
      </trkpt>
      <trkpt lat="45.884138569235802" lon="7.963445540517569">
        <ele>2790.6599999999999</ele>
        <time>2023-07-30T09:44:59Z</time>
      </trkpt>
      <trkpt lat="45.88417804799974" lon="7.963489629328251">
        <ele>2792.6599999999999</ele>
        <time>2023-07-30T09:45:14Z</time>
      </trkpt>
      <trkpt lat="45.884196739643812" lon="7.963509159162641">
        <ele>2794.1399999999999</ele>
        <time>2023-07-30T09:45:28Z</time>
      </trkpt>
      <trkpt lat="45.884222639724612" lon="7.963467668741942">
        <ele>2796.1599999999999</ele>
        <time>2023-07-30T09:45:42Z</time>
      </trkpt>
      <trkpt lat="45.884231440722942" lon="7.963415533304215">
        <ele>2797.4000000000001</ele>
        <time>2023-07-30T09:45:56Z</time>
      </trkpt>
      <trkpt lat="45.884296651929617" lon="7.963428692892194">
        <ele>2797.1599999999999</ele>
        <time>2023-07-30T09:46:11Z</time>
      </trkpt>
      <trkpt lat="45.884314253926277" lon="7.963251499459148">
        <ele>2807.6300000000001</ele>
        <time>2023-07-30T09:47:30Z</time>
      </trkpt>
      <trkpt lat="45.88430461473763" lon="7.963266419246793">
        <ele>2809.9699999999998</ele>
        <time>2023-07-30T09:48:10Z</time>
      </trkpt>
      <trkpt lat="45.884300172328949" lon="7.963268598541617">
        <ele>2811.46</ele>
        <time>2023-07-30T09:48:57Z</time>
      </trkpt>
      <trkpt lat="45.884313834831119" lon="7.963249403983355">
        <ele>2813.6300000000001</ele>
        <time>2023-07-30T10:09:33Z</time>
      </trkpt>
      <trkpt lat="45.884259520098567" lon="7.963319811969996">
        <ele>2814.1700000000001</ele>
        <time>2023-07-30T10:10:30Z</time>
      </trkpt>
      <trkpt lat="45.884245606139302" lon="7.963417544960976">
        <ele>2809.6999999999998</ele>
        <time>2023-07-30T10:10:44Z</time>
      </trkpt>
      <trkpt lat="45.884202690795064" lon="7.963433302938938">
        <ele>2807.0500000000002</ele>
        <time>2023-07-30T10:10:57Z</time>
      </trkpt>
      <trkpt lat="45.884162960574031" lon="7.963432548567653">
        <ele>2803.9899999999998</ele>
        <time>2023-07-30T10:11:10Z</time>
      </trkpt>
      <trkpt lat="45.884145693853498" lon="7.963491473346949">
        <ele>2802.3800000000001</ele>
        <time>2023-07-30T10:11:23Z</time>
      </trkpt>
      <trkpt lat="45.884120045229793" lon="7.963547296822071">
        <ele>2798.9699999999998</ele>
        <time>2023-07-30T10:12:00Z</time>
      </trkpt>
      <trkpt lat="45.884104203432798" lon="7.963522151112557">
        <ele>2796.7800000000002</ele>
        <time>2023-07-30T10:12:17Z</time>
      </trkpt>
      <trkpt lat="45.884045278653502" lon="7.963582333177328">
        <ele>2794.5799999999999</ele>
        <time>2023-07-30T10:12:31Z</time>
      </trkpt>
      <trkpt lat="45.884008733555675" lon="7.963696410879493">
        <ele>2792.9200000000001</ele>
        <time>2023-07-30T10:12:45Z</time>
      </trkpt>
      <trkpt lat="45.883998507633805" lon="7.963683167472482">
        <ele>2790.23</ele>
        <time>2023-07-30T10:12:59Z</time>
      </trkpt>
      <trkpt lat="45.883963638916612" lon="7.963660368695855">
        <ele>2786.8699999999999</ele>
        <time>2023-07-30T10:13:13Z</time>
      </trkpt>
      <trkpt lat="45.883927093818784" lon="7.963665900751948">
        <ele>2784.4499999999998</ele>
        <time>2023-07-30T10:13:27Z</time>
      </trkpt>
      <trkpt lat="45.883898930624127" lon="7.963720466941595">
        <ele>2783.5700000000002</ele>
        <time>2023-07-30T10:13:39Z</time>
      </trkpt>
      <trkpt lat="45.883874706923962" lon="7.963813589885831">
        <ele>2781.1199999999999</ele>
        <time>2023-07-30T10:13:53Z</time>
      </trkpt>
      <trkpt lat="45.883847130462527" lon="7.963871173560619">
        <ele>2779.71</ele>
        <time>2023-07-30T10:14:08Z</time>
      </trkpt>
      <trkpt lat="45.883856602013111" lon="7.963931104168296">
        <ele>2773.7800000000002</ele>
        <time>2023-07-30T10:14:46Z</time>
      </trkpt>
      <trkpt lat="45.883812345564365" lon="7.963963877409697">
        <ele>2773.5799999999999</ele>
        <time>2023-07-30T10:15:00Z</time>
      </trkpt>
      <trkpt lat="45.883773034438491" lon="7.964028669521213">
        <ele>2771.9000000000001</ele>
        <time>2023-07-30T10:15:13Z</time>
      </trkpt>
      <trkpt lat="45.883729783818126" lon="7.964040655642748">
        <ele>2767.1799999999998</ele>
        <time>2023-07-30T10:15:29Z</time>
      </trkpt>
      <trkpt lat="45.883684018626809" lon="7.964017270132899">
        <ele>2762.73</ele>
        <time>2023-07-30T10:15:45Z</time>
      </trkpt>
      <trkpt lat="45.883653927594423" lon="7.963958512991667">
        <ele>2757.23</ele>
        <time>2023-07-30T10:15:58Z</time>
      </trkpt>
      <trkpt lat="45.883611934259534" lon="7.96390444971621">
        <ele>2753.9099999999999</ele>
        <time>2023-07-30T10:16:13Z</time>
      </trkpt>
      <trkpt lat="45.883572036400437" lon="7.963857594877482">
        <ele>2751.75</ele>
        <time>2023-07-30T10:16:35Z</time>
      </trkpt>
      <trkpt lat="45.883536832407117" lon="7.963865557685494">
        <ele>2750.3899999999999</ele>
        <time>2023-07-30T10:16:48Z</time>
      </trkpt>
      <trkpt lat="45.883498778566718" lon="7.963815266266465">
        <ele>2747.5900000000001</ele>
        <time>2023-07-30T10:17:02Z</time>
      </trkpt>
      <trkpt lat="45.883468352258205" lon="7.963759945705533">
        <ele>2743.75</ele>
        <time>2023-07-30T10:17:15Z</time>
      </trkpt>
      <trkpt lat="45.883444212377071" lon="7.963740834966302">
        <ele>2741.3299999999999</ele>
        <time>2023-07-30T10:17:21Z</time>
      </trkpt>
      <trkpt lat="45.883407332003117" lon="7.963674534112215">
        <ele>2738.3400000000001</ele>
        <time>2023-07-30T10:17:35Z</time>
      </trkpt>
      <trkpt lat="45.883402302861214" lon="7.96364301815629">
        <ele>2737.6199999999999</ele>
        <time>2023-07-30T10:17:50Z</time>
      </trkpt>
      <trkpt lat="45.883408086374402" lon="7.963641174137592">
        <ele>2737.3600000000001</ele>
        <time>2023-07-30T10:18:13Z</time>
      </trkpt>
      <trkpt lat="45.883370451629162" lon="7.963610999286175">
        <ele>2735.1700000000001</ele>
        <time>2023-07-30T10:18:31Z</time>
      </trkpt>
      <trkpt lat="45.883323345333338" lon="7.963597001507878">
        <ele>2732</ele>
        <time>2023-07-30T10:18:44Z</time>
      </trkpt>
      <trkpt lat="45.883287722244859" lon="7.963563976809382">
        <ele>2728.23</ele>
        <time>2023-07-30T10:18:58Z</time>
      </trkpt>
      <trkpt lat="45.883234916254878" lon="7.963546877726913">
        <ele>2723.23</ele>
        <time>2023-07-30T10:19:13Z</time>
      </trkpt>
      <trkpt lat="45.883186887949705" lon="7.963565401732922">
        <ele>2719.7800000000002</ele>
        <time>2023-07-30T10:19:29Z</time>
      </trkpt>
      <trkpt lat="45.883133159950376" lon="7.963551403954625">
        <ele>2716</ele>
        <time>2023-07-30T10:19:45Z</time>
      </trkpt>
      <trkpt lat="45.883083119988441" lon="7.963620135560632">
        <ele>2713.1799999999998</ele>
        <time>2023-07-30T10:20:01Z</time>
      </trkpt>
      <trkpt lat="45.88306400924921" lon="7.963588451966643">
        <ele>2711.0900000000001</ele>
        <time>2023-07-30T10:20:14Z</time>
      </trkpt>
      <trkpt lat="45.882994355633855" lon="7.963652154430747">
        <ele>2708.4000000000001</ele>
        <time>2023-07-30T10:20:27Z</time>
      </trkpt>
      <trkpt lat="45.882931742817163" lon="7.963747791945934">
        <ele>2706.1900000000001</ele>
        <time>2023-07-30T10:20:41Z</time>
      </trkpt>
      <trkpt lat="45.88287734426558" lon="7.963824402540922">
        <ele>2704.46</ele>
        <time>2023-07-30T10:20:59Z</time>
      </trkpt>
      <trkpt lat="45.882872650399804" lon="7.963889446109533">
        <ele>2702.9499999999998</ele>
        <time>2023-07-30T10:21:10Z</time>
      </trkpt>
      <trkpt lat="45.882866280153394" lon="7.963933032006025">
        <ele>2703.2600000000002</ele>
        <time>2023-07-30T10:21:14Z</time>
      </trkpt>
      <trkpt lat="45.882843732833862" lon="7.963983239606023">
        <ele>2699.6900000000001</ele>
        <time>2023-07-30T10:21:30Z</time>
      </trkpt>
      <trkpt lat="45.882795453071594" lon="7.963956417515874">
        <ele>2700.8800000000001</ele>
        <time>2023-07-30T10:21:43Z</time>
      </trkpt>
      <trkpt lat="45.882820850238204" lon="7.964042080566287">
        <ele>2695.5799999999999</ele>
        <time>2023-07-30T10:21:56Z</time>
      </trkpt>
      <trkpt lat="45.882865358144045" lon="7.964047780260444">
        <ele>2692</ele>
        <time>2023-07-30T10:22:15Z</time>
      </trkpt>
      <trkpt lat="45.882883882150054" lon="7.964068902656436">
        <ele>2690.1500000000001</ele>
        <time>2023-07-30T10:22:44Z</time>
      </trkpt>
      <trkpt lat="45.882848426699638" lon="7.964118188247085">
        <ele>2688.9899999999998</ele>
        <time>2023-07-30T10:22:58Z</time>
      </trkpt>
      <trkpt lat="45.882832668721676" lon="7.964142998680472">
        <ele>2688.1599999999999</ele>
        <time>2023-07-30T10:23:11Z</time>
      </trkpt>
      <trkpt lat="45.88280450552702" lon="7.964099664241076">
        <ele>2685.8099999999999</ele>
        <time>2023-07-30T10:23:28Z</time>
      </trkpt>
      <trkpt lat="45.882761422544718" lon="7.964034117758274">
        <ele>2681.48</ele>
        <time>2023-07-30T10:23:43Z</time>
      </trkpt>
      <trkpt lat="45.882741222158074" lon="7.964006960391998">
        <ele>2678.46</ele>
        <time>2023-07-30T10:23:58Z</time>
      </trkpt>
      <trkpt lat="45.882710963487625" lon="7.963960021734238">
        <ele>2677.6700000000001</ele>
        <time>2023-07-30T10:24:13Z</time>
      </trkpt>
      <trkpt lat="45.882711969316006" lon="7.963948706164956">
        <ele>2677.8200000000002</ele>
        <time>2023-07-30T10:24:30Z</time>
      </trkpt>
      <trkpt lat="45.882712556049228" lon="7.96393521130085">
        <ele>2677.9499999999998</ele>
        <time>2023-07-30T10:24:47Z</time>
      </trkpt>
      <trkpt lat="45.882706604897976" lon="7.963929595425725">
        <ele>2678.3000000000002</ele>
        <time>2023-07-30T10:25:03Z</time>
      </trkpt>
      <trkpt lat="45.882704257965088" lon="7.963917357847095">
        <ele>2678.8299999999999</ele>
        <time>2023-07-30T10:25:19Z</time>
      </trkpt>
      <trkpt lat="45.882703168317676" lon="7.963926075026393">
        <ele>2678.9000000000001</ele>
        <time>2023-07-30T10:25:33Z</time>
      </trkpt>
      <trkpt lat="45.882692607119679" lon="7.963893469423056">
        <ele>2677.4099999999999</ele>
        <time>2023-07-30T10:25:49Z</time>
      </trkpt>
      <trkpt lat="45.882650194689631" lon="7.963918279856443">
        <ele>2672.4000000000001</ele>
        <time>2023-07-30T10:26:04Z</time>
      </trkpt>
      <trkpt lat="45.882606944069266" lon="7.963953902944922">
        <ele>2670.3600000000001</ele>
        <time>2023-07-30T10:26:19Z</time>
      </trkpt>
      <trkpt lat="45.882576098665595" lon="7.964006708934903">
        <ele>2670.2199999999998</ele>
        <time>2023-07-30T10:26:35Z</time>
      </trkpt>
      <trkpt lat="45.882577523589134" lon="7.964113997295499">
        <ele>2670.3200000000002</ele>
        <time>2023-07-30T10:26:46Z</time>
      </trkpt>
      <trkpt lat="45.882549192756414" lon="7.964172586798668">
        <ele>2668.5500000000002</ele>
        <time>2023-07-30T10:27:00Z</time>
      </trkpt>
      <trkpt lat="45.882542571052909" lon="7.964168731123209">
        <ele>2645.6500000000001</ele>
        <time>2023-07-30T10:32:26Z</time>
      </trkpt>
      <trkpt lat="45.882546678185463" lon="7.964169234037399">
        <ele>2644.9299999999998</ele>
        <time>2023-07-30T10:33:05Z</time>
      </trkpt>
      <trkpt lat="45.882522203028202" lon="7.964125145226717">
        <ele>2649.8699999999999</ele>
        <time>2023-07-30T10:34:02Z</time>
      </trkpt>
      <trkpt lat="45.882510636001825" lon="7.964099161326885">
        <ele>2651.23</ele>
        <time>2023-07-30T10:34:33Z</time>
      </trkpt>
      <trkpt lat="45.882483646273613" lon="7.964086839929223">
        <ele>2650.8600000000001</ele>
        <time>2023-07-30T10:34:41Z</time>
      </trkpt>
      <trkpt lat="45.882456321269274" lon="7.964079296216369">
        <ele>2649.3200000000002</ele>
        <time>2023-07-30T10:34:53Z</time>
      </trkpt>
      <trkpt lat="45.882398402318358" lon="7.964109219610691">
        <ele>2644.27</ele>
        <time>2023-07-30T10:35:06Z</time>
      </trkpt>
      <trkpt lat="45.882354313507676" lon="7.96417023986578">
        <ele>2638.9499999999998</ele>
        <time>2023-07-30T10:35:21Z</time>
      </trkpt>
      <trkpt lat="45.882342830300331" lon="7.964264452457428">
        <ele>2636.04</ele>
        <time>2023-07-30T10:35:35Z</time>
      </trkpt>
      <trkpt lat="45.882338555529714" lon="7.964303763583303">
        <ele>2636.9200000000001</ele>
        <time>2023-07-30T10:35:53Z</time>
      </trkpt>
      <trkpt lat="45.882339309900999" lon="7.964338129386306">
        <ele>2636.4000000000001</ele>
        <time>2023-07-30T10:36:14Z</time>
      </trkpt>
      <trkpt lat="45.882335873320699" lon="7.964367382228375">
        <ele>2636.1100000000001</ele>
        <time>2023-07-30T10:36:36Z</time>
      </trkpt>
      <trkpt lat="45.8823237195611" lon="7.964388336986303">
        <ele>2635.5700000000002</ele>
        <time>2023-07-30T10:36:54Z</time>
      </trkpt>
      <trkpt lat="45.882294634357095" lon="7.964377272874117">
        <ele>2633.54</ele>
        <time>2023-07-30T10:37:09Z</time>
      </trkpt>
      <trkpt lat="45.882279379293323" lon="7.964381966739893">
        <ele>2631.6300000000001</ele>
        <time>2023-07-30T10:37:26Z</time>
      </trkpt>
      <trkpt lat="45.882264710962772" lon="7.964393114671111">
        <ele>2630.04</ele>
        <time>2023-07-30T10:37:40Z</time>
      </trkpt>
      <trkpt lat="45.882258592173457" lon="7.964380457997322">
        <ele>2627.2600000000002</ele>
        <time>2023-07-30T10:37:56Z</time>
      </trkpt>
      <trkpt lat="45.882229842245579" lon="7.964405436068773">
        <ele>2625.73</ele>
        <time>2023-07-30T10:38:10Z</time>
      </trkpt>
      <trkpt lat="45.882198326289654" lon="7.964341985061765">
        <ele>2622.6199999999999</ele>
        <time>2023-07-30T10:38:24Z</time>
      </trkpt>
      <trkpt lat="45.882165050134063" lon="7.964362185448408">
        <ele>2621.3400000000001</ele>
        <time>2023-07-30T10:38:39Z</time>
      </trkpt>
      <trkpt lat="45.882131606340408" lon="7.964322119951248">
        <ele>2617.7399999999998</ele>
        <time>2023-07-30T10:38:52Z</time>
      </trkpt>
      <trkpt lat="45.882128002122045" lon="7.964264284819365">
        <ele>2614.9200000000001</ele>
        <time>2023-07-30T10:39:05Z</time>
      </trkpt>
      <trkpt lat="45.882124565541744" lon="7.964262776076794">
        <ele>2614.3800000000001</ele>
        <time>2023-07-30T10:39:08Z</time>
      </trkpt>
      <trkpt lat="45.882082236930728" lon="7.964226566255093">
        <ele>2611.7399999999998</ele>
        <time>2023-07-30T10:39:15Z</time>
      </trkpt>
      <trkpt lat="45.882010823115706" lon="7.964241318404675">
        <ele>2607.2399999999998</ele>
        <time>2023-07-30T10:39:27Z</time>
      </trkpt>
      <trkpt lat="45.881975954398513" lon="7.964244838804007">
        <ele>2604.3099999999999</ele>
        <time>2023-07-30T10:39:40Z</time>
      </trkpt>
      <trkpt lat="45.881961453706026" lon="7.96419907361269">
        <ele>2602.2199999999998</ele>
        <time>2023-07-30T10:39:52Z</time>
      </trkpt>
      <trkpt lat="45.881935721263289" lon="7.964267889037728">
        <ele>2599.9299999999998</ele>
        <time>2023-07-30T10:40:06Z</time>
      </trkpt>
      <trkpt lat="45.881920801475644" lon="7.964342823252082">
        <ele>2599.1900000000001</ele>
        <time>2023-07-30T10:40:20Z</time>
      </trkpt>
      <trkpt lat="45.881908228620887" lon="7.964363610371947">
        <ele>2600.4200000000001</ele>
        <time>2023-07-30T10:41:00Z</time>
      </trkpt>
      <trkpt lat="45.881885932758451" lon="7.9643315076828">
        <ele>2599.4899999999998</ele>
        <time>2023-07-30T10:41:07Z</time>
      </trkpt>
      <trkpt lat="45.881875706836581" lon="7.964281216263771">
        <ele>2598.4400000000001</ele>
        <time>2023-07-30T10:41:20Z</time>
      </trkpt>
      <trkpt lat="45.881842263042927" lon="7.964334106072784">
        <ele>2597.6500000000001</ele>
        <time>2023-07-30T10:41:34Z</time>
      </trkpt>
      <trkpt lat="45.881783673539758" lon="7.964335028082132">
        <ele>2596.1399999999999</ele>
        <time>2023-07-30T10:41:53Z</time>
      </trkpt>
      <trkpt lat="45.881750229746103" lon="7.96432270668447">
        <ele>2593.0100000000002</ele>
        <time>2023-07-30T10:42:04Z</time>
      </trkpt>
      <trkpt lat="45.88168753311038" lon="7.964324299246073">
        <ele>2590.0599999999999</ele>
        <time>2023-07-30T10:42:19Z</time>
      </trkpt>
      <trkpt lat="45.88163229636848" lon="7.96436520293355">
        <ele>2586.4899999999998</ele>
        <time>2023-07-30T10:42:32Z</time>
      </trkpt>
      <trkpt lat="45.88158736936748" lon="7.964398395270109">
        <ele>2582.5</ele>
        <time>2023-07-30T10:42:46Z</time>
      </trkpt>
      <trkpt lat="45.881563061848283" lon="7.964339051395655">
        <ele>2580.2800000000002</ele>
        <time>2023-07-30T10:43:01Z</time>
      </trkpt>
      <trkpt lat="45.881529534235597" lon="7.964391522109509">
        <ele>2578.1199999999999</ele>
        <time>2023-07-30T10:43:08Z</time>
      </trkpt>
      <trkpt lat="45.881485613062978" lon="7.964439885690808">
        <ele>2574.6900000000001</ele>
        <time>2023-07-30T10:43:14Z</time>
      </trkpt>
      <trkpt lat="45.8814412727952" lon="7.964624706655741">
        <ele>2570.5599999999999</ele>
        <time>2023-07-30T10:43:28Z</time>
      </trkpt>
      <trkpt lat="45.881418809294701" lon="7.964641889557242">
        <ele>2567.5599999999999</ele>
        <time>2023-07-30T10:43:33Z</time>
      </trkpt>
      <trkpt lat="45.881382934749126" lon="7.96457827091217">
        <ele>2564.3400000000001</ele>
        <time>2023-07-30T10:43:40Z</time>
      </trkpt>
      <trkpt lat="45.881365248933434" lon="7.964562261477113">
        <ele>2563.0799999999999</ele>
        <time>2023-07-30T10:43:45Z</time>
      </trkpt>
      <trkpt lat="45.881309509277344" lon="7.964672148227692">
        <ele>2558.5599999999999</ele>
        <time>2023-07-30T10:43:58Z</time>
      </trkpt>
      <trkpt lat="45.881239771842957" lon="7.964642057195306">
        <ele>2553.5900000000001</ele>
        <time>2023-07-30T10:44:10Z</time>
      </trkpt>
      <trkpt lat="45.881192162632942" lon="7.964752111583948">
        <ele>2549.98</ele>
        <time>2023-07-30T10:44:22Z</time>
      </trkpt>
      <trkpt lat="45.881151258945465" lon="7.96474733389914">
        <ele>2547.6100000000001</ele>
        <time>2023-07-30T10:44:28Z</time>
      </trkpt>
      <trkpt lat="45.881120832636952" lon="7.964795110747218">
        <ele>2543.9400000000001</ele>
        <time>2023-07-30T10:44:37Z</time>
      </trkpt>
      <trkpt lat="45.881093004718423" lon="7.964732078835368">
        <ele>2543.1999999999998</ele>
        <time>2023-07-30T10:44:43Z</time>
      </trkpt>
      <trkpt lat="45.881042378023267" lon="7.964667370542884">
        <ele>2540.1100000000001</ele>
        <time>2023-07-30T10:44:57Z</time>
      </trkpt>
      <trkpt lat="45.880985297262669" lon="7.964743562042713">
        <ele>2534.8699999999999</ele>
        <time>2023-07-30T10:45:11Z</time>
      </trkpt>
      <trkpt lat="45.880887228995562" lon="7.964664436876774">
        <ele>2531.2800000000002</ele>
        <time>2023-07-30T10:45:26Z</time>
      </trkpt>
      <trkpt lat="45.880838949233294" lon="7.964789075776935">
        <ele>2525.6900000000001</ele>
        <time>2023-07-30T10:45:40Z</time>
      </trkpt>
      <trkpt lat="45.880814557895064" lon="7.964842552319169">
        <ele>2523.7399999999998</ele>
        <time>2023-07-30T10:45:45Z</time>
      </trkpt>
      <trkpt lat="45.880768541246653" lon="7.964934753254056">
        <ele>2519.4200000000001</ele>
        <time>2023-07-30T10:45:59Z</time>
      </trkpt>
      <trkpt lat="45.880719842389226" lon="7.964982949197292">
        <ele>2515</ele>
        <time>2023-07-30T10:46:12Z</time>
      </trkpt>
      <trkpt lat="45.880714226514101" lon="7.965008094906807">
        <ele>2513.6900000000001</ele>
        <time>2023-07-30T10:46:15Z</time>
      </trkpt>
      <trkpt lat="45.880659241229296" lon="7.965029133483768">
        <ele>2509.5999999999999</ele>
        <time>2023-07-30T10:46:27Z</time>
      </trkpt>
      <trkpt lat="45.880624456331134" lon="7.965126195922494">
        <ele>2506.8299999999999</ele>
        <time>2023-07-30T10:46:40Z</time>
      </trkpt>
      <trkpt lat="45.88053485378623" lon="7.965092919766903">
        <ele>2501.75</ele>
        <time>2023-07-30T10:46:54Z</time>
      </trkpt>
      <trkpt lat="45.880495626479387" lon="7.965140612795949">
        <ele>2498.8699999999999</ele>
        <time>2023-07-30T10:47:04Z</time>
      </trkpt>
      <trkpt lat="45.880423961207271" lon="7.965149329975247">
        <ele>2495.6900000000001</ele>
        <time>2023-07-30T10:47:18Z</time>
      </trkpt>
      <trkpt lat="45.880359839648008" lon="7.965162741020322">
        <ele>2490.9400000000001</ele>
        <time>2023-07-30T10:47:33Z</time>
      </trkpt>
      <trkpt lat="45.88034626096487" lon="7.965243039652705">
        <ele>2487.8200000000002</ele>
        <time>2023-07-30T10:47:42Z</time>
      </trkpt>
      <trkpt lat="45.880331508815289" lon="7.965368935838342">
        <ele>2483.9400000000001</ele>
        <time>2023-07-30T10:47:54Z</time>
      </trkpt>
      <trkpt lat="45.880333771929145" lon="7.965461555868387">
        <ele>2479.5100000000002</ele>
        <time>2023-07-30T10:48:06Z</time>
      </trkpt>
      <trkpt lat="45.880258586257696" lon="7.965439846739173">
        <ele>2476.0599999999999</ele>
        <time>2023-07-30T10:48:17Z</time>
      </trkpt>
      <trkpt lat="45.880201840773225" lon="7.9654401820153">
        <ele>2473.4400000000001</ele>
        <time>2023-07-30T10:48:27Z</time>
      </trkpt>
      <trkpt lat="45.880141323432326" lon="7.965446384623647">
        <ele>2471.6700000000001</ele>
        <time>2023-07-30T10:48:37Z</time>
      </trkpt>
      <trkpt lat="45.880060605704784" lon="7.96541235409677">
        <ele>2469.1399999999999</ele>
        <time>2023-07-30T10:48:49Z</time>
      </trkpt>
      <trkpt lat="45.880009727552533" lon="7.965458370745182">
        <ele>2466.4899999999998</ele>
        <time>2023-07-30T10:48:59Z</time>
      </trkpt>
      <trkpt lat="45.87998122908175" lon="7.96549835242331">
        <ele>2465.54</ele>
        <time>2023-07-30T10:49:04Z</time>
      </trkpt>
      <trkpt lat="45.879970584064722" lon="7.965549230575562">
        <ele>2463.9699999999998</ele>
        <time>2023-07-30T10:49:08Z</time>
      </trkpt>
      <trkpt lat="45.879902355372906" lon="7.965568173676729">
        <ele>2458.6199999999999</ele>
        <time>2023-07-30T10:49:20Z</time>
      </trkpt>
      <trkpt lat="45.87984443642199" lon="7.965664900839329">
        <ele>2453.4099999999999</ele>
        <time>2023-07-30T10:49:33Z</time>
      </trkpt>
      <trkpt lat="45.879808561876416" lon="7.965798676013947">
        <ele>2448.1100000000001</ele>
        <time>2023-07-30T10:49:47Z</time>
      </trkpt>
      <trkpt lat="45.87974133901298" lon="7.965831952169538">
        <ele>2443.8499999999999</ele>
        <time>2023-07-30T10:49:58Z</time>
      </trkpt>
      <trkpt lat="45.879709655418992" lon="7.965825749561191">
        <ele>2443.5</ele>
        <time>2023-07-30T10:50:01Z</time>
      </trkpt>
      <trkpt lat="45.879645952954888" lon="7.965679569169879">
        <ele>2440.5300000000002</ele>
        <time>2023-07-30T10:50:16Z</time>
      </trkpt>
      <trkpt lat="45.879633883014321" lon="7.965685436502099">
        <ele>2439.4299999999998</ele>
        <time>2023-07-30T10:50:20Z</time>
      </trkpt>
      <trkpt lat="45.879609659314156" lon="7.96569817699492">
        <ele>2437.1700000000001</ele>
        <time>2023-07-30T10:50:26Z</time>
      </trkpt>
      <trkpt lat="45.879556015133858" lon="7.9655955825001">
        <ele>2434.1900000000001</ele>
        <time>2023-07-30T10:50:42Z</time>
      </trkpt>
      <trkpt lat="45.879538077861071" lon="7.965646712109447">
        <ele>2433.0999999999999</ele>
        <time>2023-07-30T10:50:47Z</time>
      </trkpt>
      <trkpt lat="45.879491558298469" lon="7.965583093464375">
        <ele>2429.4499999999998</ele>
        <time>2023-07-30T10:50:59Z</time>
      </trkpt>
      <trkpt lat="45.87944277562201" lon="7.965646125376225">
        <ele>2426.0999999999999</ele>
        <time>2023-07-30T10:51:10Z</time>
      </trkpt>
      <trkpt lat="45.879400195553899" lon="7.965694572776556">
        <ele>2422.5300000000002</ele>
        <time>2023-07-30T10:51:20Z</time>
      </trkpt>
      <trkpt lat="45.87936851195991" lon="7.965742349624634">
        <ele>2419.6199999999999</ele>
        <time>2023-07-30T10:51:29Z</time>
      </trkpt>
      <trkpt lat="45.879304222762585" lon="7.965645957738161">
        <ele>2415.71</ele>
        <time>2023-07-30T10:51:44Z</time>
      </trkpt>
      <trkpt lat="45.879251416772604" lon="7.965559540316463">
        <ele>2411.6500000000001</ele>
        <time>2023-07-30T10:51:57Z</time>
      </trkpt>
      <trkpt lat="45.879235407337546" lon="7.965450994670391">
        <ele>2407.3899999999999</ele>
        <time>2023-07-30T10:52:11Z</time>
      </trkpt>
      <trkpt lat="45.879201460629702" lon="7.965430039912462">
        <ele>2406.04</ele>
        <time>2023-07-30T10:52:18Z</time>
      </trkpt>
      <trkpt lat="45.879151755943894" lon="7.965460633859038">
        <ele>2402.1900000000001</ele>
        <time>2023-07-30T10:52:32Z</time>
      </trkpt>
      <trkpt lat="45.879078581929207" lon="7.965431045740843">
        <ele>2397.9200000000001</ele>
        <time>2023-07-30T10:52:44Z</time>
      </trkpt>
      <trkpt lat="45.879000294953585" lon="7.965416545048356">
        <ele>2393.0500000000002</ele>
        <time>2023-07-30T10:52:58Z</time>
      </trkpt>
      <trkpt lat="45.879006665199995" lon="7.965289056301117">
        <ele>2391.6500000000001</ele>
        <time>2023-07-30T10:53:13Z</time>
      </trkpt>
      <trkpt lat="45.879006832838058" lon="7.965199202299118">
        <ele>2385.3499999999999</ele>
        <time>2023-07-30T10:53:27Z</time>
      </trkpt>
      <trkpt lat="45.878937179222703" lon="7.965213367715478">
        <ele>2379.7800000000002</ele>
        <time>2023-07-30T10:53:41Z</time>
      </trkpt>
      <trkpt lat="45.878922678530216" lon="7.965143378823996">
        <ele>2376.5999999999999</ele>
        <time>2023-07-30T10:53:55Z</time>
      </trkpt>
      <trkpt lat="45.878908177837729" lon="7.965034078806639">
        <ele>2374.0599999999999</ele>
        <time>2023-07-30T10:54:08Z</time>
      </trkpt>
      <trkpt lat="45.878861406818032" lon="7.964997785165906">
        <ele>2372.3899999999999</ele>
        <time>2023-07-30T10:54:21Z</time>
      </trkpt>
      <trkpt lat="45.878819162026048" lon="7.964987894520164">
        <ele>2369.77</ele>
        <time>2023-07-30T10:54:33Z</time>
      </trkpt>
      <trkpt lat="45.878786891698837" lon="7.964966772124171">
        <ele>2367.3600000000001</ele>
        <time>2023-07-30T10:54:46Z</time>
      </trkpt>
      <trkpt lat="45.878776917234063" lon="7.964960569515824">
        <ele>2367.1399999999999</ele>
        <time>2023-07-30T10:55:04Z</time>
      </trkpt>
      <trkpt lat="45.878712292760611" lon="7.965011950582266">
        <ele>2363.9099999999999</ele>
        <time>2023-07-30T11:04:41Z</time>
      </trkpt>
      <trkpt lat="45.878664515912533" lon="7.965104151517153">
        <ele>2361.46</ele>
        <time>2023-07-30T11:04:54Z</time>
      </trkpt>
      <trkpt lat="45.87859645485878" lon="7.965229880064726">
        <ele>2356.3899999999999</ele>
        <time>2023-07-30T11:05:11Z</time>
      </trkpt>
      <trkpt lat="45.878574578091502" lon="7.965190066024661">
        <ele>2355.4299999999998</ele>
        <time>2023-07-30T11:05:19Z</time>
      </trkpt>
      <trkpt lat="45.878549516201019" lon="7.965177241712809">
        <ele>2353.4099999999999</ele>
        <time>2023-07-30T11:05:28Z</time>
      </trkpt>
      <trkpt lat="45.87850701995194" lon="7.965253014117479">
        <ele>2350.3299999999999</ele>
        <time>2023-07-30T11:05:41Z</time>
      </trkpt>
      <trkpt lat="45.878470055758953" lon="7.965283608064055">
        <ele>2346.4299999999998</ele>
        <time>2023-07-30T11:05:54Z</time>
      </trkpt>
      <trkpt lat="45.878423620015383" lon="7.965276818722487">
        <ele>2343.0900000000001</ele>
        <time>2023-07-30T11:06:07Z</time>
      </trkpt>
      <trkpt lat="45.878399647772312" lon="7.96520565636456">
        <ele>2340.5999999999999</ele>
        <time>2023-07-30T11:06:22Z</time>
      </trkpt>
      <trkpt lat="45.878396295011044" lon="7.965185288339853">
        <ele>2338.9099999999999</ele>
        <time>2023-07-30T11:06:42Z</time>
      </trkpt>
      <trkpt lat="45.878386907279491" lon="7.965056374669075">
        <ele>2335.4200000000001</ele>
        <time>2023-07-30T11:06:57Z</time>
      </trkpt>
      <trkpt lat="45.878356480970979" lon="7.964956881478429">
        <ele>2332.2199999999998</ele>
        <time>2023-07-30T11:07:11Z</time>
      </trkpt>
      <trkpt lat="45.878328485414386" lon="7.964867698028684">
        <ele>2328.29</ele>
        <time>2023-07-30T11:07:26Z</time>
      </trkpt>
      <trkpt lat="45.878302836790681" lon="7.964771557599306">
        <ele>2325.1799999999998</ele>
        <time>2023-07-30T11:07:39Z</time>
      </trkpt>
      <trkpt lat="45.878324965015054" lon="7.964646834880114">
        <ele>2324.8400000000001</ele>
        <time>2023-07-30T11:07:50Z</time>
      </trkpt>
      <trkpt lat="45.878355391323566" lon="7.964498642832041">
        <ele>2325.8699999999999</ele>
        <time>2023-07-30T11:08:05Z</time>
      </trkpt>
      <trkpt lat="45.878322450444102" lon="7.964316923171282">
        <ele>2323.1199999999999</ele>
        <time>2023-07-30T11:08:22Z</time>
      </trkpt>
      <trkpt lat="45.878295041620731" lon="7.964149620383978">
        <ele>2320.54</ele>
        <time>2023-07-30T11:08:39Z</time>
      </trkpt>
      <trkpt lat="45.878262436017394" lon="7.964019197970629">
        <ele>2317.6300000000001</ele>
        <time>2023-07-30T11:08:55Z</time>
      </trkpt>
      <trkpt lat="45.878265621140599" lon="7.963909730315208">
        <ele>2317.0500000000002</ele>
        <time>2023-07-30T11:09:04Z</time>
      </trkpt>
      <trkpt lat="45.878254473209381" lon="7.963833622634411">
        <ele>2316.7600000000002</ele>
        <time>2023-07-30T11:09:10Z</time>
      </trkpt>
      <trkpt lat="45.878201248124242" lon="7.96372071839869">
        <ele>2314.7199999999998</ele>
        <time>2023-07-30T11:09:22Z</time>
      </trkpt>
      <trkpt lat="45.878195883706212" lon="7.963713342323899">
        <ele>2314.4699999999998</ele>
        <time>2023-07-30T11:09:23Z</time>
      </trkpt>
      <trkpt lat="45.878181047737598" lon="7.963677886873484">
        <ele>2312.4099999999999</ele>
        <time>2023-07-30T11:09:27Z</time>
      </trkpt>
      <trkpt lat="45.878142239525914" lon="7.96364352107048">
        <ele>2309.3299999999999</ele>
        <time>2023-07-30T11:09:37Z</time>
      </trkpt>
      <trkpt lat="45.878115585073829" lon="7.96361175365746">
        <ele>2308.0300000000002</ele>
        <time>2023-07-30T11:09:43Z</time>
      </trkpt>
      <trkpt lat="45.878098821267486" lon="7.963590463623405">
        <ele>2307.1900000000001</ele>
        <time>2023-07-30T11:09:47Z</time>
      </trkpt>
      <trkpt lat="45.878053978085518" lon="7.963613094761968">
        <ele>2308.6300000000001</ele>
        <time>2023-07-30T11:09:58Z</time>
      </trkpt>
      <trkpt lat="45.8780169300735" lon="7.963525503873825">
        <ele>2307.4499999999998</ele>
        <time>2023-07-30T11:10:16Z</time>
      </trkpt>
      <trkpt lat="45.877944845706224" lon="7.963449228554964">
        <ele>2305.3000000000002</ele>
        <time>2023-07-30T11:10:34Z</time>
      </trkpt>
      <trkpt lat="45.877891620621085" lon="7.963508991524577">
        <ele>2301.9499999999998</ele>
        <time>2023-07-30T11:10:48Z</time>
      </trkpt>
      <trkpt lat="45.877878293395042" lon="7.96347739174962">
        <ele>2300.6799999999998</ele>
        <time>2023-07-30T11:10:52Z</time>
      </trkpt>
      <trkpt lat="45.877850046381354" lon="7.963432129472494">
        <ele>2297.5599999999999</ele>
        <time>2023-07-30T11:11:01Z</time>
      </trkpt>
      <trkpt lat="45.877800425514579" lon="7.963394997641444">
        <ele>2295.71</ele>
        <time>2023-07-30T11:11:11Z</time>
      </trkpt>
      <trkpt lat="45.877763461321592" lon="7.963408911600709">
        <ele>2294.9699999999998</ele>
        <time>2023-07-30T11:11:22Z</time>
      </trkpt>
      <trkpt lat="45.877716355025768" lon="7.963394494727254">
        <ele>2291.9499999999998</ele>
        <time>2023-07-30T11:11:36Z</time>
      </trkpt>
      <trkpt lat="45.877700177952647" lon="7.963329283520579">
        <ele>2290.1500000000001</ele>
        <time>2023-07-30T11:11:47Z</time>
      </trkpt>
      <trkpt lat="45.877709649503231" lon="7.963229538872838">
        <ele>2287.4099999999999</ele>
        <time>2023-07-30T11:12:01Z</time>
      </trkpt>
      <trkpt lat="45.877665979787707" lon="7.963074473664165">
        <ele>2286.4499999999998</ele>
        <time>2023-07-30T11:12:16Z</time>
      </trkpt>
      <trkpt lat="45.877658519893885" lon="7.963037677109242">
        <ele>2286.1999999999998</ele>
        <time>2023-07-30T11:12:19Z</time>
      </trkpt>
      <trkpt lat="45.877646533772349" lon="7.962746825069189">
        <ele>2283.8899999999999</ele>
        <time>2023-07-30T11:12:39Z</time>
      </trkpt>
      <trkpt lat="45.877648629248142" lon="7.962611960247159">
        <ele>2282.75</ele>
        <time>2023-07-30T11:12:48Z</time>
      </trkpt>
      <trkpt lat="45.877671344205737" lon="7.962503498420119">
        <ele>2282.9000000000001</ele>
        <time>2023-07-30T11:12:57Z</time>
      </trkpt>
      <trkpt lat="45.877670925110579" lon="7.962209545075893">
        <ele>2281.6199999999999</ele>
        <time>2023-07-30T11:13:18Z</time>
      </trkpt>
      <trkpt lat="45.877674529328942" lon="7.962176939472556">
        <ele>2281.3299999999999</ele>
        <time>2023-07-30T11:13:32Z</time>
      </trkpt>
      <trkpt lat="45.877689113840461" lon="7.962098652496934">
        <ele>2281.1799999999998</ele>
        <time>2023-07-30T11:13:38Z</time>
      </trkpt>
      <trkpt lat="45.87773596867919" lon="7.961949873715639">
        <ele>2282.6700000000001</ele>
        <time>2023-07-30T11:13:50Z</time>
      </trkpt>
      <trkpt lat="45.87773060426116" lon="7.961912490427494">
        <ele>2282.6500000000001</ele>
        <time>2023-07-30T11:13:53Z</time>
      </trkpt>
      <trkpt lat="45.877725826576352" lon="7.961669247597456">
        <ele>2280.3099999999999</ele>
        <time>2023-07-30T11:14:10Z</time>
      </trkpt>
      <trkpt lat="45.877721635624766" lon="7.961456347256899">
        <ele>2279.6599999999999</ele>
        <time>2023-07-30T11:14:26Z</time>
      </trkpt>
      <trkpt lat="45.877724653109908" lon="7.961193406954408">
        <ele>2279.3899999999999</ele>
        <time>2023-07-30T11:14:45Z</time>
      </trkpt>
      <trkpt lat="45.87768173776567" lon="7.960942704230547">
        <ele>2277.8200000000002</ele>
        <time>2023-07-30T11:15:04Z</time>
      </trkpt>
      <trkpt lat="45.87770864367485" lon="7.960845809429884">
        <ele>2275.9200000000001</ele>
        <time>2023-07-30T11:15:13Z</time>
      </trkpt>
      <trkpt lat="45.877735381945968" lon="7.96077917329967">
        <ele>2274.9499999999998</ele>
        <time>2023-07-30T11:15:19Z</time>
      </trkpt>
      <trkpt lat="45.877733454108238" lon="7.960734833031893">
        <ele>2274.6300000000001</ele>
        <time>2023-07-30T11:15:22Z</time>
      </trkpt>
      <trkpt lat="45.877709817141294" lon="7.960491674020886">
        <ele>2273.3899999999999</ele>
        <time>2023-07-30T11:15:39Z</time>
      </trkpt>
      <trkpt lat="45.877687437459826" lon="7.960224710404873">
        <ele>2270.1900000000001</ele>
        <time>2023-07-30T11:15:58Z</time>
      </trkpt>
      <trkpt lat="45.877689449116588" lon="7.960038296878338">
        <ele>2271.1500000000001</ele>
        <time>2023-07-30T11:16:12Z</time>
      </trkpt>
      <trkpt lat="45.877662627026439" lon="7.959836293011904">
        <ele>2270.46</ele>
        <time>2023-07-30T11:16:27Z</time>
      </trkpt>
      <trkpt lat="45.877637732774019" lon="7.959752893075347">
        <ele>2269.7199999999998</ele>
        <time>2023-07-30T11:16:33Z</time>
      </trkpt>
      <trkpt lat="45.877583166584373" lon="7.959519289433956">
        <ele>2269.6599999999999</ele>
        <time>2023-07-30T11:16:50Z</time>
      </trkpt>
      <trkpt lat="45.877568833529949" lon="7.9593201354146">
        <ele>2268.5900000000001</ele>
        <time>2023-07-30T11:17:06Z</time>
      </trkpt>
      <trkpt lat="45.877547794952989" lon="7.959263976663351">
        <ele>2266.77</ele>
        <time>2023-07-30T11:17:13Z</time>
      </trkpt>
      <trkpt lat="45.877536060288548" lon="7.959137242287397">
        <ele>2267.9699999999998</ele>
        <time>2023-07-30T11:17:24Z</time>
      </trkpt>
      <trkpt lat="45.877505801618099" lon="7.959068091586232">
        <ele>2267.96</ele>
        <time>2023-07-30T11:17:30Z</time>
      </trkpt>
      <trkpt lat="45.877496749162674" lon="7.95904160477221">
        <ele>2268.04</ele>
        <time>2023-07-30T11:17:32Z</time>
      </trkpt>
      <trkpt lat="45.877492055296898" lon="7.958998940885067">
        <ele>2268.3800000000001</ele>
        <time>2023-07-30T11:17:36Z</time>
      </trkpt>
      <trkpt lat="45.877496749162674" lon="7.958942446857691">
        <ele>2268.25</ele>
        <time>2023-07-30T11:17:49Z</time>
      </trkpt>
      <trkpt lat="45.877504041418433" lon="7.958939848467708">
        <ele>2267.54</ele>
        <time>2023-07-30T11:18:09Z</time>
      </trkpt>
      <trkpt lat="45.877506136894226" lon="7.958941860124469">
        <ele>2267.4499999999998</ele>
        <time>2023-07-30T11:18:30Z</time>
      </trkpt>
      <trkpt lat="45.877485601231456" lon="7.958825016394258">
        <ele>2268.3499999999999</ele>
        <time>2023-07-30T11:18:48Z</time>
      </trkpt>
      <trkpt lat="45.877437237650156" lon="7.958773383870721">
        <ele>2274.6900000000001</ele>
        <time>2023-07-30T11:23:12Z</time>
      </trkpt>
      <trkpt lat="45.877441009506583" lon="7.958772964775562">
        <ele>2272.6900000000001</ele>
        <time>2023-07-30T11:24:12Z</time>
      </trkpt>
      <trkpt lat="45.877432208508253" lon="7.958776652812958">
        <ele>2270.9899999999998</ele>
        <time>2023-07-30T11:26:14Z</time>
      </trkpt>
      <trkpt lat="45.877430364489555" lon="7.958775563165546">
        <ele>2272.7399999999998</ele>
        <time>2023-07-30T11:28:57Z</time>
      </trkpt>
      <trkpt lat="45.877431873232126" lon="7.958778832107782">
        <ele>2269.71</ele>
        <time>2023-07-30T11:40:04Z</time>
      </trkpt>
      <trkpt lat="45.877430783584714" lon="7.958781346678734">
        <ele>2269.3400000000001</ele>
        <time>2023-07-30T11:43:10Z</time>
      </trkpt>
      <trkpt lat="45.877437992021441" lon="7.958867428824306">
        <ele>2269.0999999999999</ele>
        <time>2023-07-30T12:11:44Z</time>
      </trkpt>
      <trkpt lat="45.877441512420774" lon="7.958906320855022">
        <ele>2270.0700000000002</ele>
        <time>2023-07-30T12:12:07Z</time>
      </trkpt>
      <trkpt lat="45.877436315640807" lon="7.958916882053018">
        <ele>2271.1500000000001</ele>
        <time>2023-07-30T12:12:33Z</time>
      </trkpt>
      <trkpt lat="45.877421228215098" lon="7.958934064954519">
        <ele>2271.9000000000001</ele>
        <time>2023-07-30T12:13:16Z</time>
      </trkpt>
      <trkpt lat="45.877423072233796" lon="7.958990642800927">
        <ele>2272.7800000000002</ele>
        <time>2023-07-30T12:13:58Z</time>
      </trkpt>
      <trkpt lat="45.877466490492225" lon="7.959148306399584">
        <ele>2272.48</ele>
        <time>2023-07-30T12:14:17Z</time>
      </trkpt>
      <trkpt lat="45.877479314804077" lon="7.959189126268029">
        <ele>2272.3699999999999</ele>
        <time>2023-07-30T12:14:23Z</time>
      </trkpt>
      <trkpt lat="45.87748384103179" lon="7.9592424351722">
        <ele>2271.9699999999998</ele>
        <time>2023-07-30T12:14:27Z</time>
      </trkpt>
      <trkpt lat="45.87750781327486" lon="7.95938023366034">
        <ele>2271.98</ele>
        <time>2023-07-30T12:14:41Z</time>
      </trkpt>
      <trkpt lat="45.877545448020101" lon="7.95953655615449">
        <ele>2272.75</ele>
        <time>2023-07-30T12:14:55Z</time>
      </trkpt>
      <trkpt lat="45.877570929005742" lon="7.959710648283362">
        <ele>2272.1999999999998</ele>
        <time>2023-07-30T12:15:10Z</time>
      </trkpt>
      <trkpt lat="45.877615939825773" lon="7.959896307438612">
        <ele>2272.3099999999999</ele>
        <time>2023-07-30T12:15:27Z</time>
      </trkpt>
      <trkpt lat="45.877638487145305" lon="7.960056317970157">
        <ele>2272.4499999999998</ele>
        <time>2023-07-30T12:15:41Z</time>
      </trkpt>
      <trkpt lat="45.877640331164002" lon="7.96007945202291">
        <ele>2272.0500000000002</ele>
        <time>2023-07-30T12:15:43Z</time>
      </trkpt>
      <trkpt lat="45.877650640904903" lon="7.960271313786507">
        <ele>2271.3899999999999</ele>
        <time>2023-07-30T12:15:58Z</time>
      </trkpt>
      <trkpt lat="45.877664387226105" lon="7.960436856374145">
        <ele>2273.21</ele>
        <time>2023-07-30T12:16:14Z</time>
      </trkpt>
      <trkpt lat="45.877676960080862" lon="7.960600722581148">
        <ele>2275.3000000000002</ele>
        <time>2023-07-30T12:16:30Z</time>
      </trkpt>
      <trkpt lat="45.877687772735953" lon="7.960635423660278">
        <ele>2275.3299999999999</ele>
        <time>2023-07-30T12:16:34Z</time>
      </trkpt>
      <trkpt lat="45.877674361690879" lon="7.960841534659267">
        <ele>2275.3200000000002</ele>
        <time>2023-07-30T12:16:51Z</time>
      </trkpt>
      <trkpt lat="45.877632368355989" lon="7.960976986214519">
        <ele>2277.0300000000002</ele>
        <time>2023-07-30T12:17:09Z</time>
      </trkpt>
      <trkpt lat="45.877652736380696" lon="7.961142612621188">
        <ele>2276.5100000000002</ele>
        <time>2023-07-30T12:17:26Z</time>
      </trkpt>
      <trkpt lat="45.87765826843679" lon="7.961155688390136">
        <ele>2276.5999999999999</ele>
        <time>2023-07-30T12:17:27Z</time>
      </trkpt>
      <trkpt lat="45.877676289528608" lon="7.96132399700582">
        <ele>2278.4299999999998</ele>
        <time>2023-07-30T12:17:40Z</time>
      </trkpt>
      <trkpt lat="45.877676960080862" lon="7.961353752762079">
        <ele>2279.04</ele>
        <time>2023-07-30T12:17:42Z</time>
      </trkpt>
      <trkpt lat="45.877668410539627" lon="7.961406642571092">
        <ele>2279.0999999999999</ele>
        <time>2023-07-30T12:17:46Z</time>
      </trkpt>
      <trkpt lat="45.877666734158993" lon="7.961640413850546">
        <ele>2277.5500000000002</ele>
        <time>2023-07-30T12:18:05Z</time>
      </trkpt>
      <trkpt lat="45.877664303407073" lon="7.961855996400118">
        <ele>2278.79</ele>
        <time>2023-07-30T12:18:22Z</time>
      </trkpt>
      <trkpt lat="45.877675199881196" lon="7.961932774633169">
        <ele>2280.5799999999999</ele>
        <time>2023-07-30T12:18:29Z</time>
      </trkpt>
      <trkpt lat="45.877626584842801" lon="7.962182639166713">
        <ele>2280.8899999999999</ele>
        <time>2023-07-30T12:18:47Z</time>
      </trkpt>
      <trkpt lat="45.877616442739964" lon="7.962416745722294">
        <ele>2280.3099999999999</ele>
        <time>2023-07-30T12:19:04Z</time>
      </trkpt>
      <trkpt lat="45.877600768581033" lon="7.962656719610095">
        <ele>2280.5999999999999</ele>
        <time>2023-07-30T12:19:22Z</time>
      </trkpt>
      <trkpt lat="45.877606049180031" lon="7.962867440655828">
        <ele>2280.4400000000001</ele>
        <time>2023-07-30T12:19:40Z</time>
      </trkpt>
      <trkpt lat="45.877612000331283" lon="7.962895939126611">
        <ele>2280.52</ele>
        <time>2023-07-30T12:19:55Z</time>
      </trkpt>
      <trkpt lat="45.877589285373688" lon="7.962908679619432">
        <ele>2280.4499999999998</ele>
        <time>2023-07-30T12:20:08Z</time>
      </trkpt>
      <trkpt lat="45.877597164362669" lon="7.963035916909576">
        <ele>2280.7199999999998</ele>
        <time>2023-07-30T12:20:26Z</time>
      </trkpt>
      <trkpt lat="45.877625914290547" lon="7.963157370686531">
        <ele>2282.4899999999998</ele>
        <time>2023-07-30T12:20:37Z</time>
      </trkpt>
      <trkpt lat="45.877646701410413" lon="7.963202046230435">
        <ele>2282.1300000000001</ele>
        <time>2023-07-30T12:20:41Z</time>
      </trkpt>
      <trkpt lat="45.877630105242133" lon="7.963327020406723">
        <ele>2281.6500000000001</ele>
        <time>2023-07-30T12:20:52Z</time>
      </trkpt>
      <trkpt lat="45.877651730552316" lon="7.963408911600709">
        <ele>2283.79</ele>
        <time>2023-07-30T12:21:04Z</time>
      </trkpt>
      <trkpt lat="45.877707721665502" lon="7.963417628780007">
        <ele>2284.9299999999998</ele>
        <time>2023-07-30T12:21:18Z</time>
      </trkpt>
      <trkpt lat="45.87775700725615" lon="7.963405726477504">
        <ele>2287.5100000000002</ele>
        <time>2023-07-30T12:21:34Z</time>
      </trkpt>
      <trkpt lat="45.87779313325882" lon="7.963457359001041">
        <ele>2289.52</ele>
        <time>2023-07-30T12:21:49Z</time>
      </trkpt>
      <trkpt lat="45.877805957570672" lon="7.963500274345279">
        <ele>2288.6199999999999</ele>
        <time>2023-07-30T12:21:58Z</time>
      </trkpt>
      <trkpt lat="45.877874353900552" lon="7.963479235768318">
        <ele>2292.23</ele>
        <time>2023-07-30T12:22:11Z</time>
      </trkpt>
      <trkpt lat="45.877930764108896" lon="7.963453168049455">
        <ele>2295.5900000000001</ele>
        <time>2023-07-30T12:22:28Z</time>
      </trkpt>
      <trkpt lat="45.877956915646791" lon="7.963507566601038">
        <ele>2297.75</ele>
        <time>2023-07-30T12:22:41Z</time>
      </trkpt>
      <trkpt lat="45.877964543178678" lon="7.963565066456795">
        <ele>2299.77</ele>
        <time>2023-07-30T12:22:53Z</time>
      </trkpt>
      <trkpt lat="45.87801743298769" lon="7.963600605726242">
        <ele>2302.98</ele>
        <time>2023-07-30T12:23:10Z</time>
      </trkpt>
      <trkpt lat="45.878050709143281" lon="7.963622231036425">
        <ele>2305.29</ele>
        <time>2023-07-30T12:23:23Z</time>
      </trkpt>
      <trkpt lat="45.878092618659139" lon="7.963665900751948">
        <ele>2307.29</ele>
        <time>2023-07-30T12:23:37Z</time>
      </trkpt>
      <trkpt lat="45.878139389678836" lon="7.963687274605036">
        <ele>2308.7800000000002</ele>
        <time>2023-07-30T12:23:49Z</time>
      </trkpt>
      <trkpt lat="45.878151711076498" lon="7.963721640408039">
        <ele>2309.8400000000001</ele>
        <time>2023-07-30T12:23:55Z</time>
      </trkpt>
      <trkpt lat="45.878179371356964" lon="7.963793054223061">
        <ele>2311.4499999999998</ele>
        <time>2023-07-30T12:24:07Z</time>
      </trkpt>
      <trkpt lat="45.878201331943274" lon="7.963909395039082">
        <ele>2312.5300000000002</ele>
        <time>2023-07-30T12:24:20Z</time>
      </trkpt>
      <trkpt lat="45.87820409797132" lon="7.9639757797122">
        <ele>2313.4299999999998</ele>
        <time>2023-07-30T12:24:26Z</time>
      </trkpt>
      <trkpt lat="45.878223711624742" lon="7.964083990082145">
        <ele>2315.4299999999998</ele>
        <time>2023-07-30T12:24:37Z</time>
      </trkpt>
      <trkpt lat="45.878242067992687" lon="7.964193793013692">
        <ele>2317.3000000000002</ele>
        <time>2023-07-30T12:24:54Z</time>
      </trkpt>
      <trkpt lat="45.878252880647779" lon="7.964281048625708">
        <ele>2319.5100000000002</ele>
        <time>2023-07-30T12:25:09Z</time>
      </trkpt>
      <trkpt lat="45.878268890082836" lon="7.964380457997322">
        <ele>2320.71</ele>
        <time>2023-07-30T12:25:30Z</time>
      </trkpt>
      <trkpt lat="45.878283642232418" lon="7.964522782713175">
        <ele>2322.8800000000001</ele>
        <time>2023-07-30T12:25:46Z</time>
      </trkpt>
      <trkpt lat="45.878249276429415" lon="7.964695449918509">
        <ele>2322.6999999999998</ele>
        <time>2023-07-30T12:26:05Z</time>
      </trkpt>
      <trkpt lat="45.878222286701202" lon="7.964844647794962">
        <ele>2322.9099999999999</ele>
        <time>2023-07-30T12:26:21Z</time>
      </trkpt>
      <trkpt lat="45.878256652504206" lon="7.964910361915827">
        <ele>2324.5999999999999</ele>
        <time>2023-07-30T12:26:37Z</time>
      </trkpt>
      <trkpt lat="45.878279535099864" lon="7.964998707175255">
        <ele>2327.7800000000002</ele>
        <time>2023-07-30T12:26:53Z</time>
      </trkpt>
      <trkpt lat="45.878302166238427" lon="7.965067522600293">
        <ele>2329.9699999999998</ele>
        <time>2023-07-30T12:27:09Z</time>
      </trkpt>
      <trkpt lat="45.878287749364972" lon="7.965083615854383">
        <ele>2330.23</ele>
        <time>2023-07-30T12:27:45Z</time>
      </trkpt>
      <trkpt lat="45.878295125439763" lon="7.965179085731506">
        <ele>2331.6700000000001</ele>
        <time>2023-07-30T12:28:00Z</time>
      </trkpt>
      <trkpt lat="45.878325635567307" lon="7.96526039019227">
        <ele>2334.46</ele>
        <time>2023-07-30T12:28:16Z</time>
      </trkpt>
      <trkpt lat="45.878321612253785" lon="7.965291570872068">
        <ele>2334.2600000000002</ele>
        <time>2023-07-30T12:28:35Z</time>
      </trkpt>
      <trkpt lat="45.87833845987916" lon="7.965357284992933">
        <ele>2336.3699999999999</ele>
        <time>2023-07-30T12:28:55Z</time>
      </trkpt>
      <trkpt lat="45.878345835953951" lon="7.965464992448688">
        <ele>2335.54</ele>
        <time>2023-07-30T12:29:17Z</time>
      </trkpt>
      <trkpt lat="45.878365868702531" lon="7.96570111066103">
        <ele>2335.5100000000002</ele>
        <time>2023-07-30T12:29:37Z</time>
      </trkpt>
      <trkpt lat="45.878371484577656" lon="7.965746289119124">
        <ele>2336.0300000000002</ele>
        <time>2023-07-30T12:29:41Z</time>
      </trkpt>
      <trkpt lat="45.878397049382329" lon="7.965927589684725">
        <ele>2336.1500000000001</ele>
        <time>2023-07-30T12:29:56Z</time>
      </trkpt>
      <trkpt lat="45.87844549678266" lon="7.966090952977538">
        <ele>2337.0999999999999</ele>
        <time>2023-07-30T12:30:12Z</time>
      </trkpt>
      <trkpt lat="45.878525711596012" lon="7.966348025947809">
        <ele>2335.1100000000001</ele>
        <time>2023-07-30T12:30:32Z</time>
      </trkpt>
      <trkpt lat="45.878572734072804" lon="7.966517005115748">
        <ele>2333.1300000000001</ele>
        <time>2023-07-30T12:30:47Z</time>
      </trkpt>
      <trkpt lat="45.878626713529229" lon="7.966605182737112">
        <ele>2330.4699999999998</ele>
        <time>2023-07-30T12:30:59Z</time>
      </trkpt>
      <trkpt lat="45.878678848966956" lon="7.966691767796874">
        <ele>2329.4400000000001</ele>
        <time>2023-07-30T12:31:09Z</time>
      </trkpt>
      <trkpt lat="45.87872302159667" lon="7.966849850490689">
        <ele>2327.4400000000001</ele>
        <time>2023-07-30T12:31:24Z</time>
      </trkpt>
      <trkpt lat="45.87874012067914" lon="7.966908272355795">
        <ele>2326.27</ele>
        <time>2023-07-30T12:31:37Z</time>
      </trkpt>
      <trkpt lat="45.878739031031728" lon="7.966892430558801">
        <ele>2327.0900000000001</ele>
        <time>2023-07-30T12:31:49Z</time>
      </trkpt>
      <trkpt lat="45.878735342994332" lon="7.966887736693025">
        <ele>2327.4200000000001</ele>
        <time>2023-07-30T12:31:50Z</time>
      </trkpt>
      <trkpt lat="45.878764512017369" lon="7.966948840767145">
        <ele>2327.5</ele>
        <time>2023-07-30T12:32:01Z</time>
      </trkpt>
      <trkpt lat="45.87882368825376" lon="7.967066271230578">
        <ele>2324.2199999999998</ele>
        <time>2023-07-30T12:32:17Z</time>
      </trkpt>
      <trkpt lat="45.878874650225043" lon="7.96719778329134">
        <ele>2320.8400000000001</ele>
        <time>2023-07-30T12:32:34Z</time>
      </trkpt>
      <trkpt lat="45.878918906673789" lon="7.967276154085994">
        <ele>2319.3000000000002</ele>
        <time>2023-07-30T12:32:44Z</time>
      </trkpt>
      <trkpt lat="45.878936424851418" lon="7.967291325330734">
        <ele>2319.0599999999999</ele>
        <time>2023-07-30T12:32:46Z</time>
      </trkpt>
      <trkpt lat="45.878962241113186" lon="7.967340862378478">
        <ele>2317.9499999999998</ele>
        <time>2023-07-30T12:32:52Z</time>
      </trkpt>
      <trkpt lat="45.878995349630713" lon="7.967486456036568">
        <ele>2313.9400000000001</ele>
        <time>2023-07-30T12:33:10Z</time>
      </trkpt>
      <trkpt lat="45.879044467583299" lon="7.967671612277627">
        <ele>2310.4699999999998</ele>
        <time>2023-07-30T12:33:28Z</time>
      </trkpt>
      <trkpt lat="45.879108170047402" lon="7.96786624006927">
        <ele>2306.8000000000002</ele>
        <time>2023-07-30T12:33:44Z</time>
      </trkpt>
      <trkpt lat="45.879159215837717" lon="7.96801133081317">
        <ele>2302.8699999999999</ele>
        <time>2023-07-30T12:34:00Z</time>
      </trkpt>
      <trkpt lat="45.879227863624692" lon="7.968173436820507">
        <ele>2299.9499999999998</ele>
        <time>2023-07-30T12:34:18Z</time>
      </trkpt>
      <trkpt lat="45.879234988242388" lon="7.968275360763073">
        <ele>2298.1399999999999</ele>
        <time>2023-07-30T12:34:31Z</time>
      </trkpt>
      <trkpt lat="45.879231216385961" lon="7.968439562246203">
        <ele>2295.9000000000001</ele>
        <time>2023-07-30T12:34:47Z</time>
      </trkpt>
      <trkpt lat="45.879243453964591" lon="7.968587167561054">
        <ele>2293.4699999999998</ele>
        <time>2023-07-30T12:35:03Z</time>
      </trkpt>
      <trkpt lat="45.879261139780283" lon="7.968782465904951">
        <ele>2290.8200000000002</ele>
        <time>2023-07-30T12:35:22Z</time>
      </trkpt>
      <trkpt lat="45.879294415935874" lon="7.968952283263207">
        <ele>2287.8699999999999</ele>
        <time>2023-07-30T12:35:40Z</time>
      </trkpt>
      <trkpt lat="45.87934261187911" lon="7.969109360128641">
        <ele>2288.9499999999998</ele>
        <time>2023-07-30T12:36:06Z</time>
      </trkpt>
      <trkpt lat="45.879341270774603" lon="7.969260737299919">
        <ele>2283.3099999999999</ele>
        <time>2023-07-30T12:36:22Z</time>
      </trkpt>
      <trkpt lat="45.879371110349894" lon="7.969442959874868">
        <ele>2278.5999999999999</ele>
        <time>2023-07-30T12:36:40Z</time>
      </trkpt>
      <trkpt lat="45.879403883591294" lon="7.969668181613088">
        <ele>2274.2399999999998</ele>
        <time>2023-07-30T12:37:02Z</time>
      </trkpt>
      <trkpt lat="45.879452330991626" lon="7.969855684787035">
        <ele>2270.8499999999999</ele>
        <time>2023-07-30T12:37:21Z</time>
      </trkpt>
      <trkpt lat="45.879505053162575" lon="7.970018377527595">
        <ele>2269.21</ele>
        <time>2023-07-30T12:37:38Z</time>
      </trkpt>
      <trkpt lat="45.879448726773262" lon="7.970056934282184">
        <ele>2267.8899999999999</ele>
        <time>2023-07-30T12:37:52Z</time>
      </trkpt>
      <trkpt lat="45.879333391785622" lon="7.969983341172338">
        <ele>2265.9699999999998</ele>
        <time>2023-07-30T12:38:07Z</time>
      </trkpt>
      <trkpt lat="45.879224594682455" lon="7.969900192692876">
        <ele>2264.4400000000001</ele>
        <time>2023-07-30T12:38:22Z</time>
      </trkpt>
      <trkpt lat="45.879186121746898" lon="7.969882506877184">
        <ele>2264.1300000000001</ele>
        <time>2023-07-30T12:38:27Z</time>
      </trkpt>
      <trkpt lat="45.879145888611674" lon="7.969836741685867">
        <ele>2263.8099999999999</ele>
        <time>2023-07-30T12:38:33Z</time>
      </trkpt>
      <trkpt lat="45.879141865298152" lon="7.969823749735951">
        <ele>2263.8400000000001</ele>
        <time>2023-07-30T12:38:34Z</time>
      </trkpt>
      <trkpt lat="45.879134237766266" lon="7.969873873516917">
        <ele>2261.8299999999999</ele>
        <time>2023-07-30T12:38:48Z</time>
      </trkpt>
      <trkpt lat="45.879192156717181" lon="7.970008570700884">
        <ele>2259.3499999999999</ele>
        <time>2023-07-30T12:39:04Z</time>
      </trkpt>
      <trkpt lat="45.879226354882121" lon="7.970207305625081">
        <ele>2255.7399999999998</ele>
        <time>2023-07-30T12:39:22Z</time>
      </trkpt>
      <trkpt lat="45.879264073446393" lon="7.97036656178534">
        <ele>2252.5799999999999</ele>
        <time>2023-07-30T12:39:37Z</time>
      </trkpt>
      <trkpt lat="45.879305396229029" lon="7.970545096322894">
        <ele>2249.1399999999999</ele>
        <time>2023-07-30T12:39:54Z</time>
      </trkpt>
      <trkpt lat="45.87926248088479" lon="7.970576947554946">
        <ele>2246.3800000000001</ele>
        <time>2023-07-30T12:40:08Z</time>
      </trkpt>
      <trkpt lat="45.879187546670437" lon="7.970486003905535">
        <ele>2244.4899999999998</ele>
        <time>2023-07-30T12:40:21Z</time>
      </trkpt>
      <trkpt lat="45.879122167825699" lon="7.970421966165304">
        <ele>2242.5999999999999</ele>
        <time>2023-07-30T12:40:30Z</time>
      </trkpt>
      <trkpt lat="45.879113283008337" lon="7.970413248986006">
        <ele>2242.4000000000001</ele>
        <time>2023-07-30T12:40:31Z</time>
      </trkpt>
      <trkpt lat="45.879022842273116" lon="7.97034309245646">
        <ele>2241.3400000000001</ele>
        <time>2023-07-30T12:40:43Z</time>
      </trkpt>
      <trkpt lat="45.879048993811011" lon="7.970449542626739">
        <ele>2239</ele>
        <time>2023-07-30T12:40:57Z</time>
      </trkpt>
      <trkpt lat="45.879085455089808" lon="7.970603602007031">
        <ele>2234.6900000000001</ele>
        <time>2023-07-30T12:41:13Z</time>
      </trkpt>
      <trkpt lat="45.879105906933546" lon="7.970817005261779">
        <ele>2232.7399999999998</ele>
        <time>2023-07-30T12:41:32Z</time>
      </trkpt>
      <trkpt lat="45.87916768155992" lon="7.970987744629383">
        <ele>2230.5100000000002</ele>
        <time>2023-07-30T12:41:49Z</time>
      </trkpt>
      <trkpt lat="45.879222583025694" lon="7.971192598342896">
        <ele>2228.3000000000002</ele>
        <time>2023-07-30T12:42:09Z</time>
      </trkpt>
      <trkpt lat="45.879132729023695" lon="7.971138367429376">
        <ele>2226.5100000000002</ele>
        <time>2023-07-30T12:42:23Z</time>
      </trkpt>
      <trkpt lat="45.879048742353916" lon="7.97112487256527">
        <ele>2225.3400000000001</ele>
        <time>2023-07-30T12:42:37Z</time>
      </trkpt>
      <trkpt lat="45.879110936075449" lon="7.971269711852074">
        <ele>2222.5500000000002</ele>
        <time>2023-07-30T12:42:55Z</time>
      </trkpt>
      <trkpt lat="45.879137758165598" lon="7.971379682421684">
        <ele>2219.2800000000002</ele>
        <time>2023-07-30T12:43:09Z</time>
      </trkpt>
      <trkpt lat="45.879121832549572" lon="7.971379766240716">
        <ele>2219.21</ele>
        <time>2023-07-30T12:43:12Z</time>
      </trkpt>
      <trkpt lat="45.879082102328539" lon="7.971375407651067">
        <ele>2218.5900000000001</ele>
        <time>2023-07-30T12:43:16Z</time>
      </trkpt>
      <trkpt lat="45.87901814840734" lon="7.971361577510834">
        <ele>2218.0100000000002</ele>
        <time>2023-07-30T12:43:24Z</time>
      </trkpt>
      <trkpt lat="45.878995433449745" lon="7.971433326601982">
        <ele>2215.96</ele>
        <time>2023-07-30T12:43:38Z</time>
      </trkpt>
      <trkpt lat="45.878996104001999" lon="7.971553020179272">
        <ele>2212.0700000000002</ele>
        <time>2023-07-30T12:43:54Z</time>
      </trkpt>
      <trkpt lat="45.878886552527547" lon="7.97150457277894">
        <ele>2209.4099999999999</ele>
        <time>2023-07-30T12:44:10Z</time>
      </trkpt>
      <trkpt lat="45.878867944702506" lon="7.971636923030019">
        <ele>2205.7600000000002</ele>
        <time>2023-07-30T12:44:26Z</time>
      </trkpt>
      <trkpt lat="45.87885688059032" lon="7.971754353493452">
        <ele>2203.5700000000002</ele>
        <time>2023-07-30T12:44:37Z</time>
      </trkpt>
      <trkpt lat="45.87887498550117" lon="7.971888966858387">
        <ele>2202.1300000000001</ele>
        <time>2023-07-30T12:44:51Z</time>
      </trkpt>
      <trkpt lat="45.878925947472453" lon="7.972033303231001">
        <ele>2201.48</ele>
        <time>2023-07-30T12:45:08Z</time>
      </trkpt>
      <trkpt lat="45.878950338810682" lon="7.972130784764886">
        <ele>2201.3699999999999</ele>
        <time>2023-07-30T12:45:22Z</time>
      </trkpt>
      <trkpt lat="45.878989985212684" lon="7.97228978946805">
        <ele>2199.5999999999999</ele>
        <time>2023-07-30T12:45:37Z</time>
      </trkpt>
      <trkpt lat="45.87907237932086" lon="7.972473353147507">
        <ele>2197.0100000000002</ele>
        <time>2023-07-30T12:45:55Z</time>
      </trkpt>
      <trkpt lat="45.879120659083128" lon="7.97261618077755">
        <ele>2194.8899999999999</ele>
        <time>2023-07-30T12:46:09Z</time>
      </trkpt>
      <trkpt lat="45.879206489771605" lon="7.972711315378547">
        <ele>2192.6199999999999</ele>
        <time>2023-07-30T12:46:22Z</time>
      </trkpt>
      <trkpt lat="45.879227025434375" lon="7.972757751122117">
        <ele>2192.25</ele>
        <time>2023-07-30T12:46:26Z</time>
      </trkpt>
      <trkpt lat="45.879228953272104" lon="7.972773425281048">
        <ele>2192.23</ele>
        <time>2023-07-30T12:46:27Z</time>
      </trkpt>
      <trkpt lat="45.879235072061419" lon="7.972983056679368">
        <ele>2190.3400000000001</ele>
        <time>2023-07-30T12:46:43Z</time>
      </trkpt>
      <trkpt lat="45.879236329346895" lon="7.972998814657331">
        <ele>2190.2199999999998</ele>
        <time>2023-07-30T12:46:44Z</time>
      </trkpt>
      <trkpt lat="45.879236664623022" lon="7.973015075549483">
        <ele>2190.1500000000001</ele>
        <time>2023-07-30T12:46:45Z</time>
      </trkpt>
      <trkpt lat="45.879243118688464" lon="7.973045501857996">
        <ele>2187.77</ele>
        <time>2023-07-30T12:48:21Z</time>
      </trkpt>
      <trkpt lat="45.879247058182955" lon="7.973096631467342">
        <ele>2187.9099999999999</ele>
        <time>2023-07-30T12:48:40Z</time>
      </trkpt>
      <trkpt lat="45.87926097214222" lon="7.9732905048877">
        <ele>2185.48</ele>
        <time>2023-07-30T12:48:58Z</time>
      </trkpt>
      <trkpt lat="45.87928393855691" lon="7.97347323037684">
        <ele>2181.8499999999999</ele>
        <time>2023-07-30T12:49:15Z</time>
      </trkpt>
      <trkpt lat="45.879337079823017" lon="7.97364229336381">
        <ele>2177.3499999999999</ele>
        <time>2023-07-30T12:49:33Z</time>
      </trkpt>
      <trkpt lat="45.879332637414336" lon="7.973807584494352">
        <ele>2173.9200000000001</ele>
        <time>2023-07-30T12:49:49Z</time>
      </trkpt>
      <trkpt lat="45.879384269937873" lon="7.97395896166563">
        <ele>2170.9499999999998</ele>
        <time>2023-07-30T12:50:05Z</time>
      </trkpt>
      <trkpt lat="45.879464568570256" lon="7.97413581982255">
        <ele>2169.6599999999999</ele>
        <time>2023-07-30T12:50:22Z</time>
      </trkpt>
      <trkpt lat="45.879512429237366" lon="7.974345535039902">
        <ele>2167.6300000000001</ele>
        <time>2023-07-30T12:50:39Z</time>
      </trkpt>
      <trkpt lat="45.879532629624009" lon="7.974504623562098">
        <ele>2163.6399999999999</ele>
        <time>2023-07-30T12:50:53Z</time>
      </trkpt>
      <trkpt lat="45.879562553018332" lon="7.974679386243224">
        <ele>2161.8000000000002</ele>
        <time>2023-07-30T12:51:07Z</time>
      </trkpt>
      <trkpt lat="45.879607647657394" lon="7.974895806983113">
        <ele>2159.3699999999999</ele>
        <time>2023-07-30T12:51:25Z</time>
      </trkpt>
      <trkpt lat="45.879629189148545" lon="7.975104348734021">
        <ele>2156.5</ele>
        <time>2023-07-30T12:51:43Z</time>
      </trkpt>
      <trkpt lat="45.87967193685472" lon="7.9753661993891">
        <ele>2154.3400000000001</ele>
        <time>2023-07-30T12:52:04Z</time>
      </trkpt>
      <trkpt lat="45.879696412011981" lon="7.975585553795099">
        <ele>2153.6199999999999</ele>
        <time>2023-07-30T12:52:21Z</time>
      </trkpt>
      <trkpt lat="45.879724239930511" lon="7.975770542398095">
        <ele>2151.5799999999999</ele>
        <time>2023-07-30T12:52:37Z</time>
      </trkpt>
      <trkpt lat="45.879746284335852" lon="7.975855115801096">
        <ele>2150.8099999999999</ele>
        <time>2023-07-30T12:52:44Z</time>
      </trkpt>
      <trkpt lat="45.879791295155883" lon="7.976064998656511">
        <ele>2149.1900000000001</ele>
        <time>2023-07-30T12:53:02Z</time>
      </trkpt>
      <trkpt lat="45.879793390631676" lon="7.976078074425459">
        <ele>2149.0900000000001</ele>
        <time>2023-07-30T12:53:03Z</time>
      </trkpt>
      <trkpt lat="45.879886262118816" lon="7.976258117705584">
        <ele>2146.5700000000002</ele>
        <time>2023-07-30T12:53:21Z</time>
      </trkpt>
      <trkpt lat="45.879986425861716" lon="7.976404298096895">
        <ele>2143.71</ele>
        <time>2023-07-30T12:53:39Z</time>
      </trkpt>
      <trkpt lat="45.880048200488091" lon="7.976590041071177">
        <ele>2141.96</ele>
        <time>2023-07-30T12:53:57Z</time>
      </trkpt>
      <trkpt lat="45.880086841061711" lon="7.976804031059146">
        <ele>2138.54</ele>
        <time>2023-07-30T12:54:16Z</time>
      </trkpt>
      <trkpt lat="45.880087846890092" lon="7.97697376459837">
        <ele>2137.1100000000001</ele>
        <time>2023-07-30T12:54:29Z</time>
      </trkpt>
      <trkpt lat="45.880058510228992" lon="7.977182641625404">
        <ele>2135.0900000000001</ele>
        <time>2023-07-30T12:54:46Z</time>
      </trkpt>
      <trkpt lat="45.880080554634333" lon="7.9773641936481">
        <ele>2133.0599999999999</ele>
        <time>2023-07-30T12:55:03Z</time>
      </trkpt>
      <trkpt lat="45.880099916830659" lon="7.977559575811029">
        <ele>2130.0100000000002</ele>
        <time>2023-07-30T12:55:21Z</time>
      </trkpt>
      <trkpt lat="45.880117015913129" lon="7.977697122842073">
        <ele>2128.23</ele>
        <time>2023-07-30T12:55:34Z</time>
      </trkpt>
      <trkpt lat="45.880138808861375" lon="7.977893259376288">
        <ele>2125.0500000000002</ele>
        <time>2023-07-30T12:55:52Z</time>
      </trkpt>
      <trkpt lat="45.880171582102776" lon="7.978047570213676">
        <ele>2121.8800000000001</ele>
        <time>2023-07-30T12:56:10Z</time>
      </trkpt>
      <trkpt lat="45.88023042306304" lon="7.978233899921179">
        <ele>2118.1999999999998</ele>
        <time>2023-07-30T12:56:28Z</time>
      </trkpt>
      <trkpt lat="45.880298316478729" lon="7.978445291519165">
        <ele>2116.2399999999998</ele>
        <time>2023-07-30T12:56:47Z</time>
      </trkpt>
      <trkpt lat="45.880354642868042" lon="7.978622149676085">
        <ele>2113.77</ele>
        <time>2023-07-30T12:57:04Z</time>
      </trkpt>
      <trkpt lat="45.880456566810608" lon="7.978716110810638">
        <ele>2109.8000000000002</ele>
        <time>2023-07-30T12:57:21Z</time>
      </trkpt>
      <trkpt lat="45.880566705018282" lon="7.978787440806627">
        <ele>2106.7199999999998</ele>
        <time>2023-07-30T12:57:37Z</time>
      </trkpt>
      <trkpt lat="45.880550192669034" lon="7.97889313660562">
        <ele>2105.1700000000001</ele>
        <time>2023-07-30T12:57:50Z</time>
      </trkpt>
      <trkpt lat="45.880507025867701" lon="7.978966981172562">
        <ele>2103.6500000000001</ele>
        <time>2023-07-30T12:58:04Z</time>
      </trkpt>
      <trkpt lat="45.880523454397917" lon="7.979018110781908">
        <ele>2100.7199999999998</ele>
        <time>2023-07-30T12:58:18Z</time>
      </trkpt>
      <trkpt lat="45.880629066377878" lon="7.979092122986913">
        <ele>2096.73</ele>
        <time>2023-07-30T12:58:35Z</time>
      </trkpt>
      <trkpt lat="45.88066921569407" lon="7.979169990867376">
        <ele>2094.3200000000002</ele>
        <time>2023-07-30T12:58:49Z</time>
      </trkpt>
      <trkpt lat="45.880596963688731" lon="7.979323631152511">
        <ele>2092.3299999999999</ele>
        <time>2023-07-30T12:59:08Z</time>
      </trkpt>
      <trkpt lat="45.880556730553508" lon="7.979367468506098">
        <ele>2090.6799999999998</ele>
        <time>2023-07-30T12:59:22Z</time>
      </trkpt>
      <trkpt lat="45.880640549585223" lon="7.979502249509096">
        <ele>2087.6100000000001</ele>
        <time>2023-07-30T12:59:41Z</time>
      </trkpt>
      <trkpt lat="45.88073811493814" lon="7.979622529819608">
        <ele>2085.1900000000001</ele>
        <time>2023-07-30T12:59:58Z</time>
      </trkpt>
      <trkpt lat="45.880764685571194" lon="7.979659494012594">
        <ele>2084.8200000000002</ele>
        <time>2023-07-30T13:00:02Z</time>
      </trkpt>
      <trkpt lat="45.880862167105079" lon="7.979772230610251">
        <ele>2082.9699999999998</ele>
        <time>2023-07-30T13:00:18Z</time>
      </trkpt>
      <trkpt lat="45.880903489887714" lon="7.979980772361159">
        <ele>2079.4200000000001</ele>
        <time>2023-07-30T13:00:37Z</time>
      </trkpt>
      <trkpt lat="45.880885636433959" lon="7.979989489540458">
        <ele>2079.1799999999998</ele>
        <time>2023-07-30T13:00:39Z</time>
      </trkpt>
      <trkpt lat="45.880870716646314" lon="7.979992674663663">
        <ele>2078.6300000000001</ele>
        <time>2023-07-30T13:00:52Z</time>
      </trkpt>
      <trkpt lat="45.88092528283596" lon="7.980011617764831">
        <ele>2077.0100000000002</ele>
        <time>2023-07-30T13:01:03Z</time>
      </trkpt>
      <trkpt lat="45.88102008216083" lon="7.980116391554475">
        <ele>2074.96</ele>
        <time>2023-07-30T13:01:20Z</time>
      </trkpt>
      <trkpt lat="45.881088227033615" lon="7.980342535302043">
        <ele>2072.1399999999999</ele>
        <time>2023-07-30T13:01:41Z</time>
      </trkpt>
      <trkpt lat="45.881169615313411" lon="7.980555268004537">
        <ele>2068.0799999999999</ele>
        <time>2023-07-30T13:02:01Z</time>
      </trkpt>
      <trkpt lat="45.881102392449975" lon="7.980588795617223">
        <ele>2064.98</ele>
        <time>2023-07-30T13:02:15Z</time>
      </trkpt>
      <trkpt lat="45.881022596731782" lon="7.980583095923066">
        <ele>2062.4000000000001</ele>
        <time>2023-07-30T13:02:30Z</time>
      </trkpt>
      <trkpt lat="45.880930395796895" lon="7.980628106743097">
        <ele>2059.25</ele>
        <time>2023-07-30T13:02:44Z</time>
      </trkpt>
      <trkpt lat="45.88083827868104" lon="7.980709411203861">
        <ele>2054.5500000000002</ele>
        <time>2023-07-30T13:02:59Z</time>
      </trkpt>
      <trkpt lat="45.880784215405583" lon="7.980784848332405">
        <ele>2051.6700000000001</ele>
        <time>2023-07-30T13:03:14Z</time>
      </trkpt>
      <trkpt lat="45.880767535418272" lon="7.980841509997845">
        <ele>2049.6399999999999</ele>
        <time>2023-07-30T13:03:30Z</time>
      </trkpt>
      <trkpt lat="45.880744066089392" lon="7.980901189148426">
        <ele>2048.1100000000001</ele>
        <time>2023-07-30T13:03:45Z</time>
      </trkpt>
      <trkpt lat="45.880734510719776" lon="7.980939410626888">
        <ele>2047.5699999999999</ele>
        <time>2023-07-30T13:03:49Z</time>
      </trkpt>
      <trkpt lat="45.88072688318789" lon="7.980965813621879">
        <ele>2047.05</ele>
        <time>2023-07-30T13:03:51Z</time>
      </trkpt>
      <trkpt lat="45.880694361403584" lon="7.981031108647585">
        <ele>2045.52</ele>
        <time>2023-07-30T13:03:57Z</time>
      </trkpt>
      <trkpt lat="45.88068581186235" lon="7.981038819998503">
        <ele>2045.3499999999999</ele>
        <time>2023-07-30T13:03:58Z</time>
      </trkpt>
      <trkpt lat="45.880631413310766" lon="7.981132864952087">
        <ele>2042.45</ele>
        <time>2023-07-30T13:04:12Z</time>
      </trkpt>
      <trkpt lat="45.880646165460348" lon="7.9812150914222">
        <ele>2041.1199999999999</ele>
        <time>2023-07-30T13:04:26Z</time>
      </trkpt>
      <trkpt lat="45.88065161369741" lon="7.981227999553084">
        <ele>2041.05</ele>
        <time>2023-07-30T13:04:27Z</time>
      </trkpt>
      <trkpt lat="45.880653876811266" lon="7.981242248788476">
        <ele>2040.8800000000001</ele>
        <time>2023-07-30T13:04:28Z</time>
      </trkpt>
      <trkpt lat="45.880567627027631" lon="7.981239147484303">
        <ele>2038.6700000000001</ele>
        <time>2023-07-30T13:04:40Z</time>
      </trkpt>
      <trkpt lat="45.880574667826295" lon="7.981361355632544">
        <ele>2033.3599999999999</ele>
        <time>2023-07-30T13:04:55Z</time>
      </trkpt>
      <trkpt lat="45.880614230409265" lon="7.981493705883622">
        <ele>2029.28</ele>
        <time>2023-07-30T13:05:09Z</time>
      </trkpt>
      <trkpt lat="45.880650775507092" lon="7.9816157463938">
        <ele>2026.22</ele>
        <time>2023-07-30T13:05:22Z</time>
      </trkpt>
      <trkpt lat="45.88069218210876" lon="7.981752706691623">
        <ele>2019.1099999999999</ele>
        <time>2023-07-30T13:05:39Z</time>
      </trkpt>
      <trkpt lat="45.880733169615269" lon="7.98180584795773">
        <ele>2018.3699999999999</ele>
        <time>2023-07-30T13:05:52Z</time>
      </trkpt>
      <trkpt lat="45.880762338638306" lon="7.981979018077254">
        <ele>2016.8099999999999</ele>
        <time>2023-07-30T13:06:09Z</time>
      </trkpt>
      <trkpt lat="45.88078647851944" lon="7.982117906212807">
        <ele>2015.0699999999999</ele>
        <time>2023-07-30T13:06:24Z</time>
      </trkpt>
      <trkpt lat="45.880793100222945" lon="7.982125785201788">
        <ele>2014.99</ele>
        <time>2023-07-30T13:06:25Z</time>
      </trkpt>
      <trkpt lat="45.880805421620607" lon="7.982145650312305">
        <ele>2015.05</ele>
        <time>2023-07-30T13:06:27Z</time>
      </trkpt>
      <trkpt lat="45.880744988098741" lon="7.982189571484923">
        <ele>2013.8299999999999</ele>
        <time>2023-07-30T13:06:40Z</time>
      </trkpt>
      <trkpt lat="45.880734845995903" lon="7.982183285057545">
        <ele>2013.77</ele>
        <time>2023-07-30T13:06:41Z</time>
      </trkpt>
      <trkpt lat="45.880741300061345" lon="7.982265176251531">
        <ele>2009.8199999999999</ele>
        <time>2023-07-30T13:06:53Z</time>
      </trkpt>
      <trkpt lat="45.880797458812594" lon="7.982436837628484">
        <ele>2005.3900000000001</ele>
        <time>2023-07-30T13:07:12Z</time>
      </trkpt>
      <trkpt lat="45.880796620622277" lon="7.982436502352357">
        <ele>2005.5999999999999</ele>
        <time>2023-07-30T13:07:53Z</time>
      </trkpt>
      <trkpt lat="45.880875326693058" lon="7.982502467930317">
        <ele>2004.3599999999999</ele>
        <time>2023-07-30T13:08:06Z</time>
      </trkpt>
      <trkpt lat="45.880958056077361" lon="7.982561225071549">
        <ele>2002.28</ele>
        <time>2023-07-30T13:08:19Z</time>
      </trkpt>
      <trkpt lat="45.88099610991776" lon="7.982564996927977">
        <ele>2001.28</ele>
        <time>2023-07-30T13:08:23Z</time>
      </trkpt>
      <trkpt lat="45.881080850958824" lon="7.982557956129313">
        <ele>1999.6900000000001</ele>
        <time>2023-07-30T13:08:32Z</time>
      </trkpt>
      <trkpt lat="45.881178416311741" lon="7.982583018019795">
        <ele>1996.5799999999999</ele>
        <time>2023-07-30T13:08:45Z</time>
      </trkpt>
      <trkpt lat="45.881216553971171" lon="7.982545047998428">
        <ele>1995.1400000000001</ele>
        <time>2023-07-30T13:08:50Z</time>
      </trkpt>
      <trkpt lat="45.881214374676347" lon="7.982614198699594">
        <ele>1993.9400000000001</ele>
        <time>2023-07-30T13:08:58Z</time>
      </trkpt>
      <trkpt lat="45.881156455725431" lon="7.982714446261525">
        <ele>1993.8199999999999</ele>
        <time>2023-07-30T13:09:08Z</time>
      </trkpt>
      <trkpt lat="45.881117479875684" lon="7.982812849804759">
        <ele>1992.76</ele>
        <time>2023-07-30T13:09:17Z</time>
      </trkpt>
      <trkpt lat="45.881112283095717" lon="7.982825422659516">
        <ele>1992.6199999999999</ele>
        <time>2023-07-30T13:09:18Z</time>
      </trkpt>
      <trkpt lat="45.881073977798223" lon="7.982915611937642">
        <ele>1990.48</ele>
        <time>2023-07-30T13:09:28Z</time>
      </trkpt>
      <trkpt lat="45.881046736612916" lon="7.983059529215097">
        <ele>1988.48</ele>
        <time>2023-07-30T13:09:41Z</time>
      </trkpt>
      <trkpt lat="45.881018238142133" lon="7.983259102329612">
        <ele>1985.8699999999999</ele>
        <time>2023-07-30T13:09:58Z</time>
      </trkpt>
      <trkpt lat="45.880913212895393" lon="7.983295312151313">
        <ele>1982.99</ele>
        <time>2023-07-30T13:10:13Z</time>
      </trkpt>
      <trkpt lat="45.880887312814593" lon="7.983284499496222">
        <ele>1982.55</ele>
        <time>2023-07-30T13:10:16Z</time>
      </trkpt>
      <trkpt lat="45.880798464640975" lon="7.983211409300566">
        <ele>1980.74</ele>
        <time>2023-07-30T13:10:28Z</time>
      </trkpt>
      <trkpt lat="45.880822939798236" lon="7.983314422890544">
        <ele>1979.5599999999999</ele>
        <time>2023-07-30T13:10:41Z</time>
      </trkpt>
      <trkpt lat="45.880911285057664" lon="7.98351114615798">
        <ele>1978.9000000000001</ele>
        <time>2023-07-30T13:11:00Z</time>
      </trkpt>
      <trkpt lat="45.880984039977193" lon="7.983630253002048">
        <ele>1974.3099999999999</ele>
        <time>2023-07-30T13:11:15Z</time>
      </trkpt>
      <trkpt lat="45.880967443808913" lon="7.983699403703213">
        <ele>1971.25</ele>
        <time>2023-07-30T13:11:29Z</time>
      </trkpt>
      <trkpt lat="45.880877505987883" lon="7.983645172789693">
        <ele>1968.4000000000001</ele>
        <time>2023-07-30T13:11:41Z</time>
      </trkpt>
      <trkpt lat="45.880830818787217" lon="7.983706444501877">
        <ele>1967.1500000000001</ele>
        <time>2023-07-30T13:11:53Z</time>
      </trkpt>
      <trkpt lat="45.880817826837301" lon="7.983848853036761">
        <ele>1963.9300000000001</ele>
        <time>2023-07-30T13:12:07Z</time>
      </trkpt>
      <trkpt lat="45.88082411326468" lon="7.983897887170315">
        <ele>1963.28</ele>
        <time>2023-07-30T13:12:11Z</time>
      </trkpt>
      <trkpt lat="45.880819335579872" lon="7.983946166932583">
        <ele>1962.5599999999999</ele>
        <time>2023-07-30T13:12:15Z</time>
      </trkpt>
      <trkpt lat="45.880810031667352" lon="7.984095951542258">
        <ele>1959.1500000000001</ele>
        <time>2023-07-30T13:12:30Z</time>
      </trkpt>
      <trkpt lat="45.880825454369187" lon="7.984089078381658">
        <ele>1959.0699999999999</ele>
        <time>2023-07-30T13:12:32Z</time>
      </trkpt>
      <trkpt lat="45.880835428833961" lon="7.984082959592342">
        <ele>1959.03</ele>
        <time>2023-07-30T13:12:33Z</time>
      </trkpt>
      <trkpt lat="45.880844984203577" lon="7.984074996784329">
        <ele>1958.98</ele>
        <time>2023-07-30T13:12:34Z</time>
      </trkpt>
      <trkpt lat="45.880854371935129" lon="7.984066447243094">
        <ele>1958.8699999999999</ele>
        <time>2023-07-30T13:12:35Z</time>
      </trkpt>
      <trkpt lat="45.88086367584765" lon="7.984059825539589">
        <ele>1958.8699999999999</ele>
        <time>2023-07-30T13:12:36Z</time>
      </trkpt>
      <trkpt lat="45.880873650312424" lon="7.984055634588003">
        <ele>1958.8699999999999</ele>
        <time>2023-07-30T13:12:37Z</time>
      </trkpt>
      <trkpt lat="45.88089837692678" lon="7.984056891873479">
        <ele>1958.4200000000001</ele>
        <time>2023-07-30T13:12:40Z</time>
      </trkpt>
      <trkpt lat="45.881001222878695" lon="7.984111206606031">
        <ele>1955.8299999999999</ele>
        <time>2023-07-30T13:12:55Z</time>
      </trkpt>
      <trkpt lat="45.88108847849071" lon="7.984100058674812">
        <ele>1952.6099999999999</ele>
        <time>2023-07-30T13:13:09Z</time>
      </trkpt>
      <trkpt lat="45.881175482645631" lon="7.984053790569305">
        <ele>1947.98</ele>
        <time>2023-07-30T13:13:23Z</time>
      </trkpt>
      <trkpt lat="45.881198029965162" lon="7.984062004834414">
        <ele>1946.3499999999999</ele>
        <time>2023-07-30T13:13:33Z</time>
      </trkpt>
      <trkpt lat="45.881125861778855" lon="7.984197037294507">
        <ele>1944.03</ele>
        <time>2023-07-30T13:13:48Z</time>
      </trkpt>
      <trkpt lat="45.881120162084699" lon="7.984209442511201">
        <ele>1943.8699999999999</ele>
        <time>2023-07-30T13:13:49Z</time>
      </trkpt>
      <trkpt lat="45.881031984463334" lon="7.984327794983983">
        <ele>1941.97</ele>
        <time>2023-07-30T13:14:03Z</time>
      </trkpt>
      <trkpt lat="45.881010107696056" lon="7.984485039487481">
        <ele>1938.9300000000001</ele>
        <time>2023-07-30T13:14:19Z</time>
      </trkpt>
      <trkpt lat="45.880989404395223" lon="7.984543461352587">
        <ele>1938.3399999999999</ele>
        <time>2023-07-30T13:14:24Z</time>
      </trkpt>
      <trkpt lat="45.880984291434288" lon="7.984557542949915">
        <ele>1938.24</ele>
        <time>2023-07-30T13:14:25Z</time>
      </trkpt>
      <trkpt lat="45.880916314199567" lon="7.984667429700494">
        <ele>1936.4000000000001</ele>
        <time>2023-07-30T13:14:39Z</time>
      </trkpt>
      <trkpt lat="45.881010191515088" lon="7.984584616497159">
        <ele>1930.46</ele>
        <time>2023-07-30T13:14:57Z</time>
      </trkpt>
      <trkpt lat="45.881052436307073" lon="7.984567265957594">
        <ele>1929.04</ele>
        <time>2023-07-30T13:15:02Z</time>
      </trkpt>
      <trkpt lat="45.881172213703394" lon="7.984486380591989">
        <ele>1924.9100000000001</ele>
        <time>2023-07-30T13:15:18Z</time>
      </trkpt>
      <trkpt lat="45.881306491792202" lon="7.98440339975059">
        <ele>1923.0599999999999</ele>
        <time>2023-07-30T13:15:35Z</time>
      </trkpt>
      <trkpt lat="45.881417887285352" lon="7.984316730871797">
        <ele>1921.0899999999999</ele>
        <time>2023-07-30T13:15:51Z</time>
      </trkpt>
      <trkpt lat="45.88155023753643" lon="7.984150014817715">
        <ele>1918.1800000000001</ele>
        <time>2023-07-30T13:16:10Z</time>
      </trkpt>
      <trkpt lat="45.881598265841603" lon="7.984114559367299">
        <ele>1917.23</ele>
        <time>2023-07-30T13:16:17Z</time>
      </trkpt>
      <trkpt lat="45.881584854796529" lon="7.984234504401684">
        <ele>1915.6800000000001</ele>
        <time>2023-07-30T13:16:29Z</time>
      </trkpt>
      <trkpt lat="45.881537664681673" lon="7.984388060867786">
        <ele>1912.74</ele>
        <time>2023-07-30T13:16:45Z</time>
      </trkpt>
      <trkpt lat="45.881488211452961" lon="7.98458126373589">
        <ele>1911.26</ele>
        <time>2023-07-30T13:17:02Z</time>
      </trkpt>
      <trkpt lat="45.881436662748456" lon="7.984729371964932">
        <ele>1909.6600000000001</ele>
        <time>2023-07-30T13:17:17Z</time>
      </trkpt>
      <trkpt lat="45.881425682455301" lon="7.984767844900489">
        <ele>1909.76</ele>
        <time>2023-07-30T13:17:20Z</time>
      </trkpt>
      <trkpt lat="45.881415624171495" lon="7.98490128479898">
        <ele>1908.3900000000001</ele>
        <time>2023-07-30T13:17:33Z</time>
      </trkpt>
      <trkpt lat="45.881338762119412" lon="7.984970854595304">
        <ele>1906.97</ele>
        <time>2023-07-30T13:17:49Z</time>
      </trkpt>
      <trkpt lat="45.881316885352135" lon="7.985005052760243">
        <ele>1907.0799999999999</ele>
        <time>2023-07-30T13:18:05Z</time>
      </trkpt>
      <trkpt lat="45.881260307505727" lon="7.985107395797968">
        <ele>1905.8800000000001</ele>
        <time>2023-07-30T13:18:17Z</time>
      </trkpt>
      <trkpt lat="45.881201047450304" lon="7.985207810997963">
        <ele>1903.04</ele>
        <time>2023-07-30T13:18:32Z</time>
      </trkpt>
      <trkpt lat="45.881151342764497" lon="7.98532105050981">
        <ele>1899.8</ele>
        <time>2023-07-30T13:18:46Z</time>
      </trkpt>
      <trkpt lat="45.881126532331109" lon="7.985373185947537">
        <ele>1898.72</ele>
        <time>2023-07-30T13:18:51Z</time>
      </trkpt>
      <trkpt lat="45.881117647513747" lon="7.985382070764899">
        <ele>1898.51</ele>
        <time>2023-07-30T13:18:52Z</time>
      </trkpt>
      <trkpt lat="45.881086969748139" lon="7.985445773229003">
        <ele>1895.02</ele>
        <time>2023-07-30T13:19:06Z</time>
      </trkpt>
      <trkpt lat="45.881182523444295" lon="7.985404366627336">
        <ele>1890.1900000000001</ele>
        <time>2023-07-30T13:19:23Z</time>
      </trkpt>
      <trkpt lat="45.881288638338447" lon="7.985400846228004">
        <ele>1888.0999999999999</ele>
        <time>2023-07-30T13:19:38Z</time>
      </trkpt>
      <trkpt lat="45.881399279460311" lon="7.98544124700129">
        <ele>1884.0799999999999</ele>
        <time>2023-07-30T13:19:55Z</time>
      </trkpt>
      <trkpt lat="45.881524924188852" lon="7.985420627519488">
        <ele>1882.5599999999999</ele>
        <time>2023-07-30T13:20:10Z</time>
      </trkpt>
      <trkpt lat="45.88164210319519" lon="7.985393637791276">
        <ele>1881.26</ele>
        <time>2023-07-30T13:20:24Z</time>
      </trkpt>
      <trkpt lat="45.881672948598862" lon="7.985518360510469">
        <ele>1880.0799999999999</ele>
        <time>2023-07-30T13:20:37Z</time>
      </trkpt>
      <trkpt lat="45.881645791232586" lon="7.985633946955204">
        <ele>1879.1099999999999</ele>
        <time>2023-07-30T13:20:48Z</time>
      </trkpt>
      <trkpt lat="45.881648724898696" lon="7.985657332465053">
        <ele>1875.22</ele>
        <time>2023-07-30T13:21:01Z</time>
      </trkpt>
      <trkpt lat="45.881718127056956" lon="7.985673425719142">
        <ele>1872.3499999999999</ele>
        <time>2023-07-30T13:21:16Z</time>
      </trkpt>
      <trkpt lat="45.881697591394186" lon="7.985709384083748">
        <ele>1871.8499999999999</ele>
        <time>2023-07-30T13:21:20Z</time>
      </trkpt>
      <trkpt lat="45.881681581959128" lon="7.985768895596266">
        <ele>1868.8</ele>
        <time>2023-07-30T13:21:33Z</time>
      </trkpt>
      <trkpt lat="45.88169046677649" lon="7.985769649967551">
        <ele>1868.55</ele>
        <time>2023-07-30T13:21:34Z</time>
      </trkpt>
      <trkpt lat="45.881744865328074" lon="7.985857408493757">
        <ele>1865.6600000000001</ele>
        <time>2023-07-30T13:21:47Z</time>
      </trkpt>
      <trkpt lat="45.881837317720056" lon="7.985948352143168">
        <ele>1864</ele>
        <time>2023-07-30T13:22:00Z</time>
      </trkpt>
      <trkpt lat="45.881844023242593" lon="7.985960338264704">
        <ele>1863.95</ele>
        <time>2023-07-30T13:22:01Z</time>
      </trkpt>
      <trkpt lat="45.881901942193508" lon="7.986024962738156">
        <ele>1863.3499999999999</ele>
        <time>2023-07-30T13:22:09Z</time>
      </trkpt>
      <trkpt lat="45.882040830329061" lon="7.9861194267869">
        <ele>1860.51</ele>
        <time>2023-07-30T13:22:25Z</time>
      </trkpt>
      <trkpt lat="45.882178880274296" lon="7.986324112862349">
        <ele>1856.6199999999999</ele>
        <time>2023-07-30T13:22:46Z</time>
      </trkpt>
      <trkpt lat="45.882275775074959" lon="7.986476328223944">
        <ele>1853.72</ele>
        <time>2023-07-30T13:23:02Z</time>
      </trkpt>
      <trkpt lat="45.882255658507347" lon="7.986493092030287">
        <ele>1853.02</ele>
        <time>2023-07-30T13:23:05Z</time>
      </trkpt>
      <trkpt lat="45.88222112506628" lon="7.986508933827281">
        <ele>1852.3199999999999</ele>
        <time>2023-07-30T13:23:09Z</time>
      </trkpt>
      <trkpt lat="45.882210899144411" lon="7.986514298245311">
        <ele>1852.0999999999999</ele>
        <time>2023-07-30T13:23:10Z</time>
      </trkpt>
      <trkpt lat="45.882080225273967" lon="7.986570289358497">
        <ele>1849.5799999999999</ele>
        <time>2023-07-30T13:23:25Z</time>
      </trkpt>
      <trkpt lat="45.882030269131064" lon="7.986618066206574">
        <ele>1848.72</ele>
        <time>2023-07-30T13:23:31Z</time>
      </trkpt>
      <trkpt lat="45.882022054865956" lon="7.986626783385873">
        <ele>1848.5899999999999</ele>
        <time>2023-07-30T13:23:32Z</time>
      </trkpt>
      <trkpt lat="45.881982743740082" lon="7.986665507778525">
        <ele>1847.9300000000001</ele>
        <time>2023-07-30T13:23:37Z</time>
      </trkpt>
      <trkpt lat="45.882025826722383" lon="7.986699286848307">
        <ele>1846.1099999999999</ele>
        <time>2023-07-30T13:23:48Z</time>
      </trkpt>
      <trkpt lat="45.882086679339409" lon="7.986740106716752">
        <ele>1844.8599999999999</ele>
        <time>2023-07-30T13:23:56Z</time>
      </trkpt>
      <trkpt lat="45.882096402347088" lon="7.98674589022994">
        <ele>1844.76</ele>
        <time>2023-07-30T13:23:57Z</time>
      </trkpt>
      <trkpt lat="45.882105454802513" lon="7.986755780875683">
        <ele>1844.5999999999999</ele>
        <time>2023-07-30T13:23:58Z</time>
      </trkpt>
      <trkpt lat="45.882139317691326" lon="7.986803473904729">
        <ele>1843.5</ele>
        <time>2023-07-30T13:24:03Z</time>
      </trkpt>
      <trkpt lat="45.882117608562112" lon="7.986830547451973">
        <ele>1842.8900000000001</ele>
        <time>2023-07-30T13:24:06Z</time>
      </trkpt>
      <trkpt lat="45.882108053192496" lon="7.986837923526764">
        <ele>1842.71</ele>
        <time>2023-07-30T13:24:07Z</time>
      </trkpt>
      <trkpt lat="45.88199439458549" lon="7.986947558820248">
        <ele>1839.1500000000001</ele>
        <time>2023-07-30T13:24:23Z</time>
      </trkpt>
      <trkpt lat="45.881962710991502" lon="7.986988043412566">
        <ele>1838.27</ele>
        <time>2023-07-30T13:24:31Z</time>
      </trkpt>
      <trkpt lat="45.881944941356778" lon="7.987000867724419">
        <ele>1838.0699999999999</ele>
        <time>2023-07-30T13:24:33Z</time>
      </trkpt>
      <trkpt lat="45.881935218349099" lon="7.987040178850293">
        <ele>1835.8099999999999</ele>
        <time>2023-07-30T13:24:40Z</time>
      </trkpt>
      <trkpt lat="45.882001686841249" lon="7.987144617363811">
        <ele>1832.4300000000001</ele>
        <time>2023-07-30T13:24:51Z</time>
      </trkpt>
      <trkpt lat="45.88210285641253" lon="7.987284762784839">
        <ele>1830.3399999999999</ele>
        <time>2023-07-30T13:25:07Z</time>
      </trkpt>
      <trkpt lat="45.882220705971122" lon="7.987406551837921">
        <ele>1828.1099999999999</ele>
        <time>2023-07-30T13:25:23Z</time>
      </trkpt>
      <trkpt lat="45.882235122844577" lon="7.987425914034247">
        <ele>1827.8599999999999</ele>
        <time>2023-07-30T13:25:25Z</time>
      </trkpt>
      <trkpt lat="45.882282312959433" lon="7.987594641745091">
        <ele>1824.9200000000001</ele>
        <time>2023-07-30T13:25:40Z</time>
      </trkpt>
      <trkpt lat="45.882272338494658" lon="7.987637054175139">
        <ele>1824.5699999999999</ele>
        <time>2023-07-30T13:25:54Z</time>
      </trkpt>
      <trkpt lat="45.882358588278294" lon="7.987689357250929">
        <ele>1822.6900000000001</ele>
        <time>2023-07-30T13:26:07Z</time>
      </trkpt>
      <trkpt lat="45.882432432845235" lon="7.987803183495998">
        <ele>1820.05</ele>
        <time>2023-07-30T13:26:23Z</time>
      </trkpt>
      <trkpt lat="45.882421620190144" lon="7.987878704443574">
        <ele>1818.6400000000001</ele>
        <time>2023-07-30T13:26:39Z</time>
      </trkpt>
      <trkpt lat="45.882418435066938" lon="7.987881470471621">
        <ele>1819.8599999999999</ele>
        <time>2023-07-30T13:27:14Z</time>
      </trkpt>
      <trkpt lat="45.882418602705002" lon="7.987892786040902">
        <ele>1820.0699999999999</ele>
        <time>2023-07-30T13:31:10Z</time>
      </trkpt>
      <trkpt lat="45.882417764514685" lon="7.987904688343406">
        <ele>1819.46</ele>
        <time>2023-07-30T13:31:37Z</time>
      </trkpt>
      <trkpt lat="45.882408879697323" lon="7.9879239667207">
        <ele>1813.3699999999999</ele>
        <time>2023-07-30T13:48:18Z</time>
      </trkpt>
      <trkpt lat="45.882359510287642" lon="7.987959003075957">
        <ele>1814.23</ele>
        <time>2023-07-30T13:48:33Z</time>
      </trkpt>
      <trkpt lat="45.882315253838897" lon="7.987991692498326">
        <ele>1814.49</ele>
        <time>2023-07-30T13:48:50Z</time>
      </trkpt>
      <trkpt lat="45.882312068715692" lon="7.988000242039561">
        <ele>1814.3299999999999</ele>
        <time>2023-07-30T13:48:51Z</time>
      </trkpt>
      <trkpt lat="45.88222648948431" lon="7.988107530400157">
        <ele>1813.47</ele>
        <time>2023-07-30T13:49:06Z</time>
      </trkpt>
      <trkpt lat="45.882159685716033" lon="7.988150110468268">
        <ele>1814.3299999999999</ele>
        <time>2023-07-30T13:49:21Z</time>
      </trkpt>
      <trkpt lat="45.882085673511028" lon="7.988100238144398">
        <ele>1815.1700000000001</ele>
        <time>2023-07-30T13:49:38Z</time>
      </trkpt>
      <trkpt lat="45.882015852257609" lon="7.988210543990135">
        <ele>1812.1400000000001</ele>
        <time>2023-07-30T13:49:53Z</time>
      </trkpt>
      <trkpt lat="45.881986683234572" lon="7.988227223977447">
        <ele>1811.3399999999999</ele>
        <time>2023-07-30T13:49:57Z</time>
      </trkpt>
      <trkpt lat="45.881863217800856" lon="7.988296123221517">
        <ele>1807.72</ele>
        <time>2023-07-30T13:50:16Z</time>
      </trkpt>
      <trkpt lat="45.88195382617414" lon="7.988413218408823">
        <ele>1802.1500000000001</ele>
        <time>2023-07-30T13:50:33Z</time>
      </trkpt>
      <trkpt lat="45.882005039602518" lon="7.988501060754061">
        <ele>1798.76</ele>
        <time>2023-07-30T13:50:43Z</time>
      </trkpt>
      <trkpt lat="45.881983917206526" lon="7.988547161221504">
        <ele>1797.98</ele>
        <time>2023-07-30T13:50:47Z</time>
      </trkpt>
      <trkpt lat="45.881902696564794" lon="7.988651432096958">
        <ele>1796.9400000000001</ele>
        <time>2023-07-30T13:50:59Z</time>
      </trkpt>
      <trkpt lat="45.881945695728064" lon="7.98876685090363">
        <ele>1798.5699999999999</ele>
        <time>2023-07-30T13:51:11Z</time>
      </trkpt>
      <trkpt lat="45.882029850035906" lon="7.988884700462222">
        <ele>1796.0899999999999</ele>
        <time>2023-07-30T13:51:24Z</time>
      </trkpt>
      <trkpt lat="45.882142586633563" lon="7.988932561129332">
        <ele>1792.5699999999999</ele>
        <time>2023-07-30T13:51:39Z</time>
      </trkpt>
      <trkpt lat="45.882304273545742" lon="7.988938679918647">
        <ele>1793.6400000000001</ele>
        <time>2023-07-30T13:51:58Z</time>
      </trkpt>
      <trkpt lat="45.882364036515355" lon="7.989010764285922">
        <ele>1790.3</ele>
        <time>2023-07-30T13:52:13Z</time>
      </trkpt>
      <trkpt lat="45.882264208048582" lon="7.989103887230158">
        <ele>1787.03</ele>
        <time>2023-07-30T13:52:28Z</time>
      </trkpt>
      <trkpt lat="45.882213748991489" lon="7.989174043759704">
        <ele>1785.1400000000001</ele>
        <time>2023-07-30T13:52:36Z</time>
      </trkpt>
      <trkpt lat="45.882115680724382" lon="7.989293821156025">
        <ele>1781.1400000000001</ele>
        <time>2023-07-30T13:52:53Z</time>
      </trkpt>
      <trkpt lat="45.882107717916369" lon="7.989385267719626">
        <ele>1777.5799999999999</ele>
        <time>2023-07-30T13:53:10Z</time>
      </trkpt>
      <trkpt lat="45.882160440087318" lon="7.989409742876887">
        <ele>1772.4300000000001</ele>
        <time>2023-07-30T13:53:24Z</time>
      </trkpt>
      <trkpt lat="45.882214419543743" lon="7.989385100081563">
        <ele>1771.1800000000001</ele>
        <time>2023-07-30T13:53:31Z</time>
      </trkpt>
      <trkpt lat="45.882296310737729" lon="7.989350482821465">
        <ele>1770.6700000000001</ele>
        <time>2023-07-30T13:53:40Z</time>
      </trkpt>
      <trkpt lat="45.882412903010845" lon="7.989307399839163">
        <ele>1768.46</ele>
        <time>2023-07-30T13:53:58Z</time>
      </trkpt>
      <trkpt lat="45.882399408146739" lon="7.989347716793418">
        <ele>1767.4100000000001</ele>
        <time>2023-07-30T13:54:03Z</time>
      </trkpt>
      <trkpt lat="45.882370574399829" lon="7.989424243569374">
        <ele>1766.46</ele>
        <time>2023-07-30T13:54:09Z</time>
      </trkpt>
      <trkpt lat="45.882316678762436" lon="7.98955257050693">
        <ele>1763.71</ele>
        <time>2023-07-30T13:54:23Z</time>
      </trkpt>
      <trkpt lat="45.882239816710353" lon="7.989694895222783">
        <ele>1760.9000000000001</ele>
        <time>2023-07-30T13:54:41Z</time>
      </trkpt>
      <trkpt lat="45.882254568859935" lon="7.989785419777036">
        <ele>1757.9400000000001</ele>
        <time>2023-07-30T13:54:57Z</time>
      </trkpt>
      <trkpt lat="45.882324641570449" lon="7.989841746166349">
        <ele>1753.23</ele>
        <time>2023-07-30T13:55:14Z</time>
      </trkpt>
      <trkpt lat="45.882347356528044" lon="7.989942412823439">
        <ele>1749.8299999999999</ele>
        <time>2023-07-30T13:55:30Z</time>
      </trkpt>
      <trkpt lat="45.882393037900329" lon="7.989935707300901">
        <ele>1749.3499999999999</ele>
        <time>2023-07-30T13:55:34Z</time>
      </trkpt>
      <trkpt lat="45.882464535534382" lon="7.989835878834128">
        <ele>1746.0899999999999</ele>
        <time>2023-07-30T13:55:48Z</time>
      </trkpt>
      <trkpt lat="45.882482891902328" lon="7.989896479994059">
        <ele>1742.4400000000001</ele>
        <time>2023-07-30T13:55:57Z</time>
      </trkpt>
      <trkpt lat="45.88246445171535" lon="7.990125641226769">
        <ele>1738.78</ele>
        <time>2023-07-30T13:56:15Z</time>
      </trkpt>
      <trkpt lat="45.882394043728709" lon="7.990176938474178">
        <ele>1736.75</ele>
        <time>2023-07-30T13:56:29Z</time>
      </trkpt>
      <trkpt lat="45.882397564128041" lon="7.990245502442122">
        <ele>1735.6300000000001</ele>
        <time>2023-07-30T13:56:35Z</time>
      </trkpt>
      <trkpt lat="45.882419357076287" lon="7.990306187421084">
        <ele>1735.3</ele>
        <time>2023-07-30T13:56:40Z</time>
      </trkpt>
      <trkpt lat="45.882362192496657" lon="7.990315407514572">
        <ele>1734.48</ele>
        <time>2023-07-30T13:56:52Z</time>
      </trkpt>
      <trkpt lat="45.882300501689315" lon="7.990367710590363">
        <ele>1731.3499999999999</ele>
        <time>2023-07-30T13:57:06Z</time>
      </trkpt>
      <trkpt lat="45.882357330992818" lon="7.990519423037767">
        <ele>1728.25</ele>
        <time>2023-07-30T13:57:21Z</time>
      </trkpt>
      <trkpt lat="45.882289856672287" lon="7.990499809384346">
        <ele>1718.95</ele>
        <time>2023-07-30T13:58:06Z</time>
      </trkpt>
      <trkpt lat="45.88227728381753" lon="7.990548340603709">
        <ele>1716.29</ele>
        <time>2023-07-30T13:58:20Z</time>
      </trkpt>
      <trkpt lat="45.882204696536064" lon="7.990640625357628">
        <ele>1712.9000000000001</ele>
        <time>2023-07-30T13:58:34Z</time>
      </trkpt>
      <trkpt lat="45.882150884717703" lon="7.990682953968644">
        <ele>1710.4400000000001</ele>
        <time>2023-07-30T13:58:48Z</time>
      </trkpt>
      <trkpt lat="45.882040159776807" lon="7.990738609805703">
        <ele>1706.6700000000001</ele>
        <time>2023-07-30T13:59:08Z</time>
      </trkpt>
      <trkpt lat="45.881973104551435" lon="7.990829721093178">
        <ele>1703.27</ele>
        <time>2023-07-30T13:59:22Z</time>
      </trkpt>
      <trkpt lat="45.881979474797845" lon="7.9909045714885">
        <ele>1701.3499999999999</ele>
        <time>2023-07-30T13:59:38Z</time>
      </trkpt>
      <trkpt lat="45.881977966055274" lon="7.99096173606813">
        <ele>1700.3499999999999</ele>
        <time>2023-07-30T13:59:52Z</time>
      </trkpt>
      <trkpt lat="45.882011074572802" lon="7.991025103256106">
        <ele>1699.49</ele>
        <time>2023-07-30T14:00:06Z</time>
      </trkpt>
      <trkpt lat="45.882018199190497" lon="7.99102527089417">
        <ele>1699.3599999999999</ele>
        <time>2023-07-30T14:00:07Z</time>
      </trkpt>
      <trkpt lat="45.88210922665894" lon="7.991044633090496">
        <ele>1700.6500000000001</ele>
        <time>2023-07-30T14:00:22Z</time>
      </trkpt>
      <trkpt lat="45.882027503103018" lon="7.991177318617702">
        <ele>1699.54</ele>
        <time>2023-07-30T14:00:39Z</time>
      </trkpt>
      <trkpt lat="45.881975283846259" lon="7.991280751302838">
        <ele>1698.3199999999999</ele>
        <time>2023-07-30T14:00:59Z</time>
      </trkpt>
      <trkpt lat="45.882083075121045" lon="7.991329869255424">
        <ele>1698.8900000000001</ele>
        <time>2023-07-30T14:01:12Z</time>
      </trkpt>
      <trkpt lat="45.882166475057602" lon="7.991391308605671">
        <ele>1695.5899999999999</ele>
        <time>2023-07-30T14:01:26Z</time>
      </trkpt>
      <trkpt lat="45.882287342101336" lon="7.991414442658424">
        <ele>1691.8699999999999</ele>
        <time>2023-07-30T14:01:45Z</time>
      </trkpt>
      <trkpt lat="45.882349535822868" lon="7.9913932364434">
        <ele>1689.47</ele>
        <time>2023-07-30T14:01:53Z</time>
      </trkpt>
      <trkpt lat="45.882439976558089" lon="7.991420729085803">
        <ele>1685.6199999999999</ele>
        <time>2023-07-30T14:02:07Z</time>
      </trkpt>
      <trkpt lat="45.882540559396148" lon="7.991422656923533">
        <ele>1683.24</ele>
        <time>2023-07-30T14:02:20Z</time>
      </trkpt>
      <trkpt lat="45.882681543007493" lon="7.991420812904835">
        <ele>1678.45</ele>
        <time>2023-07-30T14:02:40Z</time>
      </trkpt>
      <trkpt lat="45.882779695093632" lon="7.991419807076454">
        <ele>1674.0599999999999</ele>
        <time>2023-07-30T14:02:56Z</time>
      </trkpt>
      <trkpt lat="45.882904920727015" lon="7.991497255861759">
        <ele>1668.77</ele>
        <time>2023-07-30T14:03:15Z</time>
      </trkpt>
      <trkpt lat="45.883084293454885" lon="7.991541009396315">
        <ele>1666.0899999999999</ele>
        <time>2023-07-30T14:03:30Z</time>
      </trkpt>
      <trkpt lat="45.883092004805803" lon="7.991532040759921">
        <ele>1667.8399999999999</ele>
        <time>2023-07-30T14:03:54Z</time>
      </trkpt>
      <trkpt lat="45.883113797754049" lon="7.991521144285798">
        <ele>1668.73</ele>
        <time>2023-07-30T14:04:10Z</time>
      </trkpt>
      <trkpt lat="45.883186217397451" lon="7.991535225883126">
        <ele>1671.02</ele>
        <time>2023-07-30T14:04:26Z</time>
      </trkpt>
      <trkpt lat="45.883163753896952" lon="7.991603119298816">
        <ele>1670.26</ele>
        <time>2023-07-30T14:04:35Z</time>
      </trkpt>
      <trkpt lat="45.883148163557053" lon="7.991621978580952">
        <ele>1670.4300000000001</ele>
        <time>2023-07-30T14:04:37Z</time>
      </trkpt>
      <trkpt lat="45.883120335638523" lon="7.991652823984623">
        <ele>1670.3900000000001</ele>
        <time>2023-07-30T14:04:41Z</time>
      </trkpt>
      <trkpt lat="45.883077839389443" lon="7.991696828976274">
        <ele>1669.04</ele>
        <time>2023-07-30T14:04:57Z</time>
      </trkpt>
      <trkpt lat="45.883038444444537" lon="7.991708647459745">
        <ele>1669.8</ele>
        <time>2023-07-30T14:05:22Z</time>
      </trkpt>
      <trkpt lat="45.883019920438528" lon="7.991782911121845">
        <ele>1667.8</ele>
        <time>2023-07-30T14:05:37Z</time>
      </trkpt>
      <trkpt lat="45.883074570447206" lon="7.991791376844049">
        <ele>1666.46</ele>
        <time>2023-07-30T14:05:42Z</time>
      </trkpt>
      <trkpt lat="45.883163418620825" lon="7.991785006597638">
        <ele>1656.22</ele>
        <time>2023-07-30T14:05:54Z</time>
      </trkpt>
      <trkpt lat="45.883249584585428" lon="7.991803949698806">
        <ele>1649.9100000000001</ele>
        <time>2023-07-30T14:06:07Z</time>
      </trkpt>
      <trkpt lat="45.883193258196115" lon="7.991880979388952">
        <ele>1646.5899999999999</ele>
        <time>2023-07-30T14:06:21Z</time>
      </trkpt>
      <trkpt lat="45.883110277354717" lon="7.991956332698464">
        <ele>1645.8399999999999</ele>
        <time>2023-07-30T14:06:34Z</time>
      </trkpt>
      <trkpt lat="45.882957726716995" lon="7.992064291611314">
        <ele>1642.45</ele>
        <time>2023-07-30T14:06:49Z</time>
      </trkpt>
      <trkpt lat="45.88295646943152" lon="7.992191025987268">
        <ele>1638.1700000000001</ele>
        <time>2023-07-30T14:07:07Z</time>
      </trkpt>
      <trkpt lat="45.883079767227173" lon="7.99223218113184">
        <ele>1634.3199999999999</ele>
        <time>2023-07-30T14:07:27Z</time>
      </trkpt>
      <trkpt lat="45.883036935701966" lon="7.99230451695621">
        <ele>1631.1300000000001</ele>
        <time>2023-07-30T14:07:41Z</time>
      </trkpt>
      <trkpt lat="45.883048083633184" lon="7.992413649335504">
        <ele>1630.74</ele>
        <time>2023-07-30T14:07:54Z</time>
      </trkpt>
      <trkpt lat="45.883137015625834" lon="7.992451284080744">
        <ele>1625.77</ele>
        <time>2023-07-30T14:08:14Z</time>
      </trkpt>
      <trkpt lat="45.88314414024353" lon="7.992498558014631">
        <ele>1621.72</ele>
        <time>2023-07-30T14:08:30Z</time>
      </trkpt>
      <trkpt lat="45.883159227669239" lon="7.992525044828653">
        <ele>1616.53</ele>
        <time>2023-07-30T14:08:45Z</time>
      </trkpt>
      <trkpt lat="45.883204657584429" lon="7.992556225508452">
        <ele>1612.9200000000001</ele>
        <time>2023-07-30T14:09:03Z</time>
      </trkpt>
      <trkpt lat="45.883210189640522" lon="7.992612048983574">
        <ele>1610.6300000000001</ele>
        <time>2023-07-30T14:09:19Z</time>
      </trkpt>
      <trkpt lat="45.883208177983761" lon="7.992661250755191">
        <ele>1603.6300000000001</ele>
        <time>2023-07-30T14:09:53Z</time>
      </trkpt>
      <trkpt lat="45.88331613689661" lon="7.992635853588581">
        <ele>1600.95</ele>
        <time>2023-07-30T14:10:14Z</time>
      </trkpt>
      <trkpt lat="45.883305324241519" lon="7.99278236925602">
        <ele>1598.0799999999999</ele>
        <time>2023-07-30T14:10:32Z</time>
      </trkpt>
      <trkpt lat="45.883405907079577" lon="7.992697041481733">
        <ele>1592.05</ele>
        <time>2023-07-30T14:10:51Z</time>
      </trkpt>
      <trkpt lat="45.883346814662218" lon="7.992847496643663">
        <ele>1589.4400000000001</ele>
        <time>2023-07-30T14:11:06Z</time>
      </trkpt>
      <trkpt lat="45.883394842967391" lon="7.992896363139153">
        <ele>1585.3800000000001</ele>
        <time>2023-07-30T14:11:25Z</time>
      </trkpt>
      <trkpt lat="45.88346709497273" lon="7.992851184681058">
        <ele>1583.52</ele>
        <time>2023-07-30T14:11:36Z</time>
      </trkpt>
      <trkpt lat="45.883468519896269" lon="7.992967022582889">
        <ele>1581.22</ele>
        <time>2023-07-30T14:11:51Z</time>
      </trkpt>
      <trkpt lat="45.883385371416807" lon="7.993058050051332">
        <ele>1576.8800000000001</ele>
        <time>2023-07-30T14:12:10Z</time>
      </trkpt>
      <trkpt lat="45.883439350873232" lon="7.993158800527453">
        <ele>1574.99</ele>
        <time>2023-07-30T14:12:27Z</time>
      </trkpt>
      <trkpt lat="45.883395597338676" lon="7.99326952546835">
        <ele>1574.1700000000001</ele>
        <time>2023-07-30T14:12:42Z</time>
      </trkpt>
      <trkpt lat="45.883502466604114" lon="7.993306908756495">
        <ele>1571.71</ele>
        <time>2023-07-30T14:12:59Z</time>
      </trkpt>
      <trkpt lat="45.883646970614791" lon="7.993285702541471">
        <ele>1567.8199999999999</ele>
        <time>2023-07-30T14:13:16Z</time>
      </trkpt>
      <trkpt lat="45.883769765496254" lon="7.993266843259335">
        <ele>1565.6700000000001</ele>
        <time>2023-07-30T14:13:31Z</time>
      </trkpt>
      <trkpt lat="45.883803376927972" lon="7.993266340345144">
        <ele>1565.4200000000001</ele>
        <time>2023-07-30T14:13:34Z</time>
      </trkpt>
      <trkpt lat="45.883902115747333" lon="7.993347812443972">
        <ele>1562.9200000000001</ele>
        <time>2023-07-30T14:13:49Z</time>
      </trkpt>
      <trkpt lat="45.88397822342813" lon="7.993415705859661">
        <ele>1560.3599999999999</ele>
        <time>2023-07-30T14:14:02Z</time>
      </trkpt>
      <trkpt lat="45.884081069380045" lon="7.993491562083364">
        <ele>1557.55</ele>
        <time>2023-07-30T14:14:17Z</time>
      </trkpt>
      <trkpt lat="45.88413261808455" lon="7.993545792996883">
        <ele>1553.74</ele>
        <time>2023-07-30T14:14:31Z</time>
      </trkpt>
      <trkpt lat="45.884063970297575" lon="7.993590636178851">
        <ele>1552.74</ele>
        <time>2023-07-30T14:14:47Z</time>
      </trkpt>
      <trkpt lat="45.884024323895574" lon="7.993652075529099">
        <ele>1552.21</ele>
        <time>2023-07-30T14:14:55Z</time>
      </trkpt>
      <trkpt lat="45.884033208712935" lon="7.993674958124757">
        <ele>1552.8099999999999</ele>
        <time>2023-07-30T14:14:57Z</time>
      </trkpt>
      <trkpt lat="45.884032873436809" lon="7.99378015100956">
        <ele>1556.8199999999999</ele>
        <time>2023-07-30T14:15:03Z</time>
      </trkpt>
      <trkpt lat="45.884047206491232" lon="7.99380412325263">
        <ele>1558.71</ele>
        <time>2023-07-30T14:15:06Z</time>
      </trkpt>
      <trkpt lat="45.884134797379375" lon="7.993832537904382">
        <ele>1559.2</ele>
        <time>2023-07-30T14:15:16Z</time>
      </trkpt>
      <trkpt lat="45.884056761860847" lon="7.993856677785516">
        <ele>1558.1500000000001</ele>
        <time>2023-07-30T14:15:30Z</time>
      </trkpt>
      <trkpt lat="45.88400705717504" lon="7.993876291438937">
        <ele>1557.6700000000001</ele>
        <time>2023-07-30T14:15:36Z</time>
      </trkpt>
      <trkpt lat="45.883993394672871" lon="7.993954997509718">
        <ele>1555.8599999999999</ele>
        <time>2023-07-30T14:15:51Z</time>
      </trkpt>
      <trkpt lat="45.884102359414101" lon="7.993995482102037">
        <ele>1551.6199999999999</ele>
        <time>2023-07-30T14:16:08Z</time>
      </trkpt>
      <trkpt lat="45.884220460429788" lon="7.993890037760139">
        <ele>1532.1199999999999</ele>
        <time>2023-07-30T14:16:49Z</time>
      </trkpt>
      <trkpt lat="45.884296400472522" lon="7.993895905092359">
        <ele>1525.1800000000001</ele>
        <time>2023-07-30T14:17:01Z</time>
      </trkpt>
      <trkpt lat="45.884410813450813" lon="7.993940329179168">
        <ele>1517.53</ele>
        <time>2023-07-30T14:17:21Z</time>
      </trkpt>
      <trkpt lat="45.884358678013086" lon="7.994016855955124">
        <ele>1513.47</ele>
        <time>2023-07-30T14:17:37Z</time>
      </trkpt>
      <trkpt lat="45.884336046874523" lon="7.994043845683336">
        <ele>1509.9300000000001</ele>
        <time>2023-07-30T14:17:51Z</time>
      </trkpt>
      <trkpt lat="45.884457835927606" lon="7.994058094918728">
        <ele>1504.1800000000001</ele>
        <time>2023-07-30T14:18:10Z</time>
      </trkpt>
      <trkpt lat="45.88435884565115" lon="7.994136633351445">
        <ele>1504.53</ele>
        <time>2023-07-30T14:18:24Z</time>
      </trkpt>
      <trkpt lat="45.88440528139472" lon="7.994214836508036">
        <ele>1502.96</ele>
        <time>2023-07-30T14:18:40Z</time>
      </trkpt>
      <trkpt lat="45.884261867031455" lon="7.994315586984158">
        <ele>1502.1099999999999</ele>
        <time>2023-07-30T14:18:55Z</time>
      </trkpt>
      <trkpt lat="45.88429874740541" lon="7.994320197030902">
        <ele>1501.04</ele>
        <time>2023-07-30T14:19:10Z</time>
      </trkpt>
      <trkpt lat="45.884370999410748" lon="7.994437962770462">
        <ele>1502.4100000000001</ele>
        <time>2023-07-30T14:19:25Z</time>
      </trkpt>
      <trkpt lat="45.884440150111914" lon="7.994466042146087">
        <ele>1500.6199999999999</ele>
        <time>2023-07-30T14:19:32Z</time>
      </trkpt>
      <trkpt lat="45.884503601118922" lon="7.994566038250923">
        <ele>1498.5799999999999</ele>
        <time>2023-07-30T14:19:42Z</time>
      </trkpt>
      <trkpt lat="45.884597059339285" lon="7.994704004377127">
        <ele>1495.7</ele>
        <time>2023-07-30T14:19:58Z</time>
      </trkpt>
      <trkpt lat="45.884705856442451" lon="7.994829984381795">
        <ele>1492.25</ele>
        <time>2023-07-30T14:20:17Z</time>
      </trkpt>
      <trkpt lat="45.884850611910224" lon="7.994928052648902">
        <ele>1489.1500000000001</ele>
        <time>2023-07-30T14:20:36Z</time>
      </trkpt>
      <trkpt lat="45.884858574718237" lon="7.994931405410171">
        <ele>1489.02</ele>
        <time>2023-07-30T14:20:37Z</time>
      </trkpt>
      <trkpt lat="45.8849589060992" lon="7.994951019063592">
        <ele>1486.9100000000001</ele>
        <time>2023-07-30T14:20:49Z</time>
      </trkpt>
      <trkpt lat="45.885132998228073" lon="7.994983037933707">
        <ele>1483.3299999999999</ele>
        <time>2023-07-30T14:21:09Z</time>
      </trkpt>
      <trkpt lat="45.885167112573981" lon="7.994972476735711">
        <ele>1482.71</ele>
        <time>2023-07-30T14:21:12Z</time>
      </trkpt>
      <trkpt lat="45.885302145034075" lon="7.99494800157845">
        <ele>1479.02</ele>
        <time>2023-07-30T14:21:25Z</time>
      </trkpt>
      <trkpt lat="45.885508507490158" lon="7.995022851973772">
        <ele>1475.0999999999999</ele>
        <time>2023-07-30T14:21:47Z</time>
      </trkpt>
      <trkpt lat="45.88563809171319" lon="7.995102228596807">
        <ele>1472.0799999999999</ele>
        <time>2023-07-30T14:22:05Z</time>
      </trkpt>
      <trkpt lat="45.885747224092484" lon="7.995240446180105">
        <ele>1468.48</ele>
        <time>2023-07-30T14:22:22Z</time>
      </trkpt>
      <trkpt lat="45.885871611535549" lon="7.995355110615492">
        <ele>1465.3099999999999</ele>
        <time>2023-07-30T14:22:41Z</time>
      </trkpt>
      <trkpt lat="45.886034136638045" lon="7.995438510552049">
        <ele>1462.8800000000001</ele>
        <time>2023-07-30T14:22:56Z</time>
      </trkpt>
      <trkpt lat="45.88616581633687" lon="7.995563400909305">
        <ele>1460.6700000000001</ele>
        <time>2023-07-30T14:23:14Z</time>
      </trkpt>
      <trkpt lat="45.886313756927848" lon="7.995700528845191">
        <ele>1456.8599999999999</ele>
        <time>2023-07-30T14:23:36Z</time>
      </trkpt>
      <trkpt lat="45.886440239846706" lon="7.995832962915301">
        <ele>1454.5899999999999</ele>
        <time>2023-07-30T14:23:54Z</time>
      </trkpt>
      <trkpt lat="45.886594131588936" lon="7.995938323438168">
        <ele>1453.45</ele>
        <time>2023-07-30T14:24:10Z</time>
      </trkpt>
      <trkpt lat="45.8866236358881" lon="7.995957350358367">
        <ele>1453.21</ele>
        <time>2023-07-30T14:24:13Z</time>
      </trkpt>
      <trkpt lat="45.886751040816307" lon="7.996111493557692">
        <ele>1451.0699999999999</ele>
        <time>2023-07-30T14:24:31Z</time>
      </trkpt>
      <trkpt lat="45.886800996959209" lon="7.996196234598756">
        <ele>1450.05</ele>
        <time>2023-07-30T14:24:41Z</time>
      </trkpt>
      <trkpt lat="45.886878110468388" lon="7.996297739446163">
        <ele>1449.22</ele>
        <time>2023-07-30T14:24:54Z</time>
      </trkpt>
      <trkpt lat="45.886936783790588" lon="7.996415253728628">
        <ele>1447.71</ele>
        <time>2023-07-30T14:25:07Z</time>
      </trkpt>
      <trkpt lat="45.886945081874728" lon="7.996593369171023">
        <ele>1444.54</ele>
        <time>2023-07-30T14:25:24Z</time>
      </trkpt>
      <trkpt lat="45.886961007490754" lon="7.996644666418433">
        <ele>1443.5799999999999</ele>
        <time>2023-07-30T14:25:41Z</time>
      </trkpt>
      <trkpt lat="45.886955894529819" lon="7.996639302000403">
        <ele>1444.8900000000001</ele>
        <time>2023-07-30T14:26:00Z</time>
      </trkpt>
      <trkpt lat="45.886951871216297" lon="7.9968018271029">
        <ele>1445.3299999999999</ele>
        <time>2023-07-30T14:26:12Z</time>
      </trkpt>
      <trkpt lat="45.886955810710788" lon="7.996822614222765">
        <ele>1445.7</ele>
        <time>2023-07-30T14:26:13Z</time>
      </trkpt>
      <trkpt lat="45.886913733556867" lon="7.997006848454475">
        <ele>1447.9200000000001</ele>
        <time>2023-07-30T14:26:28Z</time>
      </trkpt>
      <trkpt lat="45.886873081326485" lon="7.997086979448795">
        <ele>1447.9200000000001</ele>
        <time>2023-07-30T14:26:43Z</time>
      </trkpt>
      <trkpt lat="45.886826813220978" lon="7.997136684134603">
        <ele>1447.25</ele>
        <time>2023-07-30T14:26:51Z</time>
      </trkpt>
      <trkpt lat="45.886767385527492" lon="7.997271046042442">
        <ele>1445.28</ele>
        <time>2023-07-30T14:27:03Z</time>
      </trkpt>
      <trkpt lat="45.886694714426994" lon="7.997407084330916">
        <ele>1443.04</ele>
        <time>2023-07-30T14:27:18Z</time>
      </trkpt>
      <trkpt lat="45.886647440493107" lon="7.997558461502194">
        <ele>1440.1600000000001</ele>
        <time>2023-07-30T14:27:36Z</time>
      </trkpt>
      <trkpt lat="45.886565800756216" lon="7.997569022700191">
        <ele>1438.52</ele>
        <time>2023-07-30T14:27:48Z</time>
      </trkpt>
      <trkpt lat="45.886542247608304" lon="7.997552594169974">
        <ele>1438.3599999999999</ele>
        <time>2023-07-30T14:27:50Z</time>
      </trkpt>
      <trkpt lat="45.886479886248708" lon="7.997557371854782">
        <ele>1438.0899999999999</ele>
        <time>2023-07-30T14:27:56Z</time>
      </trkpt>
      <trkpt lat="45.886428924277425" lon="7.997595425695181">
        <ele>1437.5</ele>
        <time>2023-07-30T14:28:02Z</time>
      </trkpt>
      <trkpt lat="45.886328341439366" lon="7.997612776234746">
        <ele>1436.3800000000001</ele>
        <time>2023-07-30T14:28:10Z</time>
      </trkpt>
      <trkpt lat="45.886287102475762" lon="7.997630210593343">
        <ele>1436.22</ele>
        <time>2023-07-30T14:28:14Z</time>
      </trkpt>
      <trkpt lat="45.886244773864746" lon="7.997668432071805">
        <ele>1435.6900000000001</ele>
        <time>2023-07-30T14:28:19Z</time>
      </trkpt>
      <trkpt lat="45.886196242645383" lon="7.997775133699179">
        <ele>1434.55</ele>
        <time>2023-07-30T14:28:31Z</time>
      </trkpt>
      <trkpt lat="45.886182580143213" lon="7.997829113155603">
        <ele>1434.27</ele>
        <time>2023-07-30T14:28:35Z</time>
      </trkpt>
      <trkpt lat="45.886181239038706" lon="7.997878231108189">
        <ele>1433.4200000000001</ele>
        <time>2023-07-30T14:28:42Z</time>
      </trkpt>
      <trkpt lat="45.886192051693797" lon="7.997978897765279">
        <ele>1432.3699999999999</ele>
        <time>2023-07-30T14:28:50Z</time>
      </trkpt>
      <trkpt lat="45.886205462738872" lon="7.998088281601667">
        <ele>1432.3099999999999</ele>
        <time>2023-07-30T14:28:59Z</time>
      </trkpt>
      <trkpt lat="45.88617654517293" lon="7.998149553313851">
        <ele>1432.1800000000001</ele>
        <time>2023-07-30T14:29:04Z</time>
      </trkpt>
      <trkpt lat="45.886125834658742" lon="7.998199593275785">
        <ele>1431.8199999999999</ele>
        <time>2023-07-30T14:29:10Z</time>
      </trkpt>
      <trkpt lat="45.886112172156572" lon="7.998254243284464">
        <ele>1431.71</ele>
        <time>2023-07-30T14:29:15Z</time>
      </trkpt>
      <trkpt lat="45.88608224876225" lon="7.998278886079788">
        <ele>1431.6099999999999</ele>
        <time>2023-07-30T14:29:19Z</time>
      </trkpt>
      <trkpt lat="45.886004967615008" lon="7.99841433763504">
        <ele>1431.7</ele>
        <time>2023-07-30T14:29:32Z</time>
      </trkpt>
      <trkpt lat="45.885964315384626" lon="7.998570241034031">
        <ele>1432.0899999999999</ele>
        <time>2023-07-30T14:29:48Z</time>
      </trkpt>
      <trkpt lat="45.885950569063425" lon="7.998653389513493">
        <ele>1432.5699999999999</ele>
        <time>2023-07-30T14:29:57Z</time>
      </trkpt>
      <trkpt lat="45.885994406417012" lon="7.998763443902135">
        <ele>1432.6600000000001</ele>
        <time>2023-07-30T14:30:05Z</time>
      </trkpt>
      <trkpt lat="45.886040339246392" lon="7.998827900737524">
        <ele>1432.4200000000001</ele>
        <time>2023-07-30T14:30:17Z</time>
      </trkpt>
      <trkpt lat="45.886039501056075" lon="7.998933596536517">
        <ele>1431.21</ele>
        <time>2023-07-30T14:30:24Z</time>
      </trkpt>
      <trkpt lat="45.886018462479115" lon="7.999034766107798">
        <ele>1430.0699999999999</ele>
        <time>2023-07-30T14:30:31Z</time>
      </trkpt>
      <trkpt lat="45.886013181880116" lon="7.999101905152202">
        <ele>1428.9200000000001</ele>
        <time>2023-07-30T14:30:36Z</time>
      </trkpt>
      <trkpt lat="45.886001782491803" lon="7.999126883223653">
        <ele>1428.4000000000001</ele>
        <time>2023-07-30T14:30:38Z</time>
      </trkpt>
      <trkpt lat="45.885937241837382" lon="7.999279769137502">
        <ele>1426.0899999999999</ele>
        <time>2023-07-30T14:30:49Z</time>
      </trkpt>
      <trkpt lat="45.885930536314845" lon="7.999292844906449">
        <ele>1425.79</ele>
        <time>2023-07-30T14:30:51Z</time>
      </trkpt>
      <trkpt lat="45.885890973731875" lon="7.999375993385911">
        <ele>1425</ele>
        <time>2023-07-30T14:30:58Z</time>
      </trkpt>
      <trkpt lat="45.885993484407663" lon="7.999545056372881">
        <ele>1424.3299999999999</ele>
        <time>2023-07-30T14:31:11Z</time>
      </trkpt>
      <trkpt lat="45.88599918410182" lon="7.999576656147838">
        <ele>1424.0999999999999</ele>
        <time>2023-07-30T14:31:28Z</time>
      </trkpt>
      <trkpt lat="45.88598694652319" lon="7.999575734138489">
        <ele>1425.1500000000001</ele>
        <time>2023-07-30T14:31:45Z</time>
      </trkpt>
      <trkpt lat="45.885951993986964" lon="7.999528795480728">
        <ele>1425.3099999999999</ele>
        <time>2023-07-30T14:31:54Z</time>
      </trkpt>
      <trkpt lat="45.885822242125869" lon="7.999390913173556">
        <ele>1425.1300000000001</ele>
        <time>2023-07-30T14:32:09Z</time>
      </trkpt>
      <trkpt lat="45.885813944041729" lon="7.999383704736829">
        <ele>1425.22</ele>
        <time>2023-07-30T14:32:10Z</time>
      </trkpt>
      <trkpt lat="45.885762227699161" lon="7.99938915297389">
        <ele>1425.5999999999999</ele>
        <time>2023-07-30T14:32:17Z</time>
      </trkpt>
      <trkpt lat="45.885709840804338" lon="7.999449754133821">
        <ele>1425.0599999999999</ele>
        <time>2023-07-30T14:32:34Z</time>
      </trkpt>
      <trkpt lat="45.885716881603003" lon="7.99943751655519">
        <ele>1421.7</ele>
        <time>2023-07-30T14:32:55Z</time>
      </trkpt>
      <trkpt lat="45.885719982907176" lon="7.999432655051351">
        <ele>1419.8800000000001</ele>
        <time>2023-07-30T14:33:20Z</time>
      </trkpt>
      <trkpt lat="45.885659130290151" lon="7.999510522931814">
        <ele>1419.49</ele>
        <time>2023-07-30T14:33:32Z</time>
      </trkpt>
      <trkpt lat="45.885645551607013" lon="7.999562239274383">
        <ele>1419.3399999999999</ele>
        <time>2023-07-30T14:33:36Z</time>
      </trkpt>
      <trkpt lat="45.885701458901167" lon="7.999661229550839">
        <ele>1418.72</ele>
        <time>2023-07-30T14:33:46Z</time>
      </trkpt>
      <trkpt lat="45.885770777240396" lon="7.99978788010776">
        <ele>1418.45</ele>
        <time>2023-07-30T14:33:56Z</time>
      </trkpt>
      <trkpt lat="45.885789217427373" lon="7.999909333884716">
        <ele>1419.0599999999999</ele>
        <time>2023-07-30T14:34:04Z</time>
      </trkpt>
      <trkpt lat="45.885729705914855" lon="8.000088119879365">
        <ele>1418.9400000000001</ele>
        <time>2023-07-30T14:34:18Z</time>
      </trkpt>
      <trkpt lat="45.885719479992986" lon="8.000166323035955">
        <ele>1417.9300000000001</ele>
        <time>2023-07-30T14:34:24Z</time>
      </trkpt>
      <trkpt lat="45.885719899088144" lon="8.000191384926438">
        <ele>1417.53</ele>
        <time>2023-07-30T14:34:26Z</time>
      </trkpt>
      <trkpt lat="45.885664410889149" lon="8.000316526740789">
        <ele>1417.0599999999999</ele>
        <time>2023-07-30T14:34:37Z</time>
      </trkpt>
      <trkpt lat="45.88562149554491" lon="8.000430269166827">
        <ele>1414.9400000000001</ele>
        <time>2023-07-30T14:34:48Z</time>
      </trkpt>
      <trkpt lat="45.885614203289151" lon="8.000448457896709">
        <ele>1414.49</ele>
        <time>2023-07-30T14:34:51Z</time>
      </trkpt>
      <trkpt lat="45.885568186640739" lon="8.000542167574167">
        <ele>1413.03</ele>
        <time>2023-07-30T14:34:59Z</time>
      </trkpt>
      <trkpt lat="45.885501969605684" lon="8.000719863921404">
        <ele>1411.3</ele>
        <time>2023-07-30T14:35:12Z</time>
      </trkpt>
      <trkpt lat="45.885456036776304" lon="8.00079295411706">
        <ele>1411.49</ele>
        <time>2023-07-30T14:35:20Z</time>
      </trkpt>
      <trkpt lat="45.885419072583318" lon="8.000827822834253">
        <ele>1411.1199999999999</ele>
        <time>2023-07-30T14:35:24Z</time>
      </trkpt>
      <trkpt lat="45.885327542200685" lon="8.00093712285161">
        <ele>1412.5</ele>
        <time>2023-07-30T14:35:39Z</time>
      </trkpt>
      <trkpt lat="45.885322177782655" lon="8.000949192792177">
        <ele>1412.4300000000001</ele>
        <time>2023-07-30T14:35:40Z</time>
      </trkpt>
      <trkpt lat="45.885287225246429" lon="8.001015409827232">
        <ele>1412</ele>
        <time>2023-07-30T14:35:45Z</time>
      </trkpt>
      <trkpt lat="45.885204747319221" lon="8.00111155025661">
        <ele>1410.99</ele>
        <time>2023-07-30T14:35:55Z</time>
      </trkpt>
      <trkpt lat="45.885147415101528" lon="8.001193776726723">
        <ele>1409.23</ele>
        <time>2023-07-30T14:36:04Z</time>
      </trkpt>
      <trkpt lat="45.885075833648443" lon="8.001286899670959">
        <ele>1406.3599999999999</ele>
        <time>2023-07-30T14:36:14Z</time>
      </trkpt>
      <trkpt lat="45.88501799851656" lon="8.001382537186146">
        <ele>1402.98</ele>
        <time>2023-07-30T14:36:26Z</time>
      </trkpt>
      <trkpt lat="45.885010873898864" lon="8.001402318477631">
        <ele>1401.6300000000001</ele>
        <time>2023-07-30T14:36:41Z</time>
      </trkpt>
      <trkpt lat="45.884977597743273" lon="8.001477671787143">
        <ele>1401.79</ele>
        <time>2023-07-30T14:36:47Z</time>
      </trkpt>
      <trkpt lat="45.884925713762641" lon="8.001591749489307">
        <ele>1400.55</ele>
        <time>2023-07-30T14:37:00Z</time>
      </trkpt>
      <trkpt lat="45.8848069421947" lon="8.001744719222188">
        <ele>1398.78</ele>
        <time>2023-07-30T14:37:12Z</time>
      </trkpt>
      <trkpt lat="45.884698815643787" lon="8.00191730260849">
        <ele>1395.51</ele>
        <time>2023-07-30T14:37:27Z</time>
      </trkpt>
      <trkpt lat="45.884690601378679" lon="8.001929959282279">
        <ele>1395.27</ele>
        <time>2023-07-30T14:37:28Z</time>
      </trkpt>
      <trkpt lat="45.884679201990366" lon="8.001942867413163">
        <ele>1395.0899999999999</ele>
        <time>2023-07-30T14:37:31Z</time>
      </trkpt>
      <trkpt lat="45.884676771238446" lon="8.001899365335703">
        <ele>1394.29</ele>
        <time>2023-07-30T14:37:34Z</time>
      </trkpt>
      <trkpt lat="45.88470577262342" lon="8.001702474430203">
        <ele>1387.6099999999999</ele>
        <time>2023-07-30T14:37:49Z</time>
      </trkpt>
      <trkpt lat="45.884706443175673" lon="8.001688392832875">
        <ele>1387.3900000000001</ele>
        <time>2023-07-30T14:37:50Z</time>
      </trkpt>
      <trkpt lat="45.884714657440782" lon="8.00162703730166">
        <ele>1386.96</ele>
        <time>2023-07-30T14:37:54Z</time>
      </trkpt>
      <trkpt lat="45.884747933596373" lon="8.00153223797679">
        <ele>1386.5</ele>
        <time>2023-07-30T14:38:00Z</time>
      </trkpt>
      <trkpt lat="45.884733516722918" lon="8.00144431181252">
        <ele>1387.1800000000001</ele>
        <time>2023-07-30T14:38:13Z</time>
      </trkpt>
      <trkpt lat="45.884747933596373" lon="8.001433582976461">
        <ele>1390.1199999999999</ele>
        <time>2023-07-30T14:38:34Z</time>
      </trkpt>
      <trkpt lat="45.884772073477507" lon="8.001432912424207">
        <ele>1391.0799999999999</ele>
        <time>2023-07-30T14:38:51Z</time>
      </trkpt>
      <trkpt lat="45.884752627462149" lon="8.001423357054591">
        <ele>1390.4100000000001</ele>
        <time>2023-07-30T14:39:09Z</time>
      </trkpt>
    </trkseg>
  </trk>

</gpx>